GFSMW_prec_pwat_003.txt.gz
Precipitable_Water
0.82 0.92 0.99 1.05 1.08 1.11 1.13 1.18 1.15 1.12 0.98 0.90 0.82 0.78 0.77 0.78 0.73 0.65 0.65 0.63 0.63 0.62 0.61 0.59 0.57 0.56 0.53 0.53 0.51 0.48 0.45 0.45 0.47 0.42 0.38 0.36 0.40 0.43 0.44 0.42 0.40 0.39 0.37
0.79 0.87 0.95 1.05 1.12 1.18 1.18 1.05 0.91 0.81 0.78 0.77 0.78 0.79 0.71 0.63 0.62 0.63 0.64 0.63 0.62 0.61 0.59 0.59 0.58 0.59 0.57 0.56 0.53 0.48 0.42 0.43 0.42 0.32 0.28 0.22 0.24 0.31 0.35 0.35 0.34 0.34 0.33
0.77 0.88 0.96 0.98 0.94 0.87 0.84 0.80 0.76 0.74 0.73 0.69 0.66 0.65 0.66 0.66 0.61 0.61 0.60 0.60 0.60 0.59 0.59 0.59 0.57 0.57 0.56 0.51 0.47 0.43 0.39 0.34 0.38 0.35 0.27 0.22 0.21 0.28 0.29 0.30 0.32 0.32 0.30
0.75 0.75 0.71 0.71 0.74 0.70 0.70 0.71 0.70 0.67 0.68 0.70 0.64 0.61 0.60 0.58 0.61 0.59 0.61 0.62 0.61 0.58 0.57 0.56 0.54 0.52 0.50 0.46 0.42 0.40 0.37 0.34 0.29 0.31 0.33 0.30 0.30 0.22 0.19 0.25 0.26 0.28 0.25
0.62 0.58 0.59 0.61 0.65 0.68 0.70 0.72 0.70 0.71 0.69 0.68 0.65 0.62 0.61 0.61 0.59 0.60 0.60 0.59 0.58 0.56 0.52 0.50 0.46 0.42 0.41 0.40 0.37 0.34 0.31 0.33 0.30 0.30 0.27 0.27 0.27 0.27 0.24 0.17 0.19 0.22 0.23
0.60 0.62 0.64 0.67 0.67 0.70 0.69 0.68 0.68 0.69 0.71 0.71 0.70 0.67 0.62 0.58 0.56 0.55 0.52 0.49 0.48 0.45 0.42 0.39 0.37 0.39 0.41 0.41 0.41 0.38 0.38 0.31 0.29 0.28 0.26 0.23 0.23 0.23 0.24 0.20 0.19 0.17 0.18
0.60 0.62 0.64 0.67 0.66 0.64 0.66 0.67 0.68 0.69 0.71 0.70 0.67 0.62 0.56 0.52 0.45 0.37 0.33 0.30 0.28 0.27 0.29 0.36 0.39 0.44 0.43 0.43 0.43 0.41 0.34 0.32 0.28 0.27 0.26 0.26 0.25 0.25 0.24 0.22 0.18 0.17 0.17
0.62 0.64 0.68 0.66 0.63 0.64 0.66 0.68 0.69 0.69 0.65 0.59 0.53 0.47 0.43 0.38 0.32 0.29 0.25 0.22 0.21 0.22 0.26 0.32 0.40 0.43 0.43 0.42 0.46 0.39 0.37 0.31 0.28 0.27 0.28 0.26 0.26 0.27 0.25 0.21 0.20 0.16 0.16
0.61 0.65 0.67 0.63 0.63 0.65 0.68 0.68 0.63 0.61 0.57 0.52 0.50 0.48 0.41 0.35 0.32 0.29 0.26 0.23 0.25 0.28 0.33 0.37 0.41 0.44 0.45 0.43 0.43 0.34 0.29 0.27 0.26 0.27 0.28 0.26 0.25 0.25 0.23 0.23 0.23 0.20 0.15
0.61 0.63 0.62 0.64 0.66 0.68 0.67 0.64 0.60 0.59 0.55 0.54 0.51 0.42 0.37 0.34 0.31 0.28 0.25 0.24 0.26 0.31 0.37 0.40 0.44 0.45 0.41 0.37 0.32 0.29 0.28 0.26 0.27 0.26 0.25 0.22 0.21 0.22 0.23 0.23 0.22 0.20 0.17
0.58 0.60 0.61 0.65 0.68 0.68 0.65 0.64 0.65 0.60 0.53 0.49 0.43 0.39 0.36 0.34 0.32 0.28 0.26 0.26 0.28 0.32 0.37 0.41 0.41 0.37 0.36 0.35 0.28 0.27 0.25 0.25 0.24 0.24 0.21 0.20 0.21 0.21 0.21 0.21 0.20 0.19 0.19
0.58 0.60 0.61 0.63 0.63 0.62 0.62 0.63 0.59 0.52 0.52 0.43 0.40 0.38 0.37 0.34 0.31 0.28 0.28 0.29 0.28 0.32 0.36 0.37 0.36 0.36 0.36 0.28 0.26 0.26 0.26 0.25 0.23 0.21 0.20 0.20 0.21 0.20 0.21 0.21 0.20 0.20 0.22
0.55 0.57 0.58 0.59 0.59 0.59 0.59 0.58 0.56 0.54 0.42 0.39 0.38 0.37 0.35 0.34 0.31 0.29 0.29 0.29 0.30 0.31 0.34 0.36 0.34 0.30 0.27 0.26 0.27 0.27 0.27 0.26 0.25 0.22 0.21 0.20 0.20 0.20 0.21 0.21 0.20 0.22 0.24
0.53 0.56 0.57 0.58 0.58 0.55 0.57 0.62 0.50 0.42 0.39 0.38 0.36 0.36 0.35 0.34 0.32 0.30 0.29 0.29 0.31 0.32 0.33 0.36 0.34 0.31 0.26 0.28 0.29 0.27 0.26 0.27 0.26 0.23 0.21 0.21 0.21 0.21 0.21 0.22 0.24 0.26 0.24
0.51 0.54 0.56 0.55 0.51 0.57 0.55 0.43 0.43 0.40 0.38 0.36 0.36 0.34 0.35 0.34 0.31 0.28 0.28 0.29 0.31 0.34 0.34 0.34 0.26 0.27 0.28 0.29 0.29 0.27 0.28 0.28 0.24 0.22 0.20 0.20 0.22 0.21 0.22 0.21 0.23 0.24 0.23
0.50 0.54 0.55 0.51 0.53 0.45 0.44 0.43 0.41 0.38 0.36 0.36 0.35 0.34 0.34 0.32 0.28 0.28 0.27 0.29 0.32 0.35 0.33 0.32 0.30 0.28 0.30 0.34 0.31 0.30 0.27 0.22 0.19 0.16 0.17 0.18 0.18 0.19 0.21 0.22 0.24 0.24 0.23
0.51 0.52 0.52 0.50 0.44 0.44 0.45 0.42 0.39 0.36 0.36 0.36 0.33 0.31 0.32 0.29 0.28 0.27 0.26 0.28 0.30 0.34 0.33 0.31 0.31 0.32 0.30 0.30 0.29 0.26 0.21 0.18 0.17 0.16 0.16 0.17 0.18 0.20 0.21 0.23 0.24 0.26 0.26
0.50 0.52 0.53 0.49 0.46 0.46 0.44 0.41 0.36 0.36 0.36 0.33 0.30 0.30 0.29 0.27 0.27 0.27 0.26 0.28 0.30 0.29 0.31 0.31 0.31 0.29 0.27 0.26 0.23 0.22 0.19 0.17 0.17 0.17 0.18 0.18 0.19 0.20 0.22 0.23 0.24 0.24 0.24
0.55 0.56 0.53 0.49 0.47 0.46 0.41 0.36 0.35 0.37 0.36 0.30 0.28 0.27 0.27 0.25 0.26 0.26 0.26 0.27 0.26 0.27 0.28 0.28 0.26 0.23 0.22 0.22 0.22 0.20 0.18 0.17 0.17 0.18 0.19 0.19 0.19 0.21 0.22 0.21 0.20 0.19 0.22
0.59 0.56 0.52 0.49 0.47 0.42 0.38 0.37 0.38 0.38 0.30 0.27 0.26 0.26 0.25 0.25 0.26 0.27 0.28 0.27 0.27 0.25 0.25 0.25 0.24 0.23 0.21 0.22 0.21 0.19 0.18 0.17 0.17 0.17 0.18 0.19 0.20 0.20 0.19 0.19 0.19 0.17 0.23
0.56 0.53 0.53 0.50 0.46 0.43 0.42 0.40 0.38 0.31 0.28 0.28 0.26 0.24 0.24 0.25 0.27 0.28 0.29 0.27 0.25 0.24 0.24 0.24 0.23 0.22 0.23 0.22 0.21 0.19 0.18 0.18 0.17 0.15 0.14 0.18 0.18 0.18 0.19 0.20 0.19 0.19 0.23
0.53 0.58 0.51 0.45 0.48 0.46 0.43 0.37 0.32 0.29 0.29 0.26 0.23 0.22 0.24 0.25 0.26 0.27 0.28 0.27 0.25 0.24 0.25 0.24 0.24 0.24 0.22 0.21 0.20 0.20 0.19 0.19 0.17 0.15 0.14 0.17 0.19 0.19 0.19 0.19 0.19 0.19 0.20
0.56 0.53 0.46 0.52 0.46 0.43 0.39 0.32 0.29 0.30 0.26 0.23 0.22 0.23 0.25 0.25 0.26 0.27 0.28 0.27 0.26 0.26 0.25 0.25 0.23 0.21 0.22 0.21 0.20 0.21 0.20 0.19 0.17 0.17 0.15 0.14 0.15 0.17 0.18 0.19 0.18 0.18 0.17
0.52 0.54 0.56 0.44 0.41 0.38 0.35 0.30 0.29 0.26 0.24 0.23 0.24 0.25 0.24 0.25 0.27 0.29 0.29 0.27 0.27 0.26 0.27 0.23 0.20 0.20 0.20 0.21 0.21 0.21 0.21 0.19 0.18 0.18 0.16 0.15 0.15 0.14 0.16 0.19 0.18 0.17 0.15
0.64 0.56 0.46 0.43 0.37 0.35 0.30 0.29 0.26 0.25 0.24 0.24 0.24 0.23 0.25 0.27 0.28 0.29 0.30 0.29 0.29 0.30 0.24 0.21 0.21 0.20 0.20 0.22 0.22 0.21 0.20 0.20 0.19 0.17 0.17 0.15 0.15 0.15 0.15 0.17 0.19 0.16 0.14
0.53 0.47 0.43 0.37 0.33 0.30 0.27 0.26 0.25 0.26 0.25 0.24 0.23 0.24 0.25 0.27 0.29 0.31 0.31 0.32 0.31 0.29 0.25 0.25 0.23 0.23 0.23 0.23 0.23 0.22 0.21 0.20 0.19 0.17 0.15 0.15 0.15 0.15 0.15 0.15 0.17 0.18 0.15

GFSMW_prec_pwat_006.txt.gz
Precipitable_Water
0.81 0.89 0.95 1.00 1.05 1.12 1.12 1.12 1.16 1.08 1.00 0.88 0.81 0.76 0.72 0.73 0.70 0.67 0.65 0.65 0.66 0.66 0.65 0.62 0.62 0.62 0.60 0.60 0.59 0.56 0.52 0.50 0.51 0.41 0.34 0.33 0.32 0.40 0.45 0.51 0.44 0.42 0.45
0.78 0.89 0.97 1.01 1.04 1.07 1.14 1.12 0.97 0.96 0.88 0.82 0.77 0.77 0.76 0.69 0.64 0.68 0.68 0.68 0.67 0.65 0.64 0.65 0.62 0.61 0.58 0.57 0.59 0.53 0.45 0.39 0.45 0.39 0.32 0.24 0.25 0.27 0.40 0.40 0.36 0.37 0.41
0.74 0.84 0.94 1.04 1.11 1.08 1.00 0.94 0.91 0.83 0.79 0.77 0.70 0.68 0.70 0.69 0.68 0.67 0.65 0.67 0.68 0.66 0.63 0.61 0.58 0.56 0.55 0.51 0.50 0.44 0.39 0.34 0.36 0.40 0.33 0.23 0.20 0.24 0.27 0.31 0.30 0.34 0.32
0.85 0.90 0.94 0.94 0.95 0.94 0.95 0.86 0.79 0.76 0.70 0.68 0.69 0.68 0.66 0.65 0.68 0.66 0.67 0.68 0.67 0.63 0.58 0.55 0.54 0.50 0.45 0.42 0.43 0.41 0.38 0.36 0.28 0.31 0.31 0.32 0.29 0.24 0.22 0.27 0.31 0.28 0.28
0.81 0.75 0.75 0.80 0.79 0.77 0.74 0.73 0.71 0.68 0.69 0.71 0.71 0.69 0.68 0.67 0.66 0.65 0.62 0.57 0.53 0.52 0.49 0.48 0.45 0.41 0.40 0.43 0.43 0.42 0.38 0.37 0.34 0.33 0.31 0.30 0.28 0.26 0.23 0.20 0.23 0.26 0.26
0.67 0.64 0.69 0.71 0.69 0.72 0.70 0.71 0.68 0.69 0.71 0.72 0.74 0.71 0.65 0.59 0.54 0.48 0.39 0.35 0.32 0.29 0.29 0.31 0.40 0.44 0.44 0.46 0.43 0.41 0.43 0.40 0.39 0.34 0.29 0.26 0.26 0.25 0.24 0.22 0.21 0.20 0.21
0.58 0.58 0.61 0.65 0.67 0.69 0.70 0.69 0.69 0.69 0.72 0.73 0.68 0.62 0.55 0.51 0.44 0.36 0.32 0.29 0.27 0.26 0.26 0.28 0.32 0.42 0.47 0.45 0.46 0.46 0.44 0.38 0.36 0.31 0.27 0.28 0.27 0.28 0.27 0.24 0.21 0.19 0.19
0.60 0.60 0.64 0.68 0.69 0.70 0.68 0.69 0.70 0.70 0.68 0.62 0.58 0.60 0.52 0.45 0.40 0.36 0.33 0.30 0.29 0.30 0.33 0.36 0.41 0.45 0.46 0.46 0.50 0.50 0.40 0.36 0.31 0.30 0.30 0.30 0.30 0.28 0.26 0.24 0.21 0.17 0.18
0.58 0.62 0.68 0.70 0.69 0.67 0.68 0.70 0.68 0.63 0.59 0.60 0.68 0.57 0.52 0.47 0.41 0.36 0.33 0.30 0.30 0.32 0.36 0.41 0.44 0.47 0.47 0.49 0.46 0.39 0.34 0.33 0.30 0.30 0.30 0.28 0.27 0.26 0.24 0.23 0.23 0.21 0.16
0.59 0.64 0.66 0.68 0.68 0.69 0.71 0.68 0.64 0.63 0.65 0.69 0.61 0.50 0.49 0.45 0.39 0.33 0.31 0.30 0.31 0.32 0.35 0.42 0.45 0.43 0.46 0.42 0.38 0.34 0.32 0.30 0.29 0.29 0.28 0.26 0.24 0.24 0.24 0.23 0.23 0.22 0.20
0.58 0.62 0.64 0.68 0.69 0.70 0.67 0.65 0.64 0.64 0.64 0.61 0.56 0.50 0.44 0.41 0.36 0.34 0.32 0.31 0.31 0.32 0.33 0.37 0.40 0.40 0.38 0.37 0.39 0.32 0.29 0.28 0.29 0.29 0.28 0.27 0.25 0.24 0.23 0.23 0.22 0.22 0.21
0.59 0.61 0.64 0.68 0.69 0.65 0.64 0.63 0.63 0.63 0.59 0.58 0.47 0.43 0.42 0.39 0.36 0.35 0.33 0.33 0.31 0.31 0.32 0.34 0.36 0.37 0.36 0.37 0.31 0.28 0.29 0.29 0.28 0.28 0.27 0.27 0.25 0.24 0.23 0.22 0.22 0.23 0.22
0.56 0.58 0.61 0.63 0.64 0.62 0.61 0.61 0.63 0.58 0.56 0.43 0.42 0.42 0.40 0.37 0.37 0.36 0.34 0.33 0.32 0.33 0.35 0.35 0.34 0.33 0.33 0.30 0.29 0.30 0.30 0.30 0.29 0.29 0.28 0.26 0.24 0.22 0.22 0.22 0.22 0.22 0.23
0.54 0.57 0.57 0.59 0.60 0.60 0.60 0.61 0.57 0.55 0.43 0.42 0.42 0.40 0.38 0.37 0.38 0.37 0.34 0.32 0.32 0.32 0.34 0.36 0.36 0.34 0.30 0.28 0.30 0.31 0.32 0.31 0.30 0.30 0.28 0.24 0.22 0.21 0.21 0.20 0.21 0.21 0.23
0.51 0.53 0.54 0.55 0.57 0.56 0.56 0.55 0.54 0.45 0.44 0.43 0.41 0.39 0.38 0.39 0.38 0.36 0.32 0.30 0.31 0.34 0.36 0.32 0.31 0.31 0.30 0.29 0.31 0.32 0.33 0.30 0.27 0.23 0.20 0.19 0.19 0.19 0.19 0.20 0.20 0.21 0.21
0.47 0.51 0.54 0.53 0.54 0.52 0.54 0.54 0.46 0.45 0.45 0.42 0.40 0.38 0.37 0.37 0.36 0.32 0.29 0.29 0.30 0.32 0.34 0.35 0.36 0.33 0.32 0.34 0.31 0.27 0.26 0.24 0.21 0.18 0.18 0.18 0.18 0.19 0.20 0.21 0.22 0.22 0.21
0.46 0.48 0.51 0.53 0.52 0.51 0.54 0.49 0.46 0.46 0.43 0.39 0.39 0.37 0.36 0.35 0.32 0.29 0.28 0.28 0.28 0.32 0.32 0.33 0.35 0.33 0.34 0.28 0.25 0.23 0.22 0.22 0.19 0.18 0.17 0.17 0.18 0.20 0.21 0.21 0.22 0.24 0.25
0.43 0.48 0.53 0.55 0.53 0.52 0.52 0.49 0.46 0.43 0.39 0.39 0.40 0.35 0.34 0.31 0.28 0.27 0.27 0.28 0.30 0.30 0.29 0.30 0.31 0.31 0.28 0.25 0.23 0.22 0.23 0.20 0.19 0.18 0.19 0.19 0.19 0.20 0.21 0.20 0.20 0.21 0.21
0.51 0.55 0.59 0.58 0.55 0.51 0.50 0.47 0.46 0.41 0.40 0.43 0.37 0.31 0.29 0.26 0.25 0.25 0.27 0.30 0.30 0.28 0.29 0.29 0.29 0.28 0.26 0.25 0.23 0.22 0.22 0.20 0.19 0.20 0.19 0.18 0.18 0.19 0.18 0.19 0.19 0.20 0.19
0.55 0.58 0.60 0.58 0.53 0.51 0.53 0.52 0.42 0.40 0.44 0.39 0.31 0.30 0.26 0.24 0.23 0.25 0.28 0.30 0.30 0.29 0.27 0.26 0.26 0.25 0.26 0.24 0.23 0.21 0.21 0.20 0.20 0.20 0.17 0.17 0.19 0.18 0.19 0.19 0.20 0.19 0.19
0.60 0.62 0.60 0.54 0.51 0.55 0.54 0.44 0.42 0.45 0.40 0.34 0.31 0.26 0.24 0.23 0.24 0.26 0.28 0.29 0.30 0.30 0.27 0.26 0.27 0.27 0.25 0.25 0.22 0.21 0.20 0.20 0.18 0.18 0.17 0.16 0.17 0.17 0.19 0.19 0.21 0.19 0.19
0.60 0.59 0.54 0.52 0.58 0.57 0.49 0.45 0.44 0.41 0.37 0.32 0.27 0.25 0.25 0.26 0.26 0.26 0.27 0.29 0.29 0.28 0.27 0.28 0.28 0.28 0.26 0.23 0.22 0.21 0.20 0.20 0.18 0.18 0.19 0.18 0.16 0.15 0.16 0.17 0.19 0.19 0.19
0.55 0.55 0.54 0.58 0.55 0.55 0.49 0.44 0.41 0.37 0.31 0.27 0.26 0.27 0.28 0.27 0.26 0.26 0.27 0.29 0.29 0.28 0.27 0.27 0.27 0.26 0.27 0.25 0.22 0.21 0.21 0.20 0.18 0.19 0.18 0.17 0.16 0.17 0.17 0.17 0.19 0.21 0.19
0.54 0.55 0.55 0.55 0.55 0.54 0.49 0.41 0.37 0.32 0.29 0.27 0.27 0.28 0.26 0.24 0.26 0.28 0.28 0.29 0.28 0.28 0.27 0.27 0.25 0.23 0.24 0.24 0.24 0.24 0.24 0.22 0.21 0.21 0.20 0.19 0.18 0.19 0.18 0.18 0.19 0.21 0.18
0.56 0.60 0.62 0.60 0.52 0.45 0.40 0.37 0.34 0.31 0.28 0.27 0.27 0.26 0.25 0.24 0.25 0.28 0.29 0.29 0.31 0.30 0.29 0.27 0.24 0.23 0.22 0.24 0.24 0.23 0.22 0.22 0.21 0.19 0.20 0.19 0.19 0.18 0.18 0.18 0.18 0.18 0.20
0.60 0.60 0.54 0.50 0.45 0.40 0.36 0.34 0.32 0.30 0.28 0.26 0.27 0.27 0.25 0.26 0.26 0.26 0.28 0.33 0.32 0.31 0.29 0.27 0.26 0.26 0.23 0.23 0.23 0.23 0.22 0.21 0.20 0.18 0.18 0.18 0.18 0.17 0.17 0.16 0.16 0.18 0.18

GFSMW_prec_pwat_009.txt.gz
Precipitable_Water
0.87 0.93 0.92 0.98 1.05 1.15 1.16 1.18 1.16 1.20 1.16 0.96 0.87 0.78 0.75 0.71 0.68 0.68 0.69 0.69 0.70 0.70 0.70 0.70 0.71 0.70 0.65 0.64 0.62 0.60 0.57 0.51 0.44 0.41 0.44 0.42 0.40 0.37 0.35 0.41 0.50 0.51 0.46
0.79 0.87 0.96 1.01 1.08 1.15 1.19 1.19 1.21 1.12 0.95 0.87 0.84 0.84 0.78 0.72 0.67 0.70 0.73 0.73 0.73 0.72 0.70 0.70 0.67 0.65 0.60 0.55 0.56 0.56 0.52 0.45 0.40 0.36 0.38 0.30 0.29 0.30 0.34 0.34 0.34 0.34 0.40
0.77 0.86 0.94 1.04 1.11 1.13 1.14 1.15 1.03 0.93 0.84 0.84 0.78 0.70 0.69 0.71 0.71 0.71 0.70 0.74 0.75 0.73 0.67 0.62 0.59 0.57 0.55 0.48 0.46 0.47 0.49 0.40 0.38 0.36 0.33 0.27 0.25 0.29 0.31 0.30 0.30 0.31 0.33
0.82 0.90 0.95 0.99 1.07 1.13 1.11 0.99 0.91 0.83 0.79 0.72 0.71 0.71 0.69 0.67 0.71 0.70 0.71 0.70 0.68 0.60 0.53 0.48 0.47 0.49 0.49 0.45 0.44 0.47 0.49 0.42 0.35 0.37 0.37 0.35 0.33 0.26 0.22 0.26 0.26 0.29 0.29
0.81 0.89 0.99 1.04 1.04 1.02 0.97 0.91 0.82 0.73 0.72 0.72 0.73 0.70 0.68 0.70 0.70 0.64 0.58 0.52 0.43 0.37 0.33 0.32 0.33 0.36 0.42 0.46 0.47 0.50 0.47 0.43 0.39 0.37 0.34 0.31 0.31 0.29 0.24 0.21 0.23 0.26 0.27
0.85 0.92 0.93 0.93 0.88 0.88 0.85 0.79 0.72 0.70 0.72 0.73 0.74 0.72 0.67 0.60 0.60 0.55 0.50 0.43 0.37 0.34 0.33 0.34 0.35 0.35 0.38 0.47 0.49 0.50 0.45 0.46 0.44 0.41 0.35 0.28 0.25 0.23 0.24 0.22 0.22 0.23 0.24
0.75 0.73 0.73 0.68 0.72 0.74 0.74 0.72 0.69 0.68 0.72 0.72 0.68 0.61 0.59 0.62 0.57 0.52 0.42 0.37 0.35 0.33 0.33 0.36 0.39 0.40 0.43 0.48 0.46 0.43 0.46 0.50 0.45 0.39 0.32 0.29 0.29 0.29 0.28 0.26 0.23 0.22 0.22
0.65 0.64 0.62 0.62 0.68 0.72 0.72 0.69 0.68 0.68 0.69 0.64 0.60 0.61 0.63 0.67 0.59 0.46 0.42 0.36 0.33 0.32 0.35 0.39 0.43 0.45 0.47 0.44 0.46 0.51 0.50 0.49 0.42 0.35 0.33 0.33 0.30 0.31 0.30 0.27 0.23 0.19 0.20
0.58 0.56 0.59 0.63 0.68 0.72 0.71 0.70 0.68 0.66 0.62 0.62 0.66 0.69 0.65 0.62 0.52 0.47 0.40 0.35 0.33 0.33 0.35 0.40 0.44 0.48 0.46 0.50 0.51 0.43 0.39 0.38 0.35 0.32 0.33 0.31 0.30 0.28 0.27 0.26 0.25 0.23 0.19
0.55 0.57 0.59 0.65 0.70 0.73 0.73 0.72 0.67 0.60 0.63 0.69 0.67 0.63 0.62 0.56 0.50 0.42 0.37 0.35 0.35 0.36 0.36 0.35 0.37 0.42 0.45 0.45 0.40 0.38 0.38 0.38 0.34 0.29 0.31 0.31 0.31 0.30 0.27 0.27 0.28 0.25 0.22
0.54 0.58 0.62 0.67 0.69 0.72 0.72 0.68 0.62 0.61 0.65 0.67 0.63 0.61 0.58 0.53 0.45 0.41 0.38 0.36 0.36 0.37 0.34 0.33 0.34 0.35 0.37 0.38 0.38 0.37 0.36 0.33 0.32 0.32 0.34 0.32 0.31 0.30 0.29 0.28 0.26 0.24 0.23
0.55 0.59 0.64 0.64 0.65 0.68 0.68 0.64 0.62 0.64 0.65 0.64 0.63 0.57 0.53 0.47 0.42 0.40 0.39 0.38 0.38 0.36 0.34 0.35 0.36 0.36 0.36 0.34 0.31 0.31 0.31 0.30 0.32 0.33 0.31 0.30 0.30 0.29 0.26 0.25 0.24 0.23 0.23
0.55 0.60 0.62 0.62 0.63 0.66 0.63 0.62 0.64 0.63 0.63 0.62 0.58 0.52 0.50 0.45 0.43 0.41 0.41 0.40 0.36 0.34 0.35 0.36 0.36 0.35 0.37 0.36 0.35 0.31 0.32 0.35 0.35 0.33 0.32 0.31 0.28 0.23 0.22 0.23 0.22 0.21 0.21
0.55 0.59 0.61 0.62 0.66 0.65 0.62 0.62 0.64 0.63 0.60 0.56 0.52 0.48 0.47 0.46 0.43 0.43 0.42 0.38 0.35 0.33 0.35 0.36 0.35 0.33 0.34 0.30 0.30 0.31 0.32 0.32 0.34 0.35 0.30 0.25 0.21 0.20 0.20 0.19 0.19 0.20 0.20
0.50 0.56 0.59 0.61 0.66 0.64 0.62 0.63 0.63 0.61 0.56 0.55 0.48 0.46 0.47 0.47 0.44 0.43 0.41 0.37 0.34 0.33 0.35 0.35 0.36 0.39 0.37 0.33 0.29 0.31 0.32 0.30 0.28 0.26 0.23 0.21 0.20 0.19 0.19 0.18 0.19 0.20 0.20
0.47 0.54 0.57 0.59 0.60 0.59 0.59 0.60 0.60 0.57 0.57 0.52 0.49 0.48 0.48 0.46 0.42 0.40 0.39 0.35 0.33 0.32 0.34 0.34 0.34 0.37 0.37 0.34 0.32 0.24 0.24 0.23 0.23 0.22 0.21 0.20 0.20 0.20 0.20 0.21 0.22 0.21 0.19
0.46 0.49 0.52 0.55 0.56 0.56 0.56 0.57 0.57 0.55 0.54 0.52 0.47 0.47 0.49 0.44 0.40 0.38 0.34 0.32 0.32 0.34 0.34 0.32 0.31 0.35 0.35 0.35 0.26 0.23 0.23 0.24 0.23 0.21 0.20 0.19 0.20 0.21 0.21 0.21 0.19 0.20 0.21
0.46 0.49 0.52 0.53 0.55 0.57 0.55 0.59 0.56 0.52 0.55 0.46 0.50 0.51 0.48 0.40 0.37 0.33 0.31 0.31 0.34 0.34 0.32 0.31 0.32 0.32 0.33 0.31 0.26 0.24 0.25 0.25 0.23 0.21 0.20 0.20 0.20 0.20 0.20 0.17 0.18 0.20 0.21
0.48 0.51 0.54 0.57 0.61 0.58 0.57 0.59 0.54 0.53 0.47 0.56 0.48 0.48 0.40 0.34 0.31 0.29 0.29 0.32 0.33 0.33 0.32 0.32 0.30 0.29 0.31 0.29 0.26 0.24 0.24 0.23 0.22 0.22 0.22 0.19 0.17 0.19 0.17 0.18 0.19 0.19 0.20
0.53 0.56 0.60 0.63 0.63 0.59 0.58 0.56 0.52 0.56 0.56 0.48 0.47 0.44 0.37 0.32 0.28 0.29 0.28 0.29 0.32 0.33 0.33 0.32 0.30 0.29 0.29 0.28 0.26 0.23 0.23 0.21 0.21 0.22 0.21 0.19 0.18 0.18 0.16 0.16 0.17 0.18 0.20
0.59 0.64 0.66 0.66 0.64 0.60 0.56 0.53 0.58 0.51 0.50 0.48 0.48 0.41 0.33 0.31 0.31 0.28 0.29 0.29 0.30 0.32 0.34 0.33 0.31 0.30 0.29 0.29 0.25 0.23 0.22 0.21 0.20 0.19 0.19 0.21 0.20 0.17 0.16 0.17 0.17 0.19 0.19
0.64 0.67 0.67 0.63 0.58 0.55 0.54 0.56 0.56 0.54 0.50 0.50 0.43 0.35 0.33 0.32 0.30 0.30 0.30 0.31 0.32 0.32 0.32 0.32 0.32 0.32 0.30 0.28 0.25 0.22 0.21 0.20 0.19 0.19 0.20 0.20 0.19 0.17 0.17 0.18 0.18 0.18 0.21
0.60 0.59 0.55 0.55 0.57 0.60 0.61 0.59 0.53 0.56 0.51 0.41 0.35 0.33 0.33 0.32 0.31 0.29 0.29 0.29 0.31 0.30 0.30 0.31 0.30 0.30 0.31 0.33 0.28 0.24 0.22 0.21 0.21 0.20 0.20 0.19 0.19 0.18 0.19 0.19 0.19 0.19 0.21
0.49 0.49 0.51 0.53 0.57 0.63 0.66 0.62 0.52 0.47 0.42 0.35 0.33 0.32 0.31 0.30 0.28 0.28 0.29 0.29 0.29 0.30 0.30 0.30 0.28 0.28 0.26 0.26 0.29 0.26 0.24 0.24 0.23 0.22 0.22 0.20 0.20 0.20 0.20 0.21 0.20 0.20 0.20
0.51 0.54 0.60 0.61 0.60 0.58 0.52 0.51 0.47 0.41 0.35 0.33 0.32 0.32 0.30 0.29 0.29 0.28 0.28 0.30 0.31 0.30 0.31 0.30 0.30 0.27 0.24 0.25 0.24 0.26 0.25 0.25 0.24 0.20 0.19 0.19 0.20 0.18 0.19 0.19 0.19 0.19 0.19
0.60 0.60 0.60 0.58 0.55 0.51 0.48 0.46 0.42 0.38 0.34 0.31 0.31 0.31 0.30 0.30 0.29 0.27 0.27 0.31 0.31 0.31 0.31 0.31 0.31 0.30 0.28 0.26 0.23 0.22 0.22 0.22 0.22 0.19 0.18 0.18 0.20 0.19 0.18 0.18 0.18 0.18 0.18

GFSMW_prec_pwat_015.txt.gz
Precipitable_Water
0.66 0.76 0.81 0.90 0.95 1.02 1.06 1.05 1.03 1.02 1.04 1.02 0.93 0.80 0.72 0.67 0.65 0.65 0.64 0.66 0.68 0.70 0.68 0.69 0.69 0.65 0.55 0.52 0.49 0.44 0.41 0.40 0.43 0.37 0.36 0.35 0.34 0.32 0.33 0.34 0.31 0.31 0.33
0.67 0.70 0.79 0.85 0.90 0.95 1.04 1.06 1.06 1.06 1.07 1.07 0.95 0.80 0.71 0.71 0.66 0.66 0.68 0.70 0.71 0.70 0.68 0.66 0.62 0.53 0.47 0.43 0.43 0.42 0.38 0.39 0.42 0.35 0.33 0.26 0.27 0.30 0.32 0.32 0.30 0.29 0.29
0.68 0.71 0.75 0.84 0.91 0.94 1.02 1.09 1.11 1.06 1.13 1.13 0.94 0.85 0.79 0.74 0.66 0.66 0.69 0.70 0.67 0.63 0.58 0.56 0.46 0.37 0.35 0.36 0.39 0.41 0.39 0.37 0.41 0.40 0.33 0.26 0.23 0.26 0.30 0.29 0.28 0.27 0.27
0.74 0.73 0.80 0.87 0.92 1.00 1.11 1.14 1.12 1.10 1.10 1.00 0.89 0.80 0.73 0.65 0.65 0.65 0.61 0.60 0.58 0.55 0.53 0.48 0.41 0.36 0.34 0.31 0.32 0.39 0.41 0.40 0.35 0.39 0.39 0.36 0.33 0.24 0.21 0.27 0.28 0.29 0.27
0.73 0.75 0.82 0.92 1.02 1.10 1.15 1.19 1.12 1.01 0.97 0.89 0.81 0.76 0.71 0.65 0.61 0.62 0.60 0.54 0.56 0.53 0.51 0.50 0.43 0.38 0.38 0.40 0.41 0.44 0.44 0.44 0.41 0.39 0.38 0.37 0.33 0.29 0.25 0.21 0.23 0.25 0.25
0.77 0.83 0.90 0.98 1.00 1.10 1.12 1.09 1.01 0.96 0.92 0.81 0.76 0.70 0.64 0.61 0.61 0.59 0.56 0.57 0.57 0.54 0.50 0.43 0.41 0.38 0.41 0.44 0.46 0.47 0.45 0.43 0.42 0.40 0.37 0.32 0.28 0.27 0.25 0.22 0.21 0.19 0.21
0.78 0.81 0.85 0.94 0.95 0.97 1.01 0.97 0.95 0.91 0.84 0.78 0.72 0.67 0.64 0.62 0.58 0.58 0.59 0.59 0.57 0.49 0.41 0.41 0.39 0.38 0.44 0.46 0.46 0.42 0.38 0.39 0.38 0.37 0.35 0.35 0.34 0.33 0.29 0.25 0.20 0.19 0.20
0.78 0.81 0.87 0.90 0.95 0.94 0.92 0.88 0.87 0.79 0.80 0.73 0.67 0.66 0.63 0.60 0.61 0.62 0.62 0.59 0.51 0.46 0.43 0.43 0.39 0.39 0.46 0.49 0.46 0.41 0.38 0.39 0.40 0.38 0.35 0.36 0.37 0.34 0.31 0.27 0.23 0.20 0.20
0.77 0.83 0.94 0.93 0.91 0.89 0.87 0.83 0.77 0.77 0.76 0.70 0.66 0.63 0.61 0.63 0.64 0.65 0.61 0.54 0.51 0.52 0.44 0.40 0.37 0.37 0.41 0.47 0.46 0.43 0.41 0.41 0.39 0.39 0.42 0.38 0.37 0.36 0.34 0.32 0.29 0.25 0.18
0.71 0.78 0.82 0.84 0.86 0.89 0.90 0.86 0.80 0.75 0.70 0.66 0.65 0.64 0.65 0.65 0.65 0.64 0.59 0.61 0.60 0.49 0.43 0.44 0.41 0.39 0.37 0.39 0.43 0.42 0.42 0.39 0.40 0.42 0.41 0.40 0.42 0.39 0.36 0.32 0.29 0.28 0.23
0.65 0.66 0.68 0.74 0.77 0.80 0.79 0.72 0.68 0.67 0.66 0.67 0.67 0.66 0.66 0.68 0.69 0.64 0.67 0.60 0.55 0.51 0.45 0.42 0.42 0.40 0.40 0.41 0.37 0.37 0.37 0.37 0.37 0.37 0.37 0.36 0.36 0.34 0.33 0.31 0.28 0.26 0.23
0.61 0.62 0.62 0.63 0.63 0.63 0.63 0.64 0.67 0.68 0.69 0.68 0.67 0.67 0.69 0.71 0.67 0.64 0.64 0.61 0.53 0.47 0.44 0.44 0.43 0.40 0.42 0.40 0.38 0.37 0.38 0.36 0.35 0.36 0.36 0.35 0.35 0.31 0.29 0.26 0.23 0.18 0.17
0.62 0.62 0.61 0.60 0.59 0.60 0.63 0.67 0.68 0.69 0.71 0.72 0.69 0.69 0.68 0.66 0.63 0.64 0.62 0.56 0.52 0.49 0.51 0.47 0.40 0.41 0.41 0.40 0.38 0.39 0.38 0.36 0.35 0.35 0.34 0.31 0.28 0.25 0.22 0.19 0.17 0.17 0.16
0.59 0.62 0.63 0.63 0.66 0.69 0.71 0.75 0.76 0.75 0.73 0.70 0.66 0.64 0.65 0.63 0.64 0.62 0.60 0.55 0.55 0.52 0.45 0.42 0.41 0.43 0.45 0.43 0.42 0.40 0.37 0.35 0.33 0.32 0.29 0.25 0.23 0.20 0.19 0.18 0.17 0.17 0.16
0.50 0.58 0.61 0.67 0.72 0.75 0.79 0.82 0.82 0.78 0.73 0.68 0.62 0.61 0.60 0.61 0.60 0.58 0.57 0.59 0.54 0.48 0.47 0.45 0.45 0.44 0.46 0.43 0.39 0.36 0.34 0.32 0.32 0.25 0.22 0.24 0.23 0.21 0.20 0.17 0.18 0.18 0.17
0.37 0.37 0.52 0.66 0.69 0.73 0.76 0.79 0.76 0.72 0.70 0.64 0.60 0.59 0.57 0.57 0.56 0.59 0.60 0.56 0.52 0.46 0.48 0.46 0.45 0.43 0.44 0.42 0.39 0.37 0.33 0.30 0.26 0.25 0.25 0.25 0.21 0.20 0.20 0.21 0.21 0.20 0.16
0.39 0.40 0.45 0.55 0.63 0.67 0.70 0.68 0.67 0.68 0.66 0.65 0.61 0.57 0.56 0.56 0.59 0.63 0.61 0.52 0.49 0.48 0.45 0.43 0.41 0.41 0.41 0.39 0.38 0.36 0.34 0.30 0.27 0.28 0.25 0.23 0.22 0.20 0.20 0.20 0.18 0.16 0.14
0.45 0.48 0.49 0.51 0.59 0.64 0.66 0.68 0.70 0.69 0.66 0.62 0.58 0.58 0.59 0.59 0.61 0.62 0.54 0.49 0.46 0.44 0.40 0.38 0.39 0.39 0.38 0.37 0.37 0.36 0.32 0.29 0.29 0.27 0.25 0.22 0.20 0.20 0.20 0.18 0.16 0.15 0.14
0.47 0.48 0.49 0.50 0.55 0.62 0.68 0.70 0.68 0.65 0.60 0.58 0.58 0.58 0.60 0.59 0.62 0.55 0.49 0.47 0.42 0.39 0.36 0.36 0.37 0.34 0.34 0.36 0.36 0.34 0.31 0.28 0.28 0.27 0.25 0.21 0.20 0.21 0.20 0.18 0.17 0.14 0.15
0.49 0.49 0.53 0.58 0.62 0.65 0.68 0.65 0.62 0.61 0.59 0.58 0.59 0.60 0.60 0.62 0.56 0.51 0.46 0.42 0.40 0.36 0.35 0.32 0.30 0.30 0.31 0.34 0.33 0.32 0.29 0.27 0.24 0.23 0.21 0.20 0.20 0.20 0.20 0.19 0.16 0.13 0.15
0.51 0.57 0.58 0.57 0.59 0.63 0.64 0.63 0.62 0.62 0.63 0.63 0.64 0.65 0.65 0.60 0.54 0.48 0.43 0.40 0.37 0.32 0.27 0.28 0.29 0.29 0.31 0.33 0.32 0.29 0.27 0.24 0.23 0.21 0.19 0.20 0.21 0.20 0.20 0.19 0.17 0.16 0.18
0.56 0.57 0.57 0.59 0.63 0.66 0.65 0.64 0.63 0.67 0.67 0.67 0.66 0.63 0.60 0.54 0.49 0.43 0.40 0.36 0.29 0.26 0.26 0.27 0.28 0.30 0.31 0.31 0.30 0.29 0.28 0.26 0.22 0.21 0.20 0.21 0.22 0.20 0.19 0.19 0.19 0.20 0.20
0.54 0.59 0.60 0.60 0.63 0.65 0.64 0.61 0.63 0.64 0.65 0.63 0.61 0.58 0.53 0.48 0.42 0.36 0.31 0.27 0.27 0.26 0.26 0.26 0.27 0.28 0.30 0.30 0.30 0.30 0.29 0.27 0.24 0.23 0.22 0.22 0.21 0.20 0.19 0.20 0.20 0.20 0.19
0.57 0.59 0.57 0.56 0.56 0.58 0.58 0.58 0.59 0.60 0.60 0.55 0.50 0.46 0.39 0.35 0.34 0.31 0.29 0.27 0.26 0.25 0.25 0.27 0.27 0.27 0.29 0.30 0.31 0.31 0.31 0.29 0.27 0.24 0.23 0.23 0.23 0.20 0.19 0.20 0.19 0.19 0.19
0.55 0.55 0.55 0.55 0.55 0.55 0.54 0.54 0.52 0.49 0.43 0.39 0.35 0.33 0.32 0.29 0.26 0.26 0.27 0.27 0.29 0.29 0.26 0.25 0.28 0.28 0.28 0.31 0.32 0.32 0.31 0.30 0.29 0.26 0.23 0.23 0.21 0.17 0.17 0.19 0.18 0.18 0.19
0.60 0.58 0.54 0.52 0.50 0.48 0.45 0.41 0.38 0.36 0.34 0.30 0.28 0.25 0.24 0.24 0.25 0.24 0.25 0.31 0.32 0.32 0.32 0.31 0.30 0.30 0.33 0.34 0.34 0.35 0.35 0.33 0.32 0.28 0.22 0.20 0.18 0.18 0.16 0.17 0.17 0.17 0.18

GFSMW_prec_pwat_021.txt.gz
Precipitable_Water
0.79 0.88 0.92 0.96 0.95 0.87 0.90 0.93 0.95 1.00 1.03 1.03 1.00 0.96 0.89 0.88 0.81 0.77 0.72 0.65 0.62 0.61 0.61 0.61 0.64 0.62 0.56 0.52 0.51 0.48 0.44 0.41 0.41 0.35 0.37 0.39 0.39 0.38 0.36 0.34 0.32 0.30 0.29
0.73 0.80 0.87 0.91 0.91 0.92 0.90 0.92 0.97 1.02 1.06 1.05 1.01 0.98 0.91 0.88 0.79 0.75 0.69 0.64 0.62 0.62 0.63 0.61 0.58 0.57 0.56 0.52 0.47 0.43 0.41 0.43 0.44 0.36 0.35 0.31 0.35 0.38 0.37 0.35 0.35 0.33 0.31
0.65 0.72 0.79 0.85 0.91 0.92 0.93 0.87 0.95 1.01 1.07 1.06 1.02 0.97 0.94 0.87 0.75 0.69 0.66 0.64 0.64 0.63 0.62 0.59 0.58 0.56 0.54 0.49 0.45 0.47 0.44 0.41 0.42 0.43 0.39 0.32 0.30 0.35 0.39 0.35 0.34 0.34 0.34
0.69 0.76 0.80 0.81 0.84 0.93 1.01 0.98 0.99 1.05 1.11 1.08 1.00 0.92 0.88 0.86 0.69 0.68 0.64 0.61 0.63 0.64 0.62 0.60 0.58 0.57 0.57 0.53 0.49 0.49 0.52 0.47 0.44 0.47 0.47 0.45 0.42 0.35 0.31 0.36 0.36 0.36 0.32
0.72 0.73 0.79 0.88 0.94 0.98 1.02 1.04 1.08 1.15 1.16 1.08 1.02 0.93 0.90 0.94 0.78 0.73 0.65 0.64 0.64 0.64 0.62 0.61 0.59 0.55 0.55 0.55 0.58 0.59 0.55 0.51 0.45 0.43 0.40 0.39 0.39 0.38 0.32 0.28 0.30 0.33 0.34
0.74 0.76 0.88 0.96 0.98 1.03 1.06 1.13 1.17 1.17 1.18 1.07 1.02 0.95 0.94 0.90 0.86 0.76 0.71 0.68 0.67 0.65 0.63 0.62 0.58 0.59 0.61 0.69 0.66 0.57 0.50 0.49 0.48 0.44 0.40 0.38 0.36 0.34 0.33 0.30 0.30 0.30 0.34
0.70 0.73 0.79 0.89 0.94 0.98 1.05 1.12 1.13 1.11 1.13 1.05 0.99 1.01 0.97 0.96 0.89 0.81 0.77 0.72 0.67 0.64 0.64 0.59 0.55 0.62 0.79 0.66 0.57 0.53 0.53 0.50 0.46 0.44 0.42 0.41 0.39 0.39 0.36 0.33 0.31 0.30 0.33
0.66 0.71 0.79 0.90 0.92 0.99 1.04 1.09 1.07 1.12 1.09 1.09 1.04 1.02 1.04 0.97 0.92 0.85 0.79 0.73 0.68 0.64 0.62 0.57 0.70 0.75 0.63 0.56 0.58 0.52 0.52 0.53 0.50 0.48 0.45 0.41 0.40 0.37 0.36 0.35 0.32 0.28 0.28
0.57 0.66 0.80 0.87 0.90 0.94 0.96 1.02 1.02 1.00 1.01 1.04 1.02 1.01 1.01 0.97 0.89 0.82 0.77 0.73 0.70 0.65 0.62 0.70 0.71 0.58 0.56 0.51 0.49 0.53 0.56 0.51 0.48 0.47 0.43 0.42 0.42 0.40 0.40 0.37 0.36 0.32 0.28
0.53 0.62 0.71 0.76 0.83 0.87 0.89 0.92 0.94 0.92 0.95 0.92 0.90 0.90 0.94 0.91 0.83 0.80 0.76 0.71 0.70 0.67 0.70 0.66 0.61 0.58 0.51 0.51 0.56 0.49 0.46 0.44 0.42 0.42 0.42 0.42 0.41 0.40 0.40 0.38 0.35 0.32 0.26
0.51 0.59 0.63 0.69 0.75 0.77 0.79 0.84 0.85 0.87 0.88 0.88 0.88 0.86 0.81 0.80 0.78 0.75 0.71 0.69 0.67 0.65 0.62 0.59 0.58 0.54 0.54 0.51 0.47 0.47 0.46 0.44 0.45 0.43 0.41 0.40 0.40 0.38 0.37 0.35 0.30 0.25 0.22
0.51 0.55 0.63 0.72 0.74 0.74 0.79 0.79 0.82 0.83 0.85 0.86 0.85 0.86 0.89 0.83 0.79 0.75 0.75 0.73 0.65 0.62 0.60 0.57 0.57 0.56 0.50 0.54 0.50 0.46 0.45 0.42 0.38 0.36 0.36 0.35 0.36 0.33 0.33 0.28 0.23 0.22 0.21
0.50 0.59 0.64 0.69 0.76 0.79 0.81 0.81 0.85 0.89 0.93 0.94 0.93 0.91 0.85 0.81 0.77 0.77 0.74 0.66 0.62 0.63 0.60 0.60 0.57 0.56 0.56 0.49 0.48 0.46 0.42 0.40 0.39 0.38 0.35 0.33 0.31 0.29 0.25 0.23 0.22 0.21 0.18
0.51 0.58 0.64 0.72 0.86 0.86 0.85 0.89 0.88 0.90 0.90 0.93 0.92 0.90 0.83 0.77 0.77 0.72 0.67 0.65 0.63 0.62 0.61 0.60 0.59 0.59 0.51 0.49 0.44 0.43 0.41 0.40 0.39 0.38 0.36 0.34 0.32 0.27 0.24 0.23 0.22 0.19 0.17
0.48 0.57 0.66 0.74 0.79 0.82 0.79 0.77 0.79 0.80 0.87 0.86 0.87 0.83 0.78 0.75 0.72 0.69 0.66 0.63 0.63 0.62 0.60 0.57 0.62 0.55 0.50 0.47 0.43 0.42 0.42 0.40 0.36 0.34 0.32 0.33 0.32 0.30 0.25 0.24 0.22 0.19 0.17
0.46 0.52 0.57 0.62 0.62 0.60 0.62 0.68 0.73 0.76 0.79 0.78 0.75 0.74 0.72 0.72 0.70 0.66 0.63 0.62 0.61 0.59 0.59 0.65 0.62 0.53 0.49 0.45 0.43 0.41 0.38 0.36 0.34 0.31 0.32 0.32 0.29 0.28 0.27 0.26 0.23 0.20 0.18
0.47 0.48 0.50 0.50 0.51 0.53 0.55 0.55 0.59 0.66 0.70 0.69 0.69 0.71 0.73 0.70 0.67 0.64 0.62 0.60 0.60 0.65 0.65 0.62 0.57 0.49 0.43 0.40 0.37 0.36 0.34 0.33 0.32 0.31 0.33 0.31 0.29 0.27 0.26 0.23 0.20 0.20 0.20
0.45 0.46 0.48 0.50 0.52 0.54 0.53 0.56 0.59 0.63 0.66 0.69 0.70 0.71 0.72 0.70 0.67 0.65 0.63 0.64 0.68 0.67 0.60 0.58 0.50 0.43 0.38 0.36 0.33 0.31 0.31 0.31 0.31 0.32 0.31 0.28 0.26 0.26 0.22 0.19 0.18 0.19 0.18
0.47 0.48 0.49 0.49 0.50 0.50 0.55 0.59 0.62 0.64 0.64 0.65 0.67 0.70 0.70 0.66 0.64 0.66 0.71 0.68 0.67 0.63 0.57 0.50 0.45 0.39 0.34 0.30 0.28 0.27 0.28 0.29 0.29 0.29 0.31 0.27 0.25 0.23 0.21 0.19 0.18 0.17 0.18
0.48 0.47 0.49 0.50 0.50 0.51 0.55 0.56 0.57 0.60 0.61 0.65 0.67 0.70 0.68 0.71 0.67 0.66 0.65 0.64 0.61 0.55 0.51 0.45 0.38 0.32 0.25 0.27 0.25 0.27 0.27 0.27 0.27 0.29 0.27 0.27 0.24 0.22 0.21 0.19 0.18 0.16 0.15
0.48 0.50 0.50 0.50 0.52 0.53 0.53 0.52 0.56 0.59 0.65 0.68 0.68 0.68 0.69 0.69 0.68 0.65 0.64 0.61 0.55 0.49 0.41 0.34 0.29 0.28 0.27 0.24 0.27 0.28 0.27 0.27 0.27 0.26 0.25 0.25 0.24 0.23 0.22 0.20 0.19 0.17 0.17
0.48 0.50 0.50 0.50 0.52 0.53 0.54 0.54 0.56 0.61 0.63 0.63 0.64 0.67 0.68 0.66 0.63 0.60 0.56 0.50 0.43 0.34 0.30 0.28 0.25 0.23 0.23 0.26 0.27 0.29 0.30 0.30 0.27 0.26 0.27 0.27 0.27 0.26 0.24 0.21 0.21 0.20 0.19
0.50 0.52 0.51 0.50 0.53 0.56 0.56 0.54 0.56 0.59 0.60 0.60 0.60 0.59 0.59 0.56 0.50 0.43 0.38 0.33 0.31 0.28 0.26 0.23 0.21 0.21 0.24 0.25 0.29 0.31 0.31 0.32 0.30 0.30 0.30 0.31 0.30 0.29 0.28 0.24 0.22 0.21 0.18
0.50 0.52 0.51 0.51 0.53 0.57 0.57 0.55 0.54 0.53 0.50 0.46 0.43 0.39 0.36 0.34 0.33 0.31 0.30 0.28 0.25 0.23 0.23 0.22 0.21 0.22 0.25 0.27 0.29 0.30 0.32 0.32 0.33 0.33 0.33 0.33 0.32 0.30 0.30 0.28 0.24 0.22 0.19
0.55 0.56 0.56 0.56 0.54 0.52 0.49 0.48 0.46 0.44 0.39 0.37 0.35 0.33 0.32 0.30 0.28 0.27 0.26 0.25 0.26 0.26 0.24 0.25 0.26 0.26 0.25 0.28 0.32 0.32 0.31 0.31 0.32 0.32 0.33 0.32 0.31 0.29 0.29 0.30 0.26 0.23 0.20
0.58 0.56 0.55 0.50 0.46 0.45 0.45 0.45 0.43 0.40 0.35 0.30 0.29 0.27 0.27 0.26 0.26 0.26 0.25 0.29 0.29 0.30 0.32 0.32 0.33 0.32 0.33 0.33 0.34 0.34 0.34 0.35 0.35 0.32 0.29 0.29 0.30 0.30 0.30 0.29 0.27 0.23 0.20

GFSMW_prec_pwat_024.txt.gz
Precipitable_Water
0.78 0.85 0.87 0.87 0.87 0.91 0.91 0.93 0.96 0.99 1.04 1.01 1.01 1.09 1.09 1.14 1.05 0.98 0.95 0.91 0.82 0.72 0.64 0.63 0.63 0.63 0.59 0.57 0.56 0.52 0.48 0.48 0.50 0.44 0.44 0.44 0.44 0.44 0.42 0.41 0.39 0.37 0.37
0.74 0.78 0.83 0.87 0.87 0.80 0.85 0.89 0.95 0.97 1.04 1.05 1.05 1.10 1.08 1.02 0.98 0.93 0.85 0.83 0.73 0.67 0.65 0.63 0.61 0.60 0.56 0.54 0.53 0.54 0.53 0.54 0.56 0.52 0.47 0.39 0.41 0.44 0.43 0.42 0.42 0.41 0.40
0.70 0.72 0.78 0.81 0.86 0.82 0.82 0.84 0.91 0.99 1.03 1.04 1.04 1.03 1.02 0.98 0.93 0.88 0.77 0.73 0.68 0.67 0.65 0.62 0.59 0.56 0.53 0.51 0.53 0.57 0.59 0.58 0.56 0.56 0.47 0.38 0.35 0.40 0.45 0.42 0.41 0.40 0.40
0.73 0.75 0.77 0.82 0.88 0.92 0.93 0.96 0.96 0.99 1.04 1.07 1.02 0.97 0.92 0.87 0.90 0.91 0.79 0.72 0.70 0.66 0.64 0.64 0.61 0.60 0.59 0.57 0.59 0.65 0.71 0.65 0.56 0.52 0.48 0.46 0.44 0.37 0.34 0.39 0.38 0.39 0.36
0.76 0.75 0.79 0.84 0.91 1.00 0.98 1.02 1.05 1.06 1.08 1.08 1.07 1.02 0.94 0.95 0.94 0.93 0.83 0.73 0.71 0.69 0.69 0.66 0.62 0.62 0.61 0.61 0.69 0.76 0.75 0.66 0.50 0.47 0.44 0.46 0.43 0.40 0.35 0.30 0.32 0.35 0.35
0.76 0.82 0.91 0.96 0.97 1.05 1.03 1.06 1.11 1.09 1.11 1.15 1.15 1.03 0.95 0.93 0.91 0.89 0.87 0.79 0.77 0.76 0.74 0.72 0.69 0.67 0.66 0.73 0.74 0.73 0.61 0.55 0.51 0.45 0.45 0.46 0.38 0.37 0.34 0.31 0.31 0.31 0.33
0.68 0.74 0.79 0.86 0.94 0.98 1.01 1.05 1.11 1.10 1.09 1.21 1.17 1.10 0.98 0.94 0.95 0.91 0.92 0.85 0.81 0.78 0.75 0.72 0.68 0.69 0.75 0.72 0.73 0.66 0.62 0.52 0.45 0.52 0.49 0.43 0.40 0.39 0.35 0.32 0.31 0.31 0.32
0.63 0.67 0.71 0.79 0.89 0.98 1.02 1.04 1.06 1.07 1.09 1.22 1.23 1.13 1.07 1.03 0.97 0.99 0.95 0.93 0.83 0.78 0.75 0.72 0.74 0.73 0.72 0.70 0.69 0.62 0.52 0.57 0.58 0.49 0.46 0.44 0.42 0.41 0.40 0.35 0.31 0.26 0.27
0.53 0.60 0.64 0.75 0.89 0.95 1.01 1.02 1.00 1.00 1.01 1.08 1.07 1.04 1.04 1.02 1.00 1.03 0.99 0.90 0.81 0.75 0.79 0.71 0.71 0.70 0.66 0.71 0.56 0.55 0.58 0.58 0.51 0.47 0.47 0.45 0.43 0.42 0.38 0.36 0.34 0.30 0.24
0.48 0.53 0.60 0.66 0.76 0.85 0.94 0.93 0.93 0.89 0.93 1.01 1.05 1.05 1.04 1.07 1.03 0.96 0.87 0.84 0.79 0.79 0.73 0.70 0.65 0.61 0.63 0.55 0.57 0.56 0.56 0.50 0.48 0.46 0.43 0.39 0.38 0.37 0.37 0.36 0.34 0.31 0.26
0.49 0.50 0.57 0.63 0.64 0.70 0.75 0.73 0.77 0.83 0.91 1.03 1.11 1.05 1.04 1.04 1.00 0.99 0.91 0.85 0.81 0.78 0.71 0.65 0.60 0.60 0.56 0.56 0.53 0.58 0.50 0.47 0.44 0.42 0.37 0.34 0.35 0.34 0.34 0.32 0.29 0.25 0.23
0.49 0.54 0.56 0.57 0.60 0.66 0.73 0.75 0.82 0.90 1.00 1.02 1.02 1.03 1.04 1.03 0.99 0.94 0.90 0.84 0.80 0.71 0.65 0.63 0.59 0.57 0.56 0.57 0.61 0.49 0.48 0.46 0.41 0.39 0.37 0.35 0.35 0.33 0.32 0.30 0.27 0.24 0.23
0.41 0.47 0.53 0.57 0.63 0.74 0.83 0.90 1.00 0.98 0.97 1.01 0.99 0.98 0.98 0.97 0.95 0.90 0.87 0.80 0.72 0.66 0.63 0.61 0.58 0.60 0.60 0.63 0.53 0.52 0.49 0.44 0.41 0.40 0.38 0.35 0.33 0.30 0.30 0.29 0.26 0.23 0.23
0.42 0.47 0.53 0.60 0.69 0.80 0.88 0.95 0.96 0.93 0.88 0.88 0.86 0.86 0.89 0.89 0.87 0.86 0.81 0.71 0.66 0.64 0.63 0.63 0.62 0.62 0.66 0.62 0.55 0.51 0.46 0.42 0.41 0.40 0.37 0.34 0.32 0.30 0.29 0.26 0.24 0.23 0.22
0.44 0.49 0.55 0.64 0.73 0.82 0.84 0.85 0.84 0.81 0.80 0.80 0.81 0.81 0.85 0.86 0.84 0.78 0.71 0.68 0.66 0.63 0.65 0.62 0.61 0.69 0.71 0.61 0.55 0.49 0.44 0.40 0.38 0.38 0.34 0.34 0.33 0.32 0.30 0.26 0.25 0.23 0.20
0.45 0.49 0.52 0.55 0.58 0.63 0.65 0.66 0.62 0.62 0.66 0.66 0.70 0.77 0.80 0.77 0.75 0.73 0.69 0.67 0.65 0.63 0.63 0.63 0.71 0.68 0.66 0.59 0.53 0.46 0.42 0.40 0.35 0.31 0.32 0.32 0.31 0.33 0.30 0.28 0.26 0.23 0.19
0.47 0.47 0.49 0.51 0.52 0.52 0.53 0.53 0.56 0.57 0.55 0.58 0.64 0.70 0.72 0.73 0.74 0.71 0.69 0.66 0.64 0.66 0.68 0.68 0.70 0.65 0.60 0.53 0.46 0.40 0.38 0.34 0.29 0.29 0.30 0.30 0.32 0.31 0.27 0.27 0.25 0.22 0.20
0.48 0.47 0.49 0.50 0.51 0.53 0.53 0.53 0.54 0.55 0.58 0.61 0.64 0.66 0.67 0.69 0.70 0.69 0.67 0.67 0.68 0.71 0.69 0.65 0.65 0.60 0.56 0.49 0.41 0.38 0.33 0.28 0.28 0.28 0.30 0.30 0.31 0.31 0.26 0.24 0.21 0.20 0.19
0.49 0.49 0.49 0.48 0.49 0.48 0.50 0.50 0.52 0.55 0.58 0.59 0.61 0.65 0.68 0.70 0.69 0.70 0.70 0.70 0.67 0.70 0.66 0.62 0.58 0.56 0.50 0.42 0.35 0.30 0.27 0.24 0.24 0.28 0.30 0.31 0.31 0.30 0.27 0.22 0.19 0.18 0.18
0.48 0.47 0.49 0.50 0.50 0.51 0.52 0.50 0.49 0.52 0.54 0.58 0.63 0.68 0.71 0.71 0.69 0.69 0.70 0.68 0.65 0.62 0.60 0.59 0.56 0.48 0.36 0.32 0.30 0.27 0.25 0.22 0.24 0.27 0.30 0.31 0.31 0.29 0.26 0.23 0.21 0.18 0.17
0.48 0.49 0.49 0.48 0.50 0.53 0.53 0.50 0.51 0.53 0.59 0.63 0.66 0.66 0.67 0.65 0.65 0.64 0.64 0.62 0.60 0.58 0.52 0.44 0.39 0.35 0.31 0.28 0.25 0.26 0.26 0.25 0.25 0.27 0.28 0.30 0.31 0.29 0.27 0.26 0.25 0.20 0.20
0.44 0.47 0.47 0.49 0.51 0.52 0.52 0.52 0.54 0.59 0.60 0.60 0.58 0.59 0.61 0.62 0.61 0.58 0.56 0.51 0.43 0.38 0.34 0.30 0.26 0.26 0.26 0.27 0.26 0.26 0.28 0.29 0.28 0.28 0.31 0.32 0.32 0.31 0.30 0.29 0.29 0.26 0.23
0.47 0.49 0.49 0.49 0.52 0.55 0.56 0.54 0.57 0.60 0.58 0.56 0.54 0.51 0.49 0.46 0.43 0.39 0.35 0.31 0.29 0.26 0.24 0.23 0.22 0.21 0.24 0.26 0.28 0.29 0.29 0.31 0.31 0.31 0.31 0.32 0.33 0.33 0.31 0.31 0.30 0.30 0.28
0.49 0.51 0.51 0.51 0.52 0.55 0.55 0.54 0.52 0.50 0.47 0.45 0.42 0.41 0.39 0.36 0.33 0.31 0.28 0.26 0.24 0.24 0.23 0.23 0.23 0.24 0.25 0.26 0.29 0.31 0.32 0.33 0.32 0.33 0.32 0.32 0.33 0.33 0.33 0.32 0.32 0.31 0.31
0.53 0.54 0.54 0.54 0.53 0.53 0.51 0.50 0.48 0.46 0.42 0.39 0.36 0.33 0.30 0.28 0.27 0.27 0.27 0.27 0.28 0.29 0.28 0.28 0.29 0.28 0.26 0.28 0.32 0.33 0.33 0.33 0.34 0.35 0.33 0.31 0.30 0.30 0.31 0.32 0.32 0.31 0.31
0.56 0.56 0.56 0.54 0.52 0.50 0.48 0.46 0.44 0.40 0.34 0.31 0.29 0.27 0.25 0.25 0.24 0.22 0.20 0.22 0.21 0.22 0.23 0.25 0.26 0.26 0.29 0.29 0.30 0.33 0.34 0.35 0.36 0.34 0.30 0.29 0.29 0.28 0.29 0.30 0.30 0.31 0.31

GFSMW_prec_pwat_027.txt.gz
Precipitable_Water
0.75 0.80 0.78 0.79 0.83 0.89 0.92 0.94 0.96 0.98 0.98 0.93 0.91 0.98 0.99 1.07 1.16 1.16 1.12 1.02 0.96 0.89 0.80 0.71 0.64 0.66 0.65 0.62 0.60 0.55 0.53 0.55 0.62 0.61 0.59 0.59 0.55 0.50 0.46 0.47 0.46 0.45 0.45
0.72 0.79 0.80 0.80 0.80 0.81 0.88 0.94 0.95 0.98 1.01 1.02 1.03 1.08 1.09 1.15 1.21 1.16 1.08 1.00 0.93 0.85 0.78 0.69 0.68 0.68 0.64 0.61 0.60 0.58 0.56 0.61 0.67 0.64 0.62 0.52 0.52 0.51 0.48 0.46 0.47 0.47 0.46
0.69 0.74 0.78 0.78 0.78 0.76 0.81 0.86 0.92 0.98 1.00 1.05 1.06 1.05 1.12 1.18 1.10 1.05 1.02 0.97 0.91 0.85 0.79 0.75 0.73 0.67 0.62 0.56 0.56 0.58 0.63 0.65 0.72 0.72 0.61 0.46 0.40 0.41 0.46 0.48 0.48 0.46 0.43
0.72 0.75 0.78 0.79 0.83 0.84 0.90 0.90 0.92 0.98 1.07 1.07 1.06 1.00 0.97 0.97 1.00 1.00 1.00 0.98 0.89 0.80 0.74 0.71 0.68 0.64 0.60 0.57 0.59 0.69 0.74 0.73 0.66 0.66 0.59 0.51 0.46 0.38 0.38 0.47 0.43 0.40 0.39
0.75 0.73 0.77 0.84 0.93 0.96 0.98 0.98 0.97 0.98 1.06 1.08 1.08 1.04 1.01 1.04 1.04 1.03 0.95 0.92 0.93 0.83 0.73 0.71 0.68 0.66 0.67 0.69 0.73 0.77 0.80 0.73 0.69 0.56 0.50 0.47 0.45 0.46 0.40 0.31 0.33 0.35 0.35
0.75 0.80 0.90 0.96 0.94 1.03 1.05 1.09 1.06 1.07 1.10 1.07 1.09 1.09 1.06 1.03 0.96 0.94 0.91 0.91 0.90 0.91 0.80 0.78 0.76 0.75 0.71 0.76 0.80 0.79 0.70 0.70 0.63 0.50 0.48 0.48 0.45 0.40 0.35 0.31 0.30 0.29 0.33
0.72 0.74 0.78 0.85 0.93 0.96 1.04 1.09 1.10 1.06 1.16 1.15 1.06 1.12 1.12 1.10 1.07 1.02 0.94 0.94 0.91 0.95 0.90 0.87 0.83 0.77 0.76 0.83 0.78 0.69 0.70 0.63 0.50 0.54 0.55 0.51 0.44 0.40 0.36 0.34 0.32 0.29 0.31
0.61 0.67 0.72 0.81 0.88 0.95 1.03 1.08 1.07 1.08 1.11 1.13 1.15 1.17 1.14 1.14 1.12 1.09 1.05 1.01 0.98 0.98 0.95 0.91 0.82 0.74 0.79 0.83 0.79 0.73 0.69 0.55 0.59 0.58 0.51 0.46 0.44 0.44 0.42 0.36 0.30 0.27 0.27
0.52 0.55 0.66 0.75 0.81 0.88 0.96 1.06 1.10 1.12 1.09 1.04 1.04 1.03 1.07 1.10 1.10 1.07 1.03 1.02 1.04 1.00 0.92 0.85 0.77 0.76 0.92 0.76 0.72 0.66 0.60 0.61 0.62 0.54 0.49 0.46 0.47 0.45 0.42 0.38 0.32 0.27 0.20
0.50 0.49 0.55 0.61 0.73 0.84 0.98 1.09 1.12 1.04 0.98 0.99 1.03 1.06 1.13 1.17 1.15 1.10 1.05 1.01 1.00 0.96 0.91 0.81 0.73 0.88 0.72 0.65 0.66 0.61 0.61 0.64 0.57 0.51 0.48 0.45 0.43 0.40 0.37 0.34 0.32 0.30 0.25
0.47 0.51 0.53 0.60 0.67 0.73 0.82 0.88 0.96 0.84 0.86 0.93 1.03 1.11 1.12 1.13 1.11 1.07 1.06 1.05 1.02 0.99 0.90 0.77 0.83 0.67 0.61 0.67 0.59 0.61 0.65 0.57 0.53 0.50 0.46 0.40 0.40 0.37 0.35 0.34 0.32 0.29 0.27
0.48 0.56 0.57 0.60 0.57 0.55 0.61 0.64 0.73 0.81 0.89 1.07 1.13 1.09 1.09 1.09 1.06 1.06 1.09 1.07 1.05 0.97 0.84 0.77 0.65 0.61 0.65 0.61 0.63 0.62 0.60 0.54 0.52 0.47 0.45 0.42 0.40 0.36 0.34 0.32 0.30 0.29 0.27
0.46 0.52 0.55 0.58 0.62 0.67 0.72 0.79 0.86 0.94 1.04 1.06 1.02 0.98 0.96 0.95 0.97 0.98 1.02 1.03 0.96 0.85 0.77 0.66 0.60 0.64 0.62 0.62 0.63 0.67 0.60 0.55 0.49 0.47 0.44 0.39 0.39 0.35 0.32 0.31 0.30 0.29 0.27
0.43 0.48 0.54 0.61 0.68 0.74 0.79 0.88 0.90 0.93 0.94 0.94 0.92 0.88 0.87 0.89 0.89 0.91 0.91 0.88 0.84 0.75 0.69 0.60 0.59 0.60 0.64 0.69 0.70 0.69 0.60 0.53 0.51 0.49 0.43 0.39 0.38 0.33 0.33 0.31 0.30 0.29 0.25
0.46 0.50 0.55 0.61 0.67 0.72 0.77 0.84 0.84 0.83 0.82 0.78 0.74 0.71 0.76 0.80 0.82 0.81 0.79 0.77 0.73 0.71 0.64 0.62 0.64 0.63 0.74 0.74 0.70 0.65 0.57 0.52 0.49 0.46 0.42 0.39 0.36 0.35 0.34 0.31 0.31 0.27 0.24
0.47 0.50 0.53 0.56 0.57 0.58 0.62 0.67 0.67 0.64 0.63 0.60 0.60 0.62 0.64 0.68 0.73 0.76 0.72 0.71 0.69 0.65 0.62 0.61 0.66 0.69 0.71 0.70 0.70 0.62 0.54 0.48 0.43 0.38 0.39 0.35 0.34 0.35 0.35 0.31 0.32 0.27 0.25
0.48 0.49 0.52 0.54 0.56 0.57 0.59 0.57 0.57 0.57 0.56 0.55 0.55 0.59 0.64 0.66 0.68 0.71 0.71 0.70 0.69 0.63 0.64 0.65 0.73 0.69 0.69 0.68 0.63 0.59 0.52 0.45 0.38 0.35 0.32 0.30 0.30 0.32 0.33 0.34 0.31 0.28 0.26
0.50 0.51 0.53 0.54 0.55 0.56 0.55 0.54 0.54 0.53 0.52 0.54 0.58 0.62 0.63 0.65 0.67 0.69 0.69 0.69 0.67 0.68 0.71 0.69 0.70 0.66 0.64 0.62 0.60 0.56 0.46 0.38 0.33 0.30 0.27 0.27 0.29 0.31 0.32 0.32 0.30 0.28 0.25
0.50 0.51 0.53 0.53 0.53 0.52 0.52 0.50 0.48 0.49 0.50 0.52 0.54 0.58 0.62 0.65 0.67 0.67 0.67 0.70 0.69 0.67 0.66 0.65 0.63 0.60 0.60 0.61 0.51 0.40 0.33 0.29 0.26 0.25 0.25 0.26 0.29 0.31 0.34 0.31 0.29 0.26 0.23
0.51 0.51 0.53 0.52 0.50 0.50 0.50 0.47 0.47 0.49 0.50 0.55 0.59 0.63 0.65 0.64 0.64 0.64 0.62 0.64 0.62 0.60 0.60 0.59 0.60 0.58 0.51 0.43 0.36 0.31 0.29 0.26 0.24 0.25 0.26 0.28 0.30 0.32 0.34 0.32 0.29 0.24 0.23
0.50 0.51 0.50 0.48 0.48 0.49 0.50 0.48 0.50 0.51 0.56 0.59 0.59 0.59 0.59 0.58 0.58 0.59 0.60 0.58 0.57 0.55 0.51 0.45 0.40 0.36 0.33 0.31 0.29 0.29 0.28 0.26 0.24 0.25 0.27 0.29 0.32 0.33 0.34 0.34 0.31 0.27 0.28
0.47 0.47 0.46 0.46 0.50 0.52 0.52 0.52 0.52 0.57 0.59 0.59 0.58 0.58 0.58 0.59 0.57 0.53 0.48 0.43 0.38 0.32 0.29 0.27 0.26 0.27 0.27 0.27 0.27 0.28 0.29 0.30 0.28 0.26 0.29 0.31 0.33 0.34 0.35 0.35 0.32 0.31 0.30
0.45 0.47 0.47 0.49 0.51 0.54 0.55 0.52 0.55 0.56 0.54 0.51 0.48 0.46 0.44 0.41 0.39 0.34 0.31 0.29 0.29 0.27 0.26 0.26 0.26 0.27 0.30 0.30 0.31 0.31 0.31 0.32 0.31 0.32 0.31 0.31 0.33 0.34 0.33 0.33 0.33 0.33 0.31
0.46 0.50 0.51 0.50 0.50 0.54 0.55 0.53 0.51 0.50 0.47 0.43 0.42 0.40 0.36 0.34 0.32 0.31 0.29 0.27 0.26 0.25 0.24 0.24 0.23 0.24 0.25 0.26 0.29 0.29 0.30 0.32 0.33 0.34 0.34 0.34 0.33 0.34 0.33 0.33 0.34 0.33 0.33
0.50 0.52 0.51 0.52 0.54 0.55 0.53 0.51 0.49 0.46 0.41 0.38 0.34 0.32 0.30 0.28 0.26 0.25 0.22 0.20 0.21 0.21 0.19 0.20 0.19 0.17 0.15 0.17 0.18 0.18 0.18 0.20 0.24 0.27 0.29 0.30 0.31 0.32 0.31 0.31 0.33 0.35 0.34
0.53 0.54 0.54 0.54 0.54 0.52 0.49 0.47 0.44 0.40 0.35 0.31 0.29 0.26 0.25 0.23 0.21 0.19 0.18 0.20 0.19 0.17 0.17 0.16 0.15 0.16 0.16 0.15 0.14 0.15 0.16 0.17 0.18 0.15 0.18 0.23 0.26 0.28 0.30 0.33 0.33 0.34 0.33

GFSMW_prec_pwat_030.txt.gz
Precipitable_Water
0.68 0.74 0.82 0.87 0.93 0.97 0.96 0.98 0.99 1.03 1.06 0.98 0.83 0.82 0.96 1.08 1.17 1.21 1.19 1.11 1.01 0.97 0.92 0.84 0.81 0.74 0.68 0.69 0.68 0.64 0.61 0.59 0.65 0.66 0.66 0.65 0.67 0.63 0.55 0.51 0.48 0.48 0.50
0.70 0.71 0.74 0.80 0.84 0.89 0.94 0.97 0.98 1.03 1.05 0.99 0.88 0.92 0.98 1.07 1.14 1.21 1.20 1.14 1.04 0.98 0.92 0.86 0.83 0.79 0.75 0.71 0.67 0.62 0.59 0.62 0.70 0.68 0.69 0.63 0.61 0.57 0.56 0.50 0.49 0.52 0.50
0.66 0.70 0.72 0.75 0.77 0.79 0.85 0.91 0.97 1.02 1.04 1.01 0.96 1.03 1.10 1.10 1.13 1.17 1.19 1.23 1.12 1.01 0.95 0.91 0.84 0.78 0.75 0.69 0.66 0.63 0.61 0.66 0.73 0.78 0.74 0.58 0.46 0.49 0.51 0.52 0.53 0.52 0.49
0.65 0.70 0.74 0.74 0.75 0.79 0.85 0.87 0.92 0.98 1.05 1.08 1.03 0.98 0.94 0.95 1.08 1.18 1.22 1.17 1.13 1.08 0.97 0.92 0.86 0.76 0.70 0.66 0.65 0.69 0.74 0.76 0.73 0.70 0.69 0.63 0.53 0.42 0.39 0.49 0.51 0.51 0.45
0.66 0.65 0.70 0.78 0.87 0.89 0.86 0.92 0.96 0.99 1.03 1.07 1.05 1.03 1.03 1.09 1.12 1.11 1.12 1.11 1.09 1.08 1.05 0.99 0.87 0.75 0.70 0.69 0.71 0.74 0.78 0.85 0.71 0.66 0.62 0.56 0.53 0.50 0.44 0.39 0.37 0.40 0.41
0.72 0.73 0.76 0.86 0.87 0.95 0.99 1.00 0.99 1.00 1.04 1.08 1.08 1.05 1.08 1.13 1.11 1.06 1.02 1.02 1.04 1.06 1.03 0.99 0.96 0.82 0.77 0.78 0.80 0.79 0.87 0.83 0.78 0.69 0.57 0.51 0.49 0.47 0.43 0.38 0.37 0.36 0.39
0.73 0.78 0.83 0.84 0.91 0.95 1.00 1.06 1.08 1.06 1.12 1.14 1.13 1.15 1.14 1.17 1.14 1.10 1.10 1.09 1.08 1.05 1.04 0.99 0.98 0.91 0.88 0.89 0.83 0.80 0.92 0.81 0.74 0.63 0.57 0.60 0.54 0.49 0.44 0.41 0.38 0.35 0.36
0.67 0.72 0.77 0.84 0.91 0.99 1.05 1.07 1.07 1.10 1.15 1.15 1.16 1.20 1.17 1.16 1.16 1.12 1.14 1.16 1.11 1.08 1.07 1.02 1.05 0.94 0.92 0.87 0.80 0.93 0.86 0.78 0.66 0.64 0.65 0.58 0.54 0.52 0.48 0.43 0.38 0.32 0.29
0.54 0.62 0.73 0.81 0.88 0.97 1.04 1.09 1.12 1.16 1.20 1.19 1.22 1.19 1.18 1.13 1.08 1.14 1.14 1.11 1.08 1.04 1.02 1.05 1.04 0.93 0.88 0.80 0.89 0.87 0.76 0.68 0.69 0.71 0.67 0.59 0.55 0.54 0.50 0.44 0.39 0.32 0.25
0.53 0.55 0.60 0.66 0.77 0.91 1.01 1.08 1.15 1.17 1.22 1.26 1.22 1.15 1.10 1.08 1.13 1.24 1.16 1.13 1.11 1.08 1.01 0.99 0.94 0.94 0.91 0.84 0.92 0.74 0.69 0.68 0.72 0.70 0.63 0.59 0.53 0.49 0.47 0.42 0.40 0.35 0.29
0.51 0.56 0.57 0.63 0.67 0.76 0.86 0.94 1.02 1.07 1.11 1.19 1.12 1.07 1.05 1.12 1.17 1.13 1.15 1.13 1.11 1.07 1.02 0.99 1.00 0.98 0.84 0.85 0.73 0.65 0.64 0.64 0.69 0.67 0.61 0.54 0.50 0.46 0.44 0.42 0.37 0.34 0.32
0.51 0.56 0.60 0.64 0.69 0.71 0.73 0.78 0.89 0.95 1.00 0.95 0.94 0.98 1.14 1.15 1.08 1.03 1.02 1.05 1.03 1.01 0.99 0.99 0.95 0.81 0.78 0.73 0.63 0.63 0.64 0.68 0.69 0.64 0.57 0.52 0.49 0.48 0.44 0.41 0.38 0.35 0.33
0.48 0.56 0.61 0.66 0.62 0.58 0.64 0.69 0.73 0.77 0.85 0.93 1.00 1.05 1.04 1.05 1.05 1.00 0.97 0.96 0.91 0.90 0.94 0.93 0.81 0.76 0.71 0.64 0.63 0.67 0.71 0.73 0.67 0.59 0.56 0.53 0.51 0.47 0.43 0.42 0.38 0.35 0.33
0.45 0.50 0.58 0.64 0.67 0.71 0.75 0.78 0.83 0.90 0.95 0.95 0.95 0.96 0.95 0.94 0.93 0.91 0.90 0.89 0.89 0.86 0.87 0.83 0.75 0.70 0.68 0.61 0.66 0.71 0.73 0.71 0.64 0.59 0.56 0.53 0.49 0.43 0.43 0.41 0.39 0.36 0.33
0.49 0.52 0.57 0.64 0.71 0.76 0.80 0.85 0.90 0.94 0.96 0.90 0.84 0.81 0.81 0.79 0.77 0.77 0.79 0.81 0.83 0.81 0.80 0.76 0.65 0.68 0.65 0.68 0.75 0.74 0.70 0.67 0.61 0.59 0.55 0.51 0.48 0.45 0.44 0.39 0.36 0.35 0.32
0.49 0.55 0.57 0.61 0.65 0.70 0.75 0.78 0.77 0.77 0.77 0.72 0.66 0.64 0.65 0.64 0.64 0.66 0.69 0.72 0.73 0.72 0.67 0.64 0.64 0.67 0.74 0.74 0.75 0.72 0.67 0.64 0.59 0.53 0.51 0.47 0.44 0.42 0.39 0.36 0.35 0.36 0.34
0.50 0.53 0.56 0.59 0.61 0.63 0.65 0.64 0.64 0.66 0.64 0.61 0.60 0.60 0.59 0.59 0.63 0.65 0.64 0.63 0.64 0.65 0.64 0.65 0.69 0.69 0.65 0.69 0.69 0.66 0.63 0.60 0.56 0.51 0.45 0.40 0.37 0.35 0.34 0.33 0.33 0.34 0.34
0.50 0.53 0.55 0.57 0.59 0.61 0.61 0.60 0.59 0.58 0.56 0.54 0.53 0.55 0.57 0.58 0.61 0.63 0.65 0.65 0.66 0.66 0.65 0.65 0.64 0.62 0.65 0.66 0.64 0.63 0.60 0.54 0.46 0.40 0.35 0.32 0.31 0.31 0.33 0.32 0.33 0.32 0.35
0.48 0.50 0.53 0.54 0.56 0.56 0.57 0.56 0.53 0.51 0.48 0.47 0.50 0.54 0.57 0.59 0.61 0.61 0.63 0.64 0.63 0.61 0.60 0.58 0.58 0.59 0.60 0.60 0.59 0.55 0.45 0.37 0.33 0.33 0.32 0.30 0.29 0.29 0.31 0.30 0.31 0.33 0.35
0.52 0.52 0.55 0.55 0.55 0.55 0.55 0.50 0.48 0.47 0.47 0.51 0.54 0.58 0.60 0.60 0.59 0.60 0.59 0.58 0.58 0.57 0.56 0.55 0.55 0.55 0.52 0.48 0.42 0.36 0.33 0.30 0.29 0.30 0.30 0.30 0.29 0.29 0.30 0.31 0.32 0.31 0.34
0.53 0.55 0.55 0.54 0.53 0.53 0.52 0.47 0.48 0.49 0.54 0.56 0.57 0.58 0.59 0.58 0.58 0.56 0.56 0.55 0.53 0.51 0.47 0.42 0.39 0.36 0.34 0.32 0.31 0.31 0.30 0.30 0.30 0.29 0.29 0.30 0.31 0.29 0.31 0.32 0.33 0.33 0.36
0.52 0.54 0.51 0.50 0.51 0.51 0.50 0.49 0.51 0.56 0.57 0.57 0.56 0.56 0.56 0.52 0.50 0.46 0.43 0.38 0.35 0.33 0.32 0.31 0.31 0.32 0.34 0.34 0.34 0.33 0.33 0.33 0.31 0.29 0.31 0.32 0.33 0.32 0.31 0.32 0.33 0.34 0.36
0.49 0.50 0.49 0.49 0.51 0.53 0.53 0.52 0.55 0.55 0.53 0.51 0.48 0.45 0.43 0.41 0.38 0.36 0.34 0.33 0.33 0.31 0.29 0.27 0.26 0.26 0.27 0.25 0.26 0.23 0.21 0.20 0.19 0.21 0.25 0.29 0.31 0.33 0.33 0.32 0.32 0.35 0.35
0.46 0.47 0.46 0.47 0.49 0.52 0.53 0.54 0.54 0.52 0.49 0.44 0.42 0.40 0.36 0.34 0.33 0.31 0.29 0.27 0.26 0.23 0.21 0.20 0.20 0.19 0.19 0.20 0.21 0.18 0.17 0.17 0.17 0.17 0.17 0.16 0.16 0.23 0.30 0.34 0.34 0.33 0.33
0.46 0.46 0.47 0.49 0.51 0.53 0.53 0.52 0.51 0.48 0.44 0.40 0.36 0.34 0.32 0.28 0.26 0.26 0.25 0.22 0.23 0.20 0.18 0.18 0.17 0.17 0.16 0.18 0.17 0.16 0.16 0.16 0.15 0.15 0.16 0.16 0.17 0.16 0.18 0.26 0.29 0.37 0.36
0.47 0.48 0.50 0.52 0.52 0.51 0.49 0.49 0.48 0.45 0.39 0.35 0.32 0.29 0.27 0.27 0.25 0.23 0.22 0.23 0.20 0.18 0.17 0.17 0.17 0.17 0.17 0.16 0.15 0.15 0.15 0.14 0.15 0.14 0.15 0.18 0.20 0.21 0.22 0.19 0.26 0.31 0.32

GFSMW_prec_pwat_033.txt.gz
Precipitable_Water
0.66 0.76 0.94 0.88 0.92 0.90 0.86 0.86 0.87 1.00 1.09 1.11 0.94 0.83 0.79 0.92 1.17 1.28 1.32 1.23 1.11 1.04 1.00 0.95 0.91 0.87 0.76 0.76 0.79 0.72 0.68 0.64 0.64 0.65 0.70 0.71 0.72 0.70 0.65 0.59 0.55 0.53 0.53
0.63 0.67 0.79 0.89 0.91 0.90 0.92 0.94 0.94 0.99 1.03 0.99 0.99 0.87 0.86 0.95 1.11 1.23 1.27 1.21 1.16 1.05 1.00 0.99 0.91 0.89 0.83 0.81 0.77 0.70 0.67 0.67 0.70 0.70 0.72 0.67 0.66 0.65 0.63 0.60 0.56 0.54 0.55
0.65 0.63 0.68 0.80 0.87 0.90 0.93 0.97 1.00 1.03 1.07 1.09 1.04 0.88 0.87 0.99 1.04 1.09 1.17 1.21 1.21 1.18 1.09 1.02 0.98 0.93 0.86 0.80 0.75 0.73 0.68 0.64 0.73 0.82 0.75 0.61 0.56 0.57 0.60 0.59 0.57 0.54 0.55
0.69 0.69 0.66 0.69 0.75 0.80 0.91 0.94 0.98 1.00 1.05 1.07 0.99 0.90 0.91 0.91 1.04 1.11 1.19 1.23 1.30 1.26 1.19 1.16 1.06 0.97 0.91 0.83 0.80 0.75 0.70 0.70 0.72 0.85 0.83 0.79 0.71 0.52 0.47 0.55 0.55 0.56 0.54
0.66 0.65 0.67 0.68 0.72 0.76 0.78 0.86 0.94 0.97 1.02 1.05 1.01 0.97 1.00 1.03 1.09 1.13 1.15 1.19 1.24 1.26 1.22 1.16 1.14 1.11 1.07 0.91 0.80 0.72 0.74 0.75 0.83 0.84 0.83 0.76 0.67 0.62 0.53 0.47 0.50 0.54 0.50
0.71 0.71 0.73 0.78 0.78 0.82 0.84 0.86 0.90 0.93 1.00 1.06 1.08 1.04 1.06 1.04 1.09 1.19 1.19 1.17 1.17 1.17 1.19 1.16 1.18 1.16 1.06 0.96 0.90 0.83 0.79 0.82 0.91 0.90 0.83 0.70 0.59 0.57 0.57 0.50 0.48 0.46 0.47
0.71 0.73 0.76 0.80 0.86 0.93 0.95 0.95 0.94 0.91 0.99 1.04 1.09 1.10 1.09 1.12 1.11 1.16 1.16 1.13 1.09 1.10 1.14 1.19 1.15 1.13 1.08 1.01 1.01 0.94 0.93 0.95 0.92 0.91 0.79 0.66 0.68 0.66 0.57 0.50 0.47 0.45 0.46
0.72 0.74 0.77 0.81 0.87 0.94 1.03 1.05 1.02 1.03 1.07 1.13 1.12 1.19 1.19 1.20 1.22 1.19 1.17 1.13 1.13 1.15 1.27 1.15 1.15 1.11 1.05 1.03 1.02 0.93 0.95 0.93 0.94 0.85 0.73 0.73 0.69 0.63 0.57 0.54 0.49 0.43 0.42
0.58 0.71 0.76 0.83 0.90 0.96 1.03 1.07 1.08 1.08 1.12 1.12 1.22 1.26 1.25 1.23 1.23 1.20 1.15 1.10 1.07 1.10 1.16 1.17 1.08 1.04 0.99 1.02 0.97 0.97 0.89 0.93 0.89 0.77 0.75 0.72 0.67 0.62 0.61 0.59 0.53 0.45 0.38
0.57 0.59 0.68 0.80 0.90 0.97 1.05 1.13 1.16 1.15 1.18 1.21 1.30 1.36 1.33 1.29 1.25 1.18 1.10 1.07 1.10 1.08 1.04 1.04 1.03 0.98 0.99 0.97 1.00 0.94 0.91 0.86 0.77 0.72 0.72 0.71 0.68 0.64 0.60 0.55 0.51 0.48 0.42
0.54 0.57 0.59 0.66 0.77 0.91 0.98 1.07 1.14 1.15 1.18 1.21 1.26 1.25 1.27 1.28 1.23 1.10 1.07 1.12 1.04 1.01 0.96 0.96 0.95 0.91 0.93 0.94 0.93 0.87 0.82 0.73 0.69 0.69 0.72 0.71 0.68 0.61 0.55 0.52 0.50 0.45 0.39
0.50 0.59 0.62 0.66 0.68 0.75 0.86 0.96 1.03 1.05 1.13 1.19 1.19 1.22 1.20 1.11 1.04 1.10 1.11 1.10 1.07 1.07 0.99 0.91 0.87 0.86 0.86 0.87 0.86 0.80 0.76 0.69 0.68 0.69 0.73 0.68 0.63 0.57 0.55 0.52 0.48 0.44 0.42
0.46 0.55 0.61 0.64 0.72 0.79 0.84 0.89 0.92 0.94 1.02 1.09 1.12 1.14 1.00 1.05 1.09 1.08 1.05 1.04 0.99 0.94 0.89 0.85 0.83 0.83 0.83 0.85 0.81 0.75 0.66 0.73 0.71 0.73 0.70 0.64 0.61 0.57 0.54 0.51 0.47 0.45 0.44
0.44 0.52 0.64 0.66 0.71 0.76 0.75 0.80 0.86 0.92 0.95 0.96 0.96 0.99 1.03 1.04 1.04 1.01 0.97 0.96 0.91 0.87 0.84 0.83 0.83 0.84 0.80 0.77 0.74 0.69 0.73 0.76 0.72 0.75 0.72 0.66 0.60 0.56 0.54 0.49 0.47 0.45 0.43
0.47 0.54 0.65 0.70 0.74 0.75 0.80 0.85 0.86 0.88 0.92 0.96 0.99 1.02 1.04 0.99 0.93 0.88 0.81 0.78 0.75 0.75 0.78 0.81 0.81 0.77 0.75 0.71 0.69 0.75 0.73 0.68 0.70 0.71 0.67 0.62 0.60 0.56 0.51 0.48 0.44 0.43 0.42
0.48 0.59 0.69 0.72 0.74 0.78 0.82 0.85 0.87 0.90 0.95 0.89 0.84 0.83 0.81 0.77 0.72 0.69 0.68 0.69 0.71 0.72 0.71 0.70 0.70 0.67 0.67 0.71 0.71 0.70 0.67 0.68 0.64 0.61 0.61 0.60 0.55 0.50 0.48 0.44 0.41 0.39 0.35
0.49 0.56 0.59 0.62 0.67 0.71 0.77 0.77 0.78 0.80 0.76 0.73 0.71 0.69 0.67 0.64 0.63 0.61 0.61 0.62 0.62 0.64 0.64 0.66 0.65 0.64 0.67 0.68 0.66 0.65 0.64 0.60 0.59 0.57 0.55 0.51 0.47 0.44 0.40 0.38 0.37 0.37 0.35
0.48 0.53 0.60 0.62 0.66 0.69 0.70 0.70 0.67 0.65 0.63 0.62 0.62 0.62 0.59 0.55 0.54 0.56 0.58 0.60 0.61 0.61 0.62 0.62 0.62 0.61 0.62 0.62 0.59 0.58 0.60 0.56 0.53 0.50 0.45 0.38 0.35 0.35 0.34 0.33 0.31 0.32 0.35
0.53 0.54 0.55 0.59 0.61 0.60 0.60 0.58 0.58 0.59 0.57 0.55 0.53 0.53 0.53 0.53 0.56 0.57 0.59 0.61 0.61 0.61 0.61 0.58 0.55 0.54 0.54 0.58 0.59 0.55 0.49 0.43 0.38 0.36 0.34 0.33 0.32 0.32 0.31 0.30 0.29 0.28 0.30
0.53 0.53 0.55 0.56 0.54 0.54 0.57 0.57 0.55 0.54 0.51 0.51 0.50 0.54 0.56 0.57 0.57 0.58 0.58 0.59 0.57 0.55 0.55 0.54 0.54 0.53 0.49 0.48 0.45 0.40 0.35 0.31 0.31 0.32 0.32 0.32 0.32 0.32 0.31 0.30 0.29 0.26 0.27
0.54 0.56 0.56 0.54 0.55 0.58 0.58 0.54 0.52 0.49 0.50 0.52 0.54 0.56 0.57 0.57 0.57 0.57 0.55 0.52 0.49 0.47 0.45 0.42 0.41 0.40 0.38 0.39 0.37 0.35 0.33 0.30 0.26 0.26 0.26 0.28 0.30 0.31 0.32 0.32 0.32 0.30 0.31
0.53 0.55 0.54 0.54 0.57 0.57 0.55 0.51 0.48 0.51 0.55 0.56 0.55 0.55 0.55 0.53 0.52 0.48 0.44 0.39 0.39 0.37 0.37 0.37 0.36 0.38 0.38 0.37 0.33 0.28 0.24 0.22 0.20 0.18 0.19 0.20 0.20 0.17 0.17 0.20 0.27 0.33 0.33
0.54 0.55 0.53 0.52 0.54 0.55 0.53 0.48 0.51 0.54 0.54 0.52 0.50 0.48 0.46 0.44 0.44 0.40 0.37 0.36 0.35 0.33 0.32 0.28 0.27 0.27 0.28 0.26 0.25 0.23 0.20 0.17 0.17 0.18 0.17 0.15 0.14 0.13 0.14 0.15 0.14 0.19 0.27
0.51 0.51 0.51 0.50 0.49 0.51 0.51 0.52 0.53 0.53 0.51 0.49 0.46 0.45 0.43 0.39 0.37 0.34 0.31 0.29 0.30 0.27 0.25 0.24 0.23 0.22 0.22 0.21 0.22 0.18 0.17 0.17 0.17 0.16 0.14 0.13 0.15 0.19 0.21 0.22 0.23 0.23 0.22
0.49 0.50 0.47 0.46 0.46 0.49 0.50 0.52 0.52 0.50 0.47 0.45 0.44 0.41 0.37 0.35 0.32 0.31 0.29 0.28 0.28 0.23 0.21 0.21 0.19 0.19 0.18 0.20 0.18 0.16 0.16 0.15 0.15 0.14 0.14 0.16 0.17 0.15 0.16 0.18 0.21 0.25 0.27
0.48 0.47 0.48 0.47 0.47 0.49 0.50 0.51 0.51 0.49 0.46 0.42 0.39 0.37 0.36 0.33 0.30 0.29 0.31 0.29 0.26 0.22 0.19 0.18 0.17 0.18 0.19 0.18 0.16 0.16 0.15 0.14 0.15 0.14 0.14 0.14 0.14 0.13 0.14 0.14 0.16 0.18 0.23

GFSMW_prec_pwat_036.txt.gz
Precipitable_Water
0.75 0.78 0.81 0.78 0.82 0.85 0.87 0.86 0.87 0.94 0.97 1.01 0.92 0.97 0.81 0.85 0.86 1.03 1.24 1.22 1.27 1.20 1.09 1.08 1.00 0.95 0.87 0.80 0.79 0.73 0.67 0.66 0.69 0.65 0.66 0.74 0.78 0.78 0.74 0.70 0.65 0.59 0.56
0.67 0.69 0.76 0.79 0.82 0.78 0.82 0.90 0.95 0.97 1.02 1.03 0.96 0.90 0.80 0.77 0.81 1.07 1.24 1.27 1.39 1.12 1.08 1.05 0.98 0.95 0.92 0.88 0.82 0.77 0.69 0.68 0.70 0.66 0.72 0.68 0.75 0.78 0.77 0.71 0.64 0.59 0.58
0.61 0.64 0.69 0.76 0.83 0.81 0.80 0.85 0.89 0.92 0.98 1.03 0.94 0.96 0.89 0.83 0.81 1.01 1.04 1.14 1.34 1.19 1.10 1.10 1.08 1.02 0.99 0.89 0.84 0.80 0.72 0.67 0.72 0.75 0.72 0.66 0.67 0.71 0.73 0.69 0.64 0.60 0.60
0.64 0.65 0.65 0.73 0.79 0.82 0.87 0.86 0.86 0.85 0.91 0.99 0.97 0.97 0.83 0.74 0.87 1.02 1.11 1.11 1.20 1.25 1.23 1.24 1.23 1.18 1.13 1.04 0.96 0.94 0.82 0.75 0.71 0.79 0.82 0.81 0.83 0.73 0.61 0.66 0.64 0.64 0.63
0.66 0.63 0.62 0.66 0.76 0.82 0.84 0.87 0.92 0.94 0.98 0.98 1.02 1.05 0.91 0.87 0.92 1.08 1.15 1.19 1.22 1.23 1.24 1.27 1.25 1.22 1.16 1.11 1.03 1.03 0.98 0.89 0.82 0.83 0.82 0.88 0.91 0.82 0.66 0.57 0.61 0.66 0.65
0.66 0.72 0.74 0.74 0.74 0.80 0.82 0.86 0.86 0.91 0.96 1.02 1.01 1.04 0.99 0.95 1.01 1.10 1.10 1.16 1.20 1.22 1.28 1.29 1.25 1.22 1.19 1.17 1.14 1.12 1.02 0.98 0.90 0.87 0.89 0.89 0.84 0.73 0.65 0.59 0.60 0.59 0.59
0.71 0.71 0.76 0.77 0.77 0.78 0.81 0.85 0.86 0.87 0.96 1.00 1.03 1.06 1.07 1.06 1.04 1.09 1.14 1.17 1.24 1.19 1.18 1.15 1.15 1.16 1.22 1.21 1.17 1.09 1.04 0.99 0.90 0.89 0.93 0.95 0.84 0.74 0.69 0.65 0.59 0.52 0.53
0.68 0.72 0.72 0.80 0.85 0.86 0.88 0.90 0.91 0.88 0.93 0.99 1.03 1.07 1.09 1.08 1.21 1.20 1.23 1.20 1.20 1.11 1.08 1.15 1.16 1.15 1.14 1.13 1.11 1.01 0.99 0.94 0.95 0.97 0.95 0.90 0.80 0.73 0.70 0.62 0.55 0.50 0.51
0.66 0.71 0.82 0.76 0.86 0.92 0.95 0.96 1.00 0.99 1.01 1.06 1.09 1.08 1.19 1.24 1.20 1.15 1.35 1.26 1.22 1.10 1.08 1.12 1.09 1.09 1.05 1.04 1.01 0.94 0.88 0.93 0.95 0.94 0.90 0.81 0.77 0.73 0.71 0.63 0.61 0.55 0.46
0.54 0.61 0.79 0.78 0.85 0.92 1.02 1.03 1.02 1.00 1.07 1.10 1.13 1.14 1.18 1.26 1.25 1.20 1.33 1.34 1.22 1.12 1.13 1.10 1.09 1.05 1.01 0.97 0.92 0.87 0.92 0.86 0.89 0.85 0.79 0.76 0.74 0.73 0.70 0.64 0.61 0.58 0.50
0.56 0.52 0.56 0.68 0.83 0.92 1.00 1.23 1.05 1.22 1.12 1.19 1.21 1.27 1.22 1.26 1.25 1.27 1.34 1.21 1.15 1.11 1.09 1.04 1.00 0.93 0.90 0.88 0.84 0.82 0.82 0.88 0.81 0.80 0.81 0.74 0.73 0.72 0.69 0.65 0.59 0.55 0.52
0.53 0.57 0.54 0.54 0.59 0.71 0.90 1.06 1.15 1.17 1.21 1.20 1.27 1.36 1.31 1.35 1.31 1.26 1.15 1.09 1.14 1.11 1.03 0.96 0.90 0.88 0.87 0.88 0.84 0.80 0.81 0.77 0.82 0.79 0.74 0.71 0.73 0.71 0.69 0.65 0.59 0.53 0.50
0.46 0.57 0.58 0.55 0.57 0.63 0.74 0.88 1.02 1.11 1.16 1.15 1.20 1.26 1.22 1.23 1.24 1.10 1.08 1.12 1.10 1.05 1.00 0.92 0.88 0.86 0.86 0.83 0.79 0.76 0.82 0.77 0.77 0.76 0.69 0.70 0.72 0.68 0.66 0.60 0.54 0.51 0.48
0.47 0.48 0.63 0.60 0.60 0.63 0.70 0.83 0.93 1.01 1.02 1.06 1.08 1.08 1.16 1.15 1.05 1.08 1.09 1.07 1.02 0.95 0.90 0.83 0.78 0.77 0.78 0.81 0.75 0.80 0.75 0.79 0.73 0.68 0.71 0.72 0.70 0.66 0.60 0.56 0.53 0.50 0.47
0.49 0.47 0.60 0.74 0.71 0.70 0.74 0.82 0.84 0.90 1.00 1.02 1.02 0.97 0.99 1.03 1.08 1.05 1.01 0.93 0.86 0.79 0.77 0.74 0.75 0.75 0.77 0.76 0.75 0.74 0.72 0.67 0.66 0.69 0.68 0.69 0.67 0.62 0.58 0.52 0.47 0.46 0.46
0.51 0.52 0.56 0.79 0.80 0.82 0.82 0.81 0.78 0.85 0.91 0.90 0.91 1.00 1.02 0.98 0.91 0.87 0.83 0.74 0.71 0.68 0.69 0.70 0.70 0.71 0.70 0.70 0.69 0.68 0.66 0.64 0.65 0.61 0.62 0.61 0.58 0.55 0.50 0.48 0.46 0.44 0.40
0.49 0.52 0.61 0.74 0.82 0.84 0.84 0.80 0.80 0.84 0.85 0.88 0.91 0.87 0.83 0.77 0.74 0.71 0.68 0.65 0.62 0.62 0.61 0.62 0.64 0.64 0.65 0.67 0.65 0.63 0.60 0.59 0.57 0.55 0.53 0.49 0.47 0.44 0.42 0.42 0.39 0.38 0.37
0.52 0.57 0.66 0.65 0.71 0.76 0.76 0.80 0.80 0.79 0.77 0.75 0.72 0.70 0.68 0.66 0.63 0.58 0.55 0.55 0.57 0.58 0.59 0.60 0.61 0.61 0.60 0.58 0.58 0.58 0.56 0.54 0.52 0.50 0.45 0.42 0.41 0.38 0.36 0.35 0.32 0.31 0.31
0.56 0.57 0.63 0.66 0.65 0.66 0.70 0.69 0.68 0.67 0.64 0.62 0.61 0.62 0.62 0.57 0.54 0.51 0.53 0.56 0.57 0.58 0.58 0.58 0.54 0.53 0.55 0.57 0.55 0.53 0.50 0.46 0.42 0.37 0.36 0.35 0.32 0.34 0.34 0.32 0.30 0.29 0.29
0.55 0.57 0.62 0.63 0.63 0.61 0.61 0.59 0.58 0.56 0.54 0.55 0.59 0.60 0.57 0.53 0.52 0.55 0.56 0.57 0.56 0.54 0.54 0.53 0.53 0.51 0.50 0.52 0.48 0.43 0.39 0.34 0.32 0.30 0.28 0.26 0.24 0.24 0.25 0.24 0.23 0.21 0.21
0.57 0.59 0.57 0.57 0.59 0.59 0.58 0.54 0.53 0.52 0.57 0.59 0.57 0.55 0.54 0.55 0.56 0.55 0.56 0.55 0.53 0.51 0.49 0.44 0.44 0.44 0.43 0.41 0.39 0.36 0.32 0.27 0.23 0.21 0.20 0.20 0.20 0.19 0.16 0.14 0.13 0.12 0.13
0.54 0.55 0.54 0.55 0.57 0.58 0.55 0.52 0.52 0.57 0.57 0.56 0.53 0.53 0.55 0.55 0.55 0.52 0.50 0.50 0.48 0.45 0.42 0.40 0.40 0.43 0.42 0.38 0.34 0.30 0.26 0.23 0.20 0.17 0.18 0.19 0.17 0.14 0.14 0.17 0.19 0.21 0.23
0.53 0.55 0.55 0.55 0.58 0.58 0.57 0.52 0.54 0.56 0.54 0.52 0.51 0.51 0.50 0.49 0.48 0.46 0.44 0.44 0.44 0.40 0.37 0.34 0.33 0.33 0.34 0.34 0.30 0.26 0.23 0.19 0.17 0.18 0.18 0.15 0.13 0.15 0.18 0.19 0.18 0.20 0.22
0.53 0.56 0.56 0.55 0.54 0.57 0.56 0.55 0.56 0.55 0.50 0.46 0.46 0.46 0.45 0.43 0.42 0.41 0.40 0.39 0.36 0.33 0.31 0.30 0.29 0.29 0.28 0.25 0.24 0.21 0.18 0.18 0.18 0.17 0.15 0.15 0.16 0.19 0.17 0.15 0.15 0.15 0.16
0.54 0.56 0.56 0.56 0.55 0.55 0.54 0.55 0.54 0.51 0.48 0.47 0.46 0.46 0.43 0.41 0.40 0.38 0.35 0.34 0.31 0.30 0.30 0.28 0.27 0.24 0.22 0.22 0.21 0.19 0.18 0.18 0.17 0.16 0.16 0.16 0.17 0.15 0.14 0.13 0.14 0.14 0.14
0.54 0.56 0.57 0.56 0.53 0.53 0.52 0.52 0.51 0.50 0.48 0.47 0.48 0.46 0.42 0.40 0.38 0.35 0.33 0.33 0.32 0.31 0.28 0.25 0.23 0.23 0.22 0.21 0.20 0.19 0.18 0.18 0.18 0.17 0.15 0.15 0.14 0.13 0.13 0.12 0.12 0.13 0.13

GFSMW_prec_pwat_039.txt.gz
Precipitable_Water
0.75 0.77 0.74 0.84 0.85 0.87 0.87 0.90 0.92 0.96 0.97 0.87 0.84 0.86 0.83 0.90 0.94 1.01 1.09 1.06 1.13 1.10 1.10 1.03 1.05 0.95 0.90 0.88 0.84 0.80 0.73 0.68 0.70 0.64 0.64 0.67 0.74 0.76 0.78 0.78 0.77 0.74 0.71
0.69 0.71 0.72 0.74 0.74 0.72 0.76 0.80 0.81 0.83 0.86 0.81 0.79 0.79 0.80 0.85 0.87 0.93 0.98 1.10 1.17 1.21 1.15 1.09 1.03 0.99 0.95 0.93 0.88 0.82 0.73 0.70 0.69 0.62 0.66 0.62 0.72 0.78 0.79 0.79 0.78 0.75 0.70
0.62 0.65 0.69 0.68 0.69 0.66 0.66 0.69 0.74 0.81 0.81 0.80 0.80 0.81 0.89 0.89 0.80 0.76 0.83 1.13 1.23 1.20 1.16 1.17 1.09 1.05 1.02 0.97 0.95 0.89 0.84 0.75 0.76 0.71 0.70 0.64 0.62 0.71 0.79 0.82 0.81 0.74 0.69
0.66 0.66 0.64 0.67 0.64 0.64 0.68 0.68 0.72 0.81 0.82 0.83 0.81 0.79 0.76 0.73 0.75 0.73 0.86 1.03 1.14 1.09 1.18 1.23 1.19 1.16 1.18 1.15 1.12 1.06 0.99 0.97 0.83 0.85 0.89 0.85 0.78 0.68 0.67 0.79 0.80 0.73 0.69
0.69 0.64 0.62 0.62 0.72 0.73 0.69 0.72 0.73 0.75 0.79 0.85 0.87 0.82 0.74 0.83 0.82 0.82 0.87 1.01 1.15 1.17 1.17 1.24 1.21 1.21 1.20 1.17 1.12 1.13 1.08 1.04 0.99 0.96 0.88 0.91 0.88 0.86 0.77 0.67 0.70 0.71 0.73
0.70 0.73 0.71 0.75 0.68 0.77 0.82 0.79 0.77 0.81 0.84 0.85 0.91 0.94 0.94 0.95 0.92 0.85 0.93 1.09 1.20 1.26 1.33 1.29 1.28 1.26 1.19 1.14 1.10 1.12 1.14 1.09 1.07 1.04 0.97 0.88 0.84 0.81 0.78 0.72 0.69 0.64 0.65
0.69 0.69 0.70 0.72 0.75 0.71 0.74 0.80 0.82 0.80 0.90 0.92 0.93 0.93 0.97 1.02 1.00 0.94 0.94 1.04 1.19 1.27 1.27 1.28 1.23 1.14 1.14 1.14 1.12 1.07 1.04 1.03 0.98 0.92 0.89 0.90 0.88 0.87 0.83 0.76 0.65 0.58 0.60
0.65 0.67 0.70 0.76 0.77 0.75 0.76 0.78 0.81 0.82 0.87 0.92 0.94 0.99 0.99 1.00 1.01 1.01 1.06 1.20 1.26 1.21 1.32 1.26 1.21 1.11 1.16 1.15 1.12 1.08 1.02 0.99 0.91 0.86 0.85 0.86 0.87 0.86 0.77 0.67 0.63 0.56 0.57
0.64 0.70 0.74 0.77 0.84 0.83 0.85 0.85 0.83 0.85 0.90 0.93 0.98 1.01 1.03 1.03 1.05 1.07 1.19 1.16 1.19 1.17 1.25 1.30 1.19 1.16 1.16 1.13 1.09 1.02 0.95 0.92 0.87 0.85 0.88 0.81 0.90 0.81 0.78 0.73 0.70 0.60 0.49
0.61 0.66 0.74 0.76 0.79 0.79 0.81 0.91 0.98 1.00 1.00 1.00 0.99 0.98 1.04 1.06 1.11 1.20 1.21 1.20 1.17 1.21 1.21 1.26 1.21 1.17 1.11 1.06 1.04 0.98 0.94 0.88 0.85 0.81 0.82 0.83 0.83 0.81 0.79 0.75 0.70 0.64 0.56
0.55 0.65 0.72 0.78 0.82 0.81 0.87 0.96 1.01 1.08 1.03 1.15 1.11 1.17 1.16 1.12 1.18 1.25 1.35 1.30 1.33 1.26 1.16 1.19 1.15 1.05 1.03 1.01 0.97 0.93 0.89 0.83 0.80 0.83 0.81 0.79 0.80 0.78 0.74 0.72 0.70 0.66 0.60
0.48 0.51 0.56 0.67 0.70 0.81 0.93 0.96 1.01 1.04 1.05 1.01 1.09 1.20 1.28 1.38 1.38 1.38 1.46 1.44 1.15 1.19 1.15 1.12 1.06 1.02 0.98 0.95 0.91 0.86 0.84 0.80 0.75 0.78 0.80 0.73 0.78 0.75 0.72 0.71 0.69 0.64 0.61
0.49 0.51 0.50 0.48 0.50 0.60 0.76 0.89 0.99 1.06 1.16 1.11 1.10 1.33 1.31 1.21 1.11 1.14 1.26 1.25 1.15 1.07 1.06 1.05 0.99 0.93 0.91 0.86 0.80 0.78 0.74 0.79 0.74 0.78 0.74 0.74 0.72 0.66 0.69 0.68 0.62 0.60 0.57
0.49 0.54 0.57 0.51 0.47 0.52 0.62 0.79 0.93 1.04 1.12 1.17 1.19 1.12 1.06 1.05 1.11 1.16 1.12 1.09 1.08 1.08 1.05 0.98 0.91 0.80 0.74 0.73 0.74 0.74 0.76 0.72 0.77 0.74 0.72 0.70 0.66 0.65 0.66 0.61 0.57 0.54 0.49
0.51 0.56 0.58 0.61 0.60 0.57 0.63 0.68 0.75 0.87 0.99 1.00 0.96 0.94 1.02 1.08 1.03 1.03 1.04 1.04 1.05 1.00 0.93 0.80 0.75 0.73 0.72 0.74 0.73 0.74 0.73 0.71 0.70 0.68 0.67 0.65 0.65 0.62 0.61 0.55 0.49 0.46 0.43
0.50 0.51 0.60 0.66 0.73 0.69 0.67 0.72 0.76 0.78 0.84 0.83 0.82 0.88 0.91 0.94 0.97 0.98 0.99 0.93 0.84 0.77 0.73 0.70 0.69 0.69 0.72 0.75 0.74 0.73 0.69 0.68 0.64 0.62 0.61 0.60 0.57 0.53 0.48 0.45 0.45 0.45 0.41
0.50 0.53 0.63 0.66 0.65 0.68 0.72 0.74 0.80 0.81 0.78 0.76 0.80 0.83 0.87 0.90 0.92 0.87 0.79 0.73 0.69 0.67 0.63 0.62 0.65 0.67 0.68 0.68 0.68 0.67 0.65 0.61 0.58 0.54 0.53 0.48 0.47 0.46 0.42 0.38 0.36 0.35 0.35
0.51 0.58 0.66 0.68 0.73 0.76 0.78 0.79 0.81 0.81 0.81 0.80 0.80 0.84 0.86 0.81 0.73 0.67 0.66 0.65 0.62 0.57 0.55 0.57 0.60 0.60 0.61 0.63 0.62 0.59 0.56 0.53 0.51 0.49 0.48 0.44 0.40 0.38 0.35 0.32 0.30 0.30 0.30
0.60 0.65 0.70 0.74 0.74 0.74 0.78 0.79 0.81 0.79 0.78 0.80 0.81 0.75 0.69 0.62 0.60 0.57 0.57 0.56 0.53 0.52 0.54 0.55 0.54 0.54 0.54 0.56 0.56 0.53 0.50 0.47 0.44 0.43 0.41 0.38 0.34 0.32 0.29 0.24 0.19 0.17 0.14
0.61 0.63 0.64 0.62 0.68 0.73 0.78 0.75 0.70 0.70 0.69 0.68 0.66 0.64 0.61 0.57 0.55 0.55 0.52 0.52 0.53 0.53 0.54 0.52 0.53 0.54 0.55 0.55 0.52 0.50 0.46 0.41 0.38 0.36 0.32 0.27 0.22 0.21 0.21 0.18 0.17 0.15 0.16
0.61 0.59 0.56 0.59 0.64 0.66 0.66 0.65 0.65 0.61 0.62 0.61 0.58 0.57 0.57 0.58 0.58 0.55 0.53 0.53 0.52 0.51 0.50 0.50 0.52 0.50 0.49 0.47 0.44 0.41 0.38 0.35 0.31 0.25 0.21 0.20 0.21 0.21 0.20 0.21 0.21 0.20 0.21
0.53 0.53 0.55 0.57 0.61 0.62 0.61 0.59 0.57 0.60 0.60 0.59 0.58 0.59 0.60 0.58 0.55 0.52 0.53 0.52 0.51 0.47 0.45 0.43 0.44 0.44 0.43 0.42 0.40 0.38 0.35 0.31 0.24 0.21 0.21 0.21 0.20 0.20 0.22 0.22 0.21 0.19 0.17
0.49 0.53 0.54 0.57 0.59 0.61 0.60 0.55 0.57 0.61 0.60 0.59 0.59 0.59 0.58 0.54 0.51 0.49 0.50 0.50 0.49 0.44 0.42 0.42 0.41 0.40 0.40 0.40 0.38 0.34 0.30 0.25 0.21 0.21 0.21 0.20 0.20 0.22 0.22 0.20 0.18 0.17 0.16
0.52 0.53 0.55 0.56 0.56 0.60 0.61 0.61 0.61 0.61 0.59 0.57 0.56 0.54 0.50 0.48 0.47 0.48 0.47 0.45 0.44 0.43 0.41 0.39 0.36 0.36 0.35 0.35 0.33 0.28 0.23 0.22 0.22 0.21 0.20 0.20 0.21 0.22 0.19 0.18 0.16 0.15 0.15
0.56 0.56 0.56 0.57 0.57 0.60 0.61 0.62 0.61 0.59 0.54 0.51 0.49 0.48 0.46 0.45 0.46 0.47 0.46 0.45 0.44 0.42 0.37 0.36 0.35 0.32 0.30 0.29 0.26 0.24 0.23 0.22 0.22 0.22 0.21 0.20 0.19 0.17 0.16 0.15 0.15 0.14 0.13
0.56 0.56 0.57 0.58 0.58 0.59 0.60 0.60 0.60 0.56 0.51 0.48 0.48 0.47 0.46 0.44 0.44 0.46 0.43 0.41 0.38 0.35 0.33 0.31 0.29 0.29 0.28 0.27 0.25 0.24 0.24 0.23 0.24 0.21 0.20 0.19 0.18 0.16 0.15 0.14 0.13 0.13 0.12

GFSMW_prec_pwat_042.txt.gz
Precipitable_Water
0.72 0.68 0.75 0.83 0.86 0.92 0.94 1.00 1.02 1.05 1.04 1.03 1.00 1.00 0.92 0.89 0.88 0.91 0.91 0.97 1.03 1.05 1.01 0.91 0.88 0.92 0.89 0.86 0.83 0.82 0.78 0.72 0.68 0.61 0.61 0.63 0.68 0.69 0.72 0.76 0.79 0.79 0.80
0.66 0.66 0.65 0.73 0.74 0.80 0.86 0.88 0.90 0.92 0.93 0.92 0.93 0.92 0.87 0.86 0.88 0.90 0.90 0.96 1.04 1.03 1.09 1.02 0.91 0.94 0.92 0.90 0.88 0.86 0.79 0.76 0.75 0.65 0.64 0.56 0.61 0.68 0.76 0.78 0.76 0.76 0.81
0.65 0.61 0.59 0.63 0.68 0.70 0.74 0.78 0.80 0.81 0.82 0.86 0.87 0.86 0.87 0.85 0.83 0.81 0.83 0.93 1.02 1.08 1.12 1.10 1.06 1.01 0.99 0.94 0.97 0.96 0.91 0.84 0.86 0.85 0.76 0.68 0.64 0.72 0.81 0.83 0.81 0.76 0.76
0.73 0.66 0.62 0.56 0.60 0.63 0.71 0.73 0.77 0.79 0.78 0.80 0.78 0.76 0.72 0.66 0.73 0.77 0.82 0.88 0.97 1.04 1.09 1.14 1.13 1.13 1.10 1.06 1.09 1.10 1.03 1.00 0.92 0.94 0.97 0.88 0.83 0.71 0.69 0.80 0.80 0.81 0.77
0.73 0.68 0.62 0.59 0.58 0.60 0.63 0.68 0.75 0.78 0.75 0.74 0.74 0.71 0.68 0.73 0.77 0.80 0.80 0.84 0.93 0.99 1.12 1.15 1.14 1.15 1.16 1.16 1.17 1.15 1.06 1.00 0.95 0.98 0.96 0.89 0.88 0.82 0.76 0.68 0.72 0.76 0.77
0.74 0.73 0.75 0.76 0.65 0.64 0.63 0.63 0.64 0.69 0.81 0.81 0.77 0.73 0.70 0.74 0.76 0.76 0.75 0.76 0.78 0.92 1.07 1.16 1.15 1.23 1.25 1.21 1.17 1.18 1.08 1.04 0.99 0.97 0.88 0.84 0.78 0.69 0.71 0.68 0.68 0.68 0.73
0.74 0.76 0.74 0.74 0.74 0.66 0.65 0.67 0.67 0.66 0.76 0.82 0.82 0.80 0.80 0.82 0.82 0.80 0.85 0.88 0.88 0.93 1.09 1.26 1.32 1.31 1.28 1.22 1.20 1.15 1.09 1.05 0.98 0.92 0.88 0.90 0.84 0.82 0.78 0.71 0.69 0.65 0.67
0.67 0.72 0.72 0.74 0.74 0.72 0.70 0.69 0.70 0.71 0.74 0.76 0.77 0.82 0.87 0.89 0.91 0.96 1.00 1.09 1.05 1.05 1.24 1.35 1.36 1.30 1.28 1.23 1.21 1.15 1.09 1.04 0.99 0.93 0.92 0.93 0.87 0.84 0.81 0.73 0.70 0.62 0.61
0.63 0.65 0.69 0.75 0.82 0.87 0.80 0.75 0.74 0.75 0.75 0.76 0.81 0.84 0.89 0.93 0.98 1.02 1.07 1.15 1.15 1.13 1.22 1.29 1.27 1.30 1.32 1.28 1.19 1.12 1.04 1.01 0.96 0.98 0.96 0.89 0.87 0.80 0.86 0.80 0.69 0.63 0.53
0.61 0.64 0.67 0.72 0.81 0.86 0.93 0.93 0.91 0.87 0.87 0.92 0.96 0.98 0.96 1.00 1.04 1.06 1.06 1.15 1.18 1.22 1.33 1.33 1.27 1.17 1.21 1.16 1.13 1.07 1.05 0.99 1.00 1.00 0.88 0.84 0.84 0.82 0.81 0.77 0.76 0.72 0.65
0.58 0.57 0.62 0.70 0.78 0.86 0.90 0.90 0.99 1.00 1.02 1.08 1.10 1.10 1.15 1.19 1.19 1.20 1.22 1.31 1.33 1.37 1.26 1.24 1.22 1.18 1.13 1.14 1.10 1.06 1.00 0.97 0.96 0.94 0.87 0.78 0.80 0.81 0.76 0.76 0.74 0.71 0.69
0.53 0.57 0.61 0.69 0.75 0.80 0.87 0.88 0.93 0.97 1.01 1.10 1.18 1.26 1.28 1.29 1.28 1.32 1.35 1.29 1.44 1.38 1.02 1.12 1.13 1.09 1.11 1.11 1.03 0.98 0.97 0.93 0.88 0.82 0.77 0.77 0.79 0.71 0.75 0.74 0.70 0.68 0.66
0.54 0.56 0.60 0.59 0.60 0.68 0.74 0.78 0.84 0.82 0.90 1.05 1.18 1.23 1.22 1.12 1.24 1.20 1.28 1.24 1.30 1.35 1.08 1.03 1.08 1.09 1.07 1.04 1.00 0.96 0.90 0.83 0.75 0.71 0.70 0.75 0.72 0.70 0.69 0.69 0.67 0.63 0.62
0.53 0.53 0.55 0.57 0.60 0.62 0.66 0.67 0.70 0.74 0.88 0.98 1.01 1.06 1.06 1.02 1.08 1.19 1.17 1.14 1.14 1.18 1.12 1.11 1.09 1.06 1.03 0.98 0.88 0.77 0.71 0.72 0.69 0.74 0.74 0.73 0.71 0.68 0.65 0.61 0.60 0.59 0.54
0.49 0.54 0.55 0.56 0.62 0.61 0.61 0.62 0.64 0.66 0.77 0.82 0.84 0.89 1.01 0.98 1.06 1.07 1.08 1.05 1.09 1.11 1.10 1.10 1.05 1.01 0.85 0.76 0.70 0.71 0.73 0.70 0.68 0.73 0.72 0.71 0.68 0.67 0.63 0.59 0.56 0.52 0.46
0.52 0.52 0.58 0.59 0.62 0.66 0.65 0.65 0.63 0.71 0.82 0.84 0.90 1.01 1.01 1.01 1.00 0.99 1.00 1.05 1.06 1.05 1.02 0.97 0.85 0.75 0.74 0.71 0.71 0.72 0.70 0.69 0.70 0.66 0.68 0.66 0.64 0.63 0.57 0.53 0.48 0.44 0.38
0.51 0.49 0.55 0.56 0.62 0.67 0.72 0.68 0.72 0.77 0.84 0.90 0.92 0.93 0.95 0.93 0.94 0.97 0.98 0.98 0.96 0.90 0.79 0.73 0.72 0.69 0.68 0.70 0.71 0.72 0.70 0.68 0.65 0.65 0.63 0.59 0.56 0.51 0.45 0.42 0.39 0.37 0.35
0.50 0.53 0.55 0.60 0.70 0.76 0.78 0.77 0.79 0.81 0.83 0.88 0.92 0.93 0.92 0.90 0.91 0.94 0.92 0.84 0.73 0.66 0.65 0.66 0.66 0.64 0.66 0.69 0.68 0.66 0.64 0.62 0.62 0.59 0.53 0.48 0.44 0.42 0.40 0.36 0.32 0.28 0.24
0.48 0.53 0.61 0.65 0.72 0.76 0.78 0.78 0.73 0.82 0.84 0.85 0.89 0.90 0.90 0.89 0.91 0.85 0.73 0.68 0.65 0.63 0.62 0.60 0.58 0.58 0.60 0.62 0.60 0.58 0.56 0.54 0.51 0.50 0.45 0.42 0.39 0.39 0.35 0.28 0.22 0.20 0.21
0.52 0.56 0.64 0.72 0.75 0.75 0.77 0.73 0.71 0.79 0.79 0.79 0.80 0.84 0.86 0.83 0.73 0.66 0.62 0.62 0.59 0.58 0.56 0.53 0.54 0.55 0.54 0.56 0.55 0.54 0.51 0.47 0.44 0.41 0.41 0.40 0.36 0.29 0.24 0.22 0.21 0.21 0.22
0.60 0.67 0.70 0.70 0.73 0.78 0.77 0.71 0.74 0.74 0.77 0.77 0.76 0.76 0.71 0.62 0.59 0.57 0.56 0.55 0.55 0.53 0.50 0.50 0.52 0.52 0.53 0.52 0.51 0.50 0.47 0.44 0.40 0.37 0.34 0.29 0.25 0.23 0.23 0.25 0.25 0.24 0.23
0.62 0.64 0.64 0.67 0.74 0.72 0.70 0.68 0.68 0.71 0.70 0.71 0.68 0.62 0.59 0.57 0.56 0.56 0.57 0.57 0.53 0.48 0.48 0.47 0.47 0.48 0.47 0.47 0.47 0.46 0.43 0.41 0.36 0.30 0.26 0.24 0.24 0.25 0.26 0.26 0.25 0.23 0.20
0.61 0.63 0.64 0.65 0.66 0.64 0.63 0.61 0.63 0.66 0.67 0.64 0.60 0.58 0.58 0.58 0.60 0.59 0.56 0.53 0.51 0.48 0.46 0.45 0.43 0.41 0.43 0.44 0.44 0.43 0.41 0.36 0.29 0.26 0.25 0.25 0.26 0.27 0.26 0.24 0.23 0.21 0.20
0.64 0.63 0.64 0.63 0.61 0.62 0.63 0.64 0.65 0.66 0.63 0.60 0.59 0.60 0.58 0.58 0.58 0.57 0.56 0.51 0.48 0.46 0.44 0.42 0.41 0.42 0.44 0.43 0.41 0.39 0.35 0.29 0.28 0.27 0.26 0.26 0.26 0.25 0.23 0.22 0.22 0.21 0.20
0.66 0.65 0.62 0.60 0.60 0.62 0.62 0.65 0.65 0.65 0.61 0.60 0.59 0.58 0.57 0.54 0.52 0.52 0.53 0.51 0.50 0.49 0.48 0.47 0.46 0.43 0.40 0.39 0.38 0.33 0.30 0.29 0.28 0.26 0.25 0.25 0.23 0.22 0.21 0.21 0.21 0.20 0.18
0.70 0.66 0.64 0.61 0.60 0.61 0.61 0.63 0.65 0.64 0.61 0.57 0.56 0.55 0.54 0.52 0.50 0.49 0.48 0.50 0.49 0.49 0.47 0.45 0.41 0.39 0.37 0.33 0.34 0.31 0.30 0.30 0.28 0.25 0.24 0.24 0.22 0.21 0.20 0.20 0.19 0.18 0.16

GFSMW_prec_pwat_045.txt.gz
Precipitable_Water
0.64 0.69 0.69 0.79 0.87 0.95 1.02 1.05 1.12 1.24 1.29 1.23 1.17 1.16 1.11 1.11 1.05 1.03 1.08 1.12 1.13 1.10 1.13 1.10 1.06 0.98 0.89 0.86 0.90 0.86 0.80 0.75 0.75 0.68 0.64 0.62 0.64 0.64 0.67 0.71 0.75 0.80 0.87
0.62 0.62 0.62 0.69 0.74 0.80 0.88 0.94 1.00 1.06 1.10 1.07 1.08 1.10 1.07 1.02 0.97 0.96 0.96 1.01 1.00 0.98 1.02 1.01 0.95 0.90 0.85 0.86 0.91 0.88 0.82 0.81 0.81 0.71 0.67 0.58 0.64 0.72 0.77 0.78 0.78 0.80 0.86
0.59 0.62 0.57 0.59 0.66 0.70 0.78 0.83 0.88 0.96 1.01 1.05 1.06 1.03 1.02 0.94 0.88 0.87 0.89 0.91 0.93 0.93 0.99 1.01 0.98 0.96 0.92 0.89 0.92 0.90 0.87 0.83 0.87 0.86 0.78 0.71 0.68 0.76 0.84 0.80 0.79 0.78 0.82
0.63 0.65 0.60 0.57 0.57 0.63 0.74 0.79 0.81 0.82 0.89 0.96 0.92 0.90 0.86 0.80 0.84 0.83 0.83 0.84 0.89 0.90 0.99 1.06 1.04 1.00 1.05 0.99 0.99 1.01 0.99 0.98 0.90 0.91 0.91 0.87 0.88 0.73 0.67 0.78 0.74 0.78 0.73
0.63 0.60 0.60 0.58 0.58 0.60 0.65 0.71 0.77 0.76 0.80 0.83 0.83 0.79 0.77 0.77 0.80 0.79 0.78 0.80 0.85 0.91 0.97 1.03 1.00 1.05 1.11 1.09 1.08 1.09 1.10 1.11 1.04 0.98 0.90 0.85 0.81 0.77 0.66 0.60 0.64 0.74 0.75
0.68 0.72 0.74 0.73 0.66 0.63 0.63 0.65 0.69 0.74 0.76 0.76 0.77 0.74 0.72 0.73 0.75 0.77 0.77 0.80 0.83 0.86 0.91 0.93 0.99 1.11 1.18 1.16 1.16 1.21 1.17 1.13 1.10 1.07 0.99 0.87 0.76 0.75 0.69 0.65 0.66 0.65 0.71
0.71 0.74 0.74 0.72 0.69 0.65 0.62 0.64 0.65 0.66 0.74 0.76 0.73 0.74 0.75 0.76 0.76 0.77 0.77 0.78 0.79 0.82 0.87 0.97 1.01 1.04 1.19 1.24 1.25 1.24 1.21 1.16 1.09 1.03 0.96 0.91 0.89 0.87 0.84 0.75 0.69 0.61 0.68
0.69 0.72 0.75 0.77 0.76 0.70 0.64 0.62 0.62 0.63 0.70 0.76 0.78 0.78 0.79 0.79 0.79 0.80 0.84 0.83 0.82 0.83 0.88 0.91 0.95 1.02 1.21 1.32 1.28 1.32 1.26 1.20 1.15 1.06 0.98 0.93 0.96 0.92 0.88 0.77 0.73 0.61 0.61
0.64 0.67 0.73 0.77 0.82 0.81 0.76 0.68 0.62 0.62 0.66 0.68 0.72 0.75 0.79 0.79 0.78 0.82 0.85 0.86 0.87 0.98 1.09 1.15 1.16 1.21 1.33 1.24 1.32 1.29 1.13 1.17 1.12 1.03 1.00 0.99 1.02 1.00 0.92 0.88 0.75 0.66 0.54
0.58 0.62 0.67 0.74 0.79 0.84 0.88 0.93 0.83 0.71 0.67 0.69 0.73 0.79 0.84 0.87 0.91 0.93 0.93 0.98 1.02 1.10 1.19 1.28 1.27 1.29 1.30 1.34 1.30 1.21 1.14 1.11 1.07 1.03 1.01 1.00 1.00 0.91 0.94 0.82 0.78 0.73 0.64
0.53 0.57 0.61 0.69 0.75 0.82 0.88 0.88 0.94 0.90 0.90 0.93 0.94 0.96 0.97 1.02 1.06 1.08 1.07 1.09 1.17 1.21 1.26 1.29 1.33 1.23 1.26 1.28 1.23 1.18 1.13 1.05 1.01 1.00 1.00 0.98 0.90 0.92 0.87 0.81 0.73 0.72 0.68
0.56 0.62 0.63 0.66 0.73 0.76 0.81 0.87 0.90 0.91 0.93 0.98 1.01 1.04 1.11 1.14 1.16 1.18 1.17 1.30 1.28 1.32 1.23 1.30 1.34 1.02 1.09 1.15 1.14 1.10 1.06 0.99 0.95 0.97 0.95 0.88 0.91 0.80 0.80 0.72 0.72 0.72 0.70
0.47 0.55 0.64 0.65 0.65 0.70 0.74 0.79 0.88 0.89 0.90 0.95 0.95 0.99 1.04 1.15 1.15 1.15 1.10 1.20 1.24 1.26 1.29 1.13 1.02 1.05 1.04 1.07 1.10 1.07 1.02 1.00 0.99 0.93 0.88 0.84 0.79 0.74 0.68 0.70 0.71 0.69 0.66
0.47 0.49 0.53 0.55 0.59 0.63 0.64 0.68 0.71 0.76 0.83 0.87 0.87 0.90 0.95 1.00 1.08 1.15 1.14 1.14 1.23 1.20 1.17 1.15 1.02 1.06 1.05 1.05 1.09 1.04 1.00 0.95 0.90 0.84 0.79 0.76 0.69 0.66 0.69 0.68 0.66 0.64 0.60
0.44 0.49 0.52 0.54 0.57 0.60 0.62 0.65 0.65 0.70 0.76 0.76 0.78 0.79 0.90 1.00 1.07 1.17 1.14 1.16 1.15 1.18 1.16 1.15 1.11 1.09 1.10 1.09 1.06 1.00 0.91 0.80 0.74 0.72 0.72 0.71 0.68 0.71 0.70 0.66 0.65 0.57 0.57
0.47 0.49 0.54 0.58 0.59 0.61 0.62 0.65 0.66 0.66 0.70 0.69 0.69 0.84 0.92 1.00 1.06 1.12 1.09 1.09 1.09 1.12 1.11 1.07 1.10 1.06 1.07 1.06 0.98 0.85 0.73 0.68 0.70 0.69 0.70 0.69 0.70 0.69 0.65 0.65 0.61 0.59 0.50
0.54 0.53 0.52 0.57 0.62 0.61 0.64 0.64 0.71 0.73 0.71 0.72 0.73 0.82 0.91 0.95 1.00 1.03 1.02 0.97 0.97 1.04 1.02 1.02 1.03 1.01 0.94 0.86 0.79 0.73 0.69 0.70 0.68 0.68 0.66 0.65 0.64 0.63 0.63 0.59 0.54 0.46 0.41
0.55 0.57 0.56 0.56 0.61 0.69 0.74 0.74 0.79 0.78 0.77 0.80 0.79 0.82 0.89 0.92 0.96 0.98 0.96 0.94 0.96 0.96 0.96 0.97 0.87 0.81 0.77 0.75 0.72 0.69 0.68 0.66 0.66 0.65 0.63 0.60 0.59 0.60 0.55 0.47 0.41 0.37 0.34
0.49 0.52 0.57 0.56 0.61 0.68 0.76 0.79 0.78 0.79 0.79 0.78 0.78 0.83 0.86 0.89 0.89 0.87 0.89 0.91 0.91 0.93 0.88 0.76 0.72 0.70 0.70 0.71 0.67 0.66 0.64 0.62 0.60 0.59 0.59 0.57 0.53 0.48 0.44 0.39 0.34 0.28 0.25
0.52 0.50 0.55 0.59 0.61 0.68 0.77 0.78 0.76 0.75 0.76 0.82 0.82 0.90 0.92 0.90 0.90 0.93 0.92 0.94 0.88 0.75 0.69 0.67 0.67 0.66 0.65 0.66 0.64 0.64 0.60 0.56 0.54 0.53 0.50 0.48 0.47 0.43 0.39 0.31 0.26 0.23 0.25
0.54 0.57 0.58 0.58 0.64 0.74 0.79 0.75 0.74 0.76 0.85 0.88 0.89 0.90 0.93 0.92 0.93 0.92 0.85 0.75 0.68 0.65 0.62 0.60 0.60 0.61 0.61 0.60 0.60 0.57 0.53 0.50 0.45 0.43 0.42 0.42 0.41 0.35 0.30 0.29 0.28 0.27 0.27
0.55 0.61 0.61 0.63 0.73 0.80 0.79 0.73 0.76 0.85 0.87 0.86 0.85 0.84 0.84 0.86 0.86 0.75 0.68 0.64 0.61 0.58 0.57 0.56 0.56 0.56 0.54 0.54 0.53 0.50 0.47 0.45 0.43 0.42 0.41 0.37 0.32 0.29 0.29 0.29 0.29 0.28 0.26
0.60 0.65 0.66 0.69 0.71 0.76 0.77 0.74 0.82 0.85 0.82 0.78 0.75 0.74 0.74 0.72 0.68 0.62 0.59 0.57 0.57 0.56 0.55 0.54 0.52 0.50 0.50 0.49 0.48 0.46 0.44 0.43 0.41 0.39 0.35 0.30 0.30 0.31 0.31 0.30 0.27 0.26 0.24
0.65 0.69 0.70 0.70 0.71 0.77 0.82 0.86 0.87 0.83 0.75 0.69 0.69 0.70 0.66 0.62 0.62 0.61 0.60 0.59 0.58 0.56 0.55 0.53 0.50 0.49 0.46 0.44 0.44 0.44 0.42 0.40 0.37 0.32 0.30 0.32 0.34 0.30 0.28 0.26 0.26 0.25 0.24
0.72 0.74 0.74 0.75 0.77 0.80 0.79 0.80 0.77 0.74 0.69 0.67 0.66 0.65 0.64 0.63 0.62 0.61 0.60 0.59 0.60 0.60 0.56 0.54 0.51 0.48 0.45 0.44 0.44 0.41 0.37 0.34 0.35 0.35 0.34 0.30 0.29 0.27 0.25 0.25 0.26 0.24 0.23
0.80 0.78 0.79 0.78 0.77 0.77 0.75 0.73 0.72 0.69 0.66 0.63 0.63 0.64 0.63 0.62 0.60 0.58 0.55 0.57 0.58 0.58 0.58 0.57 0.54 0.50 0.47 0.43 0.40 0.36 0.35 0.35 0.35 0.32 0.30 0.28 0.26 0.25 0.27 0.25 0.23 0.25 0.24

GFSMW_prec_pwat_048.txt.gz
Precipitable_Water
0.66 0.69 0.66 0.75 0.85 0.97 1.04 1.18 1.31 1.33 1.35 1.32 1.31 1.21 1.12 1.13 1.07 1.11 1.22 1.15 1.11 1.09 1.09 1.11 1.07 1.06 1.00 0.98 0.94 0.93 0.85 0.80 0.77 0.69 0.66 0.66 0.66 0.64 0.65 0.69 0.72 0.82 0.88
0.63 0.68 0.66 0.67 0.75 0.83 0.93 1.00 1.13 1.24 1.33 1.33 1.35 1.28 1.19 1.17 1.13 1.19 1.25 1.20 1.20 1.17 1.17 1.11 1.10 1.10 1.05 0.96 0.87 0.86 0.86 0.84 0.86 0.74 0.71 0.61 0.69 0.74 0.76 0.76 0.85 0.85 0.86
0.59 0.65 0.66 0.62 0.67 0.72 0.80 0.85 0.96 1.09 1.19 1.26 1.28 1.22 1.19 1.14 1.02 1.10 1.10 1.09 1.11 1.07 1.12 1.16 1.08 1.05 1.02 0.94 0.86 0.84 0.86 0.83 0.85 0.82 0.77 0.64 0.62 0.69 0.81 0.86 0.83 0.82 0.81
0.61 0.63 0.64 0.63 0.59 0.65 0.75 0.80 0.83 0.94 1.05 1.09 1.09 1.02 0.97 0.91 0.96 0.99 0.95 0.96 0.99 0.98 1.01 1.01 1.00 0.95 0.95 0.94 0.88 0.91 0.91 0.89 0.83 0.88 0.90 0.91 0.84 0.70 0.62 0.74 0.73 0.76 0.77
0.65 0.61 0.62 0.65 0.66 0.63 0.66 0.74 0.79 0.81 0.89 0.92 0.91 0.90 0.87 0.91 0.92 0.92 0.86 0.86 0.89 0.92 0.91 0.91 0.92 0.95 0.98 0.96 0.95 0.98 0.97 0.95 0.92 0.94 0.97 0.97 0.99 0.90 0.75 0.62 0.70 0.78 0.79
0.67 0.68 0.68 0.71 0.69 0.67 0.64 0.68 0.73 0.75 0.81 0.84 0.83 0.81 0.79 0.79 0.81 0.80 0.80 0.82 0.85 0.89 0.88 0.88 0.90 0.93 0.96 0.95 0.99 1.07 1.07 1.09 1.08 1.08 1.07 1.02 0.97 0.89 0.80 0.73 0.74 0.71 0.80
0.65 0.68 0.70 0.68 0.71 0.68 0.65 0.65 0.68 0.70 0.79 0.78 0.81 0.82 0.81 0.82 0.80 0.80 0.78 0.78 0.78 0.78 0.80 0.86 0.84 0.88 0.95 0.97 1.06 1.11 1.18 1.18 1.17 1.18 1.13 1.11 1.05 0.99 0.90 0.84 0.79 0.75 0.81
0.58 0.66 0.70 0.72 0.70 0.69 0.67 0.65 0.62 0.64 0.73 0.78 0.77 0.80 0.83 0.82 0.84 0.82 0.82 0.84 0.85 0.84 0.87 0.89 0.89 0.92 0.96 1.01 1.07 1.06 1.18 1.29 1.25 1.24 1.20 1.13 1.11 1.02 0.97 0.88 0.85 0.72 0.73
0.55 0.60 0.70 0.74 0.74 0.74 0.73 0.68 0.65 0.63 0.66 0.69 0.75 0.78 0.79 0.80 0.79 0.79 0.81 0.85 0.90 0.90 0.91 0.90 0.89 0.91 0.97 1.01 1.09 1.14 1.14 1.21 1.24 1.20 1.17 1.11 1.07 1.07 1.01 0.98 0.95 0.80 0.63
0.55 0.58 0.65 0.69 0.74 0.76 0.79 0.81 0.82 0.75 0.67 0.68 0.71 0.73 0.76 0.80 0.84 0.87 0.87 0.90 0.89 0.89 0.87 0.85 0.93 0.99 1.08 1.17 1.24 1.24 1.24 1.17 1.17 1.17 1.12 1.11 1.08 1.06 1.03 0.99 0.96 0.82 0.80
0.53 0.55 0.60 0.64 0.71 0.78 0.77 0.78 0.83 0.85 0.86 0.84 0.79 0.79 0.82 0.83 0.84 0.84 0.87 0.94 0.95 0.92 0.92 0.96 0.99 1.03 1.17 1.29 1.31 1.30 1.22 1.14 1.19 1.18 1.14 1.06 1.04 1.01 0.98 0.95 0.91 0.85 0.79
0.52 0.54 0.58 0.62 0.66 0.70 0.74 0.74 0.79 0.81 0.85 0.91 0.92 0.92 0.97 0.98 0.97 0.97 0.99 1.07 1.04 1.10 1.08 1.08 1.12 1.16 1.19 1.25 1.25 1.20 1.14 1.13 1.13 1.10 1.06 1.00 1.00 0.94 0.94 0.85 0.77 0.80 0.78
0.49 0.54 0.58 0.60 0.62 0.69 0.74 0.75 0.79 0.79 0.86 0.91 0.92 0.90 0.86 0.88 0.90 0.94 0.99 1.09 1.06 1.07 1.13 1.16 1.19 1.13 1.11 1.10 1.13 1.07 1.07 1.03 1.08 1.05 1.00 0.95 0.91 0.85 0.79 0.83 0.77 0.74 0.69
0.46 0.49 0.53 0.54 0.59 0.67 0.68 0.70 0.69 0.68 0.77 0.78 0.80 0.79 0.81 0.83 0.86 0.93 0.98 1.00 1.10 1.10 1.12 1.21 1.23 1.22 1.12 1.08 1.04 1.07 1.04 1.07 1.06 1.00 0.97 0.93 0.86 0.79 0.76 0.73 0.69 0.68 0.63
0.47 0.48 0.50 0.51 0.55 0.60 0.65 0.68 0.67 0.71 0.72 0.72 0.70 0.67 0.71 0.78 0.83 0.87 0.94 1.03 1.14 1.15 1.18 1.17 1.19 1.18 1.16 1.14 1.05 1.02 1.01 1.04 0.98 0.95 0.91 0.85 0.79 0.75 0.73 0.69 0.65 0.62 0.62
0.46 0.48 0.49 0.50 0.51 0.57 0.62 0.67 0.66 0.69 0.74 0.71 0.69 0.74 0.77 0.77 0.80 0.88 0.95 1.03 1.09 1.12 1.14 1.13 1.09 1.11 1.13 1.15 1.12 1.08 1.04 0.97 0.92 0.85 0.79 0.72 0.71 0.67 0.67 0.67 0.64 0.65 0.60
0.51 0.52 0.53 0.54 0.57 0.58 0.61 0.64 0.65 0.70 0.72 0.72 0.73 0.74 0.79 0.79 0.82 0.89 0.96 1.01 1.03 1.09 1.10 1.07 1.07 1.07 1.08 1.09 1.05 1.05 0.97 0.91 0.84 0.73 0.67 0.61 0.66 0.65 0.63 0.63 0.62 0.59 0.56
0.49 0.52 0.54 0.58 0.62 0.64 0.66 0.67 0.70 0.71 0.71 0.73 0.75 0.79 0.80 0.81 0.85 0.88 0.93 0.99 1.05 1.07 1.06 1.01 1.00 1.02 1.04 1.05 1.03 0.93 0.87 0.77 0.72 0.67 0.64 0.63 0.62 0.62 0.61 0.57 0.55 0.53 0.54
0.50 0.50 0.55 0.59 0.62 0.65 0.68 0.69 0.71 0.75 0.75 0.79 0.82 0.86 0.85 0.82 0.83 0.84 0.90 0.96 1.00 0.99 0.98 0.99 0.98 0.95 0.96 0.97 0.85 0.80 0.74 0.66 0.65 0.64 0.63 0.62 0.59 0.59 0.58 0.53 0.53 0.49 0.37
0.52 0.49 0.53 0.56 0.58 0.64 0.69 0.67 0.69 0.76 0.80 0.86 0.87 0.92 0.90 0.87 0.85 0.87 0.89 0.89 0.89 0.87 0.89 0.88 0.91 0.90 0.85 0.78 0.75 0.71 0.67 0.63 0.62 0.60 0.60 0.59 0.56 0.54 0.53 0.53 0.42 0.32 0.30
0.56 0.56 0.56 0.58 0.59 0.66 0.70 0.67 0.70 0.74 0.86 0.95 0.95 0.94 0.95 0.89 0.86 0.83 0.86 0.86 0.83 0.83 0.82 0.83 0.80 0.75 0.68 0.67 0.69 0.68 0.66 0.63 0.58 0.55 0.52 0.51 0.52 0.51 0.47 0.39 0.33 0.29 0.30
0.55 0.61 0.60 0.60 0.65 0.70 0.71 0.71 0.72 0.82 0.93 0.95 0.94 0.93 0.95 0.88 0.82 0.78 0.78 0.82 0.83 0.81 0.76 0.69 0.63 0.61 0.63 0.64 0.65 0.65 0.64 0.61 0.56 0.52 0.50 0.48 0.45 0.41 0.38 0.32 0.31 0.32 0.30
0.60 0.64 0.65 0.67 0.71 0.75 0.80 0.79 0.84 0.92 0.92 0.92 0.91 0.93 0.93 0.86 0.82 0.78 0.78 0.78 0.75 0.67 0.62 0.58 0.56 0.56 0.59 0.61 0.61 0.60 0.58 0.55 0.51 0.47 0.44 0.43 0.40 0.36 0.32 0.32 0.31 0.33 0.32
0.68 0.69 0.69 0.70 0.73 0.81 0.86 0.89 0.90 0.95 0.93 0.93 0.92 0.88 0.80 0.76 0.77 0.77 0.77 0.70 0.64 0.60 0.58 0.56 0.55 0.56 0.56 0.55 0.55 0.54 0.51 0.49 0.46 0.44 0.42 0.38 0.34 0.32 0.33 0.35 0.35 0.33 0.30
0.71 0.75 0.76 0.77 0.78 0.84 0.85 0.90 0.92 0.92 0.90 0.84 0.78 0.75 0.73 0.71 0.69 0.67 0.64 0.63 0.64 0.64 0.61 0.60 0.59 0.56 0.53 0.53 0.52 0.50 0.48 0.46 0.44 0.40 0.36 0.33 0.34 0.36 0.33 0.31 0.30 0.29 0.27
0.74 0.74 0.76 0.79 0.80 0.84 0.84 0.86 0.88 0.86 0.80 0.73 0.71 0.70 0.69 0.68 0.67 0.66 0.65 0.68 0.68 0.68 0.66 0.64 0.62 0.59 0.57 0.54 0.52 0.50 0.47 0.44 0.39 0.35 0.32 0.32 0.33 0.32 0.31 0.29 0.29 0.29 0.29

GFSMW_prec_pwat_051.txt.gz
Precipitable_Water
0.65 0.68 0.68 0.76 0.85 0.96 1.08 1.26 1.37 1.36 1.39 1.34 1.32 1.29 1.24 1.24 1.26 1.24 1.27 1.24 1.14 1.09 1.06 1.04 1.03 1.03 1.00 1.03 1.03 0.97 0.92 0.81 0.78 0.67 0.65 0.69 0.74 0.71 0.76 0.79 0.75 0.74 0.81
0.62 0.66 0.69 0.67 0.74 0.83 0.94 1.05 1.17 1.33 1.36 1.36 1.36 1.31 1.27 1.24 1.24 1.22 1.23 1.23 1.14 1.10 1.08 1.05 1.05 1.06 1.03 1.04 1.02 0.93 0.86 0.88 0.84 0.74 0.72 0.67 0.71 0.77 0.82 0.80 0.82 0.83 0.90
0.62 0.63 0.67 0.66 0.65 0.72 0.82 0.91 1.04 1.18 1.32 1.34 1.34 1.29 1.27 1.26 1.21 1.18 1.18 1.18 1.15 1.13 1.11 1.10 1.14 1.14 1.10 1.01 1.01 0.95 0.82 0.79 0.86 0.88 0.82 0.67 0.64 0.72 0.79 0.80 0.77 0.82 0.84
0.70 0.65 0.63 0.66 0.63 0.64 0.76 0.81 0.91 1.07 1.20 1.27 1.27 1.21 1.12 1.09 1.14 1.08 1.11 1.13 1.20 1.19 1.16 1.17 1.16 1.11 1.14 1.08 1.04 1.02 0.90 0.86 0.79 0.87 0.89 0.89 0.86 0.75 0.72 0.88 0.83 0.81 0.76
0.71 0.66 0.61 0.63 0.69 0.64 0.66 0.76 0.81 0.89 1.04 1.12 1.10 1.12 1.04 1.02 1.02 0.97 0.94 0.96 1.07 1.07 1.10 1.08 1.09 1.08 1.07 1.06 1.00 0.95 0.94 0.90 0.87 0.86 0.87 0.87 0.88 0.92 0.85 0.84 0.88 0.91 0.85
0.69 0.72 0.73 0.68 0.67 0.68 0.62 0.68 0.73 0.77 0.87 0.95 0.99 1.01 0.99 0.95 0.90 0.91 0.86 0.92 1.02 0.98 1.01 1.01 1.00 1.00 0.97 0.93 0.96 0.98 1.01 0.98 0.97 0.98 0.98 0.92 0.89 0.91 0.92 0.90 0.94 0.88 0.90
0.63 0.70 0.71 0.66 0.66 0.67 0.63 0.63 0.68 0.69 0.78 0.83 0.87 0.92 0.93 0.91 0.86 0.85 0.85 0.85 0.89 0.91 0.91 0.94 0.93 0.92 0.93 0.89 0.91 0.95 0.98 1.00 0.97 1.03 1.04 1.09 1.06 1.07 1.05 0.98 0.92 0.88 0.87
0.57 0.65 0.70 0.74 0.71 0.68 0.68 0.65 0.63 0.66 0.73 0.78 0.81 0.86 0.89 0.90 0.89 0.89 0.86 0.86 0.89 0.89 0.92 0.90 0.91 0.91 0.91 0.92 0.93 0.92 0.96 1.01 1.02 1.06 1.09 1.15 1.20 1.20 1.14 1.06 0.95 0.86 0.88
0.50 0.59 0.69 0.73 0.76 0.74 0.70 0.65 0.64 0.63 0.67 0.72 0.76 0.79 0.83 0.83 0.83 0.88 0.90 0.90 0.92 0.93 0.94 0.92 0.90 0.92 0.93 0.94 0.96 0.93 0.95 1.02 1.04 1.09 1.14 1.07 1.15 1.19 1.17 1.10 1.08 0.98 0.78
0.51 0.58 0.66 0.70 0.76 0.80 0.81 0.81 0.76 0.65 0.64 0.69 0.72 0.74 0.77 0.81 0.85 0.87 0.86 0.88 0.91 0.93 0.95 0.96 0.96 0.96 0.98 0.98 1.00 0.99 1.03 1.04 1.08 1.13 1.20 1.18 1.16 1.18 1.15 1.13 1.09 1.03 0.93
0.52 0.60 0.63 0.70 0.75 0.82 0.83 0.82 0.83 0.82 0.83 0.78 0.72 0.73 0.75 0.79 0.82 0.81 0.83 0.84 0.87 0.89 0.89 0.89 0.90 0.89 0.90 0.93 0.96 0.99 1.00 1.08 1.15 1.17 1.19 1.15 1.18 1.14 1.16 1.13 1.04 0.98 0.98
0.51 0.58 0.63 0.68 0.70 0.74 0.78 0.76 0.80 0.81 0.84 0.88 0.90 0.87 0.87 0.86 0.86 0.88 0.90 0.94 0.93 0.94 1.00 1.01 0.97 0.99 0.97 0.98 0.96 0.97 1.12 1.19 1.15 1.16 1.17 1.15 1.13 1.10 1.07 1.05 1.00 0.93 0.91
0.46 0.55 0.59 0.60 0.64 0.67 0.71 0.74 0.79 0.82 0.87 0.89 0.90 0.92 0.93 0.93 0.91 0.89 0.85 0.89 0.92 0.92 1.00 1.06 1.02 1.08 1.05 1.03 1.07 1.12 1.14 1.19 1.15 1.12 1.08 1.04 1.10 1.06 1.00 0.97 0.91 0.84 0.79
0.45 0.47 0.54 0.59 0.62 0.68 0.70 0.72 0.77 0.81 0.82 0.85 0.86 0.87 0.87 0.86 0.83 0.87 0.88 0.88 0.89 0.87 0.94 1.04 1.06 1.06 1.10 1.09 1.12 1.14 1.14 1.15 1.09 1.08 1.07 1.09 1.07 1.03 0.97 0.92 0.87 0.80 0.74
0.48 0.45 0.47 0.53 0.59 0.63 0.66 0.73 0.73 0.74 0.72 0.69 0.71 0.69 0.73 0.75 0.76 0.77 0.81 0.85 0.87 0.88 0.93 1.00 1.09 1.10 1.12 1.12 1.11 1.15 1.11 1.09 1.07 1.06 1.05 1.06 1.04 1.01 0.93 0.84 0.76 0.72 0.67
0.50 0.50 0.49 0.53 0.57 0.60 0.63 0.66 0.69 0.72 0.74 0.70 0.67 0.72 0.71 0.75 0.75 0.76 0.78 0.82 0.85 0.86 0.93 0.97 1.06 1.10 1.14 1.16 1.16 1.17 1.17 1.13 1.02 1.00 1.00 1.02 0.95 0.90 0.87 0.78 0.72 0.67 0.61
0.53 0.53 0.53 0.52 0.53 0.56 0.60 0.62 0.66 0.75 0.75 0.70 0.71 0.71 0.74 0.73 0.75 0.80 0.82 0.80 0.86 0.92 0.95 1.01 1.07 1.08 1.12 1.15 1.16 1.15 1.12 1.09 1.06 1.00 0.96 0.91 0.88 0.83 0.75 0.66 0.63 0.61 0.58
0.53 0.55 0.55 0.55 0.57 0.60 0.63 0.65 0.70 0.72 0.75 0.73 0.72 0.75 0.76 0.75 0.79 0.84 0.83 0.84 0.91 0.94 0.97 1.02 1.05 1.06 1.08 1.11 1.08 1.05 1.05 1.01 0.98 0.97 0.91 0.85 0.78 0.71 0.66 0.61 0.58 0.55 0.55
0.56 0.58 0.59 0.56 0.58 0.57 0.60 0.67 0.73 0.74 0.74 0.72 0.73 0.78 0.81 0.83 0.84 0.83 0.86 0.86 0.88 0.91 0.94 0.97 0.98 1.00 1.01 1.01 0.99 0.97 0.94 0.90 0.90 0.87 0.81 0.76 0.68 0.65 0.62 0.58 0.54 0.53 0.53
0.62 0.62 0.60 0.57 0.58 0.57 0.67 0.67 0.67 0.71 0.71 0.72 0.77 0.84 0.90 0.92 0.91 0.90 0.93 0.89 0.85 0.83 0.86 0.87 0.90 0.91 0.89 0.90 0.91 0.91 0.89 0.86 0.80 0.74 0.70 0.66 0.65 0.64 0.62 0.57 0.53 0.51 0.50
0.58 0.60 0.61 0.59 0.60 0.63 0.65 0.63 0.70 0.71 0.79 0.83 0.87 0.90 0.96 1.00 0.99 0.97 0.96 0.91 0.83 0.80 0.78 0.80 0.81 0.82 0.85 0.86 0.87 0.88 0.85 0.76 0.68 0.63 0.62 0.62 0.63 0.62 0.59 0.56 0.53 0.49 0.45
0.62 0.63 0.61 0.61 0.70 0.71 0.68 0.68 0.69 0.78 0.84 0.88 0.92 0.96 1.03 1.03 0.99 0.95 0.93 0.91 0.83 0.75 0.74 0.75 0.74 0.77 0.81 0.82 0.82 0.78 0.73 0.67 0.63 0.60 0.59 0.60 0.61 0.59 0.56 0.52 0.48 0.40 0.34
0.68 0.70 0.66 0.63 0.69 0.73 0.73 0.68 0.74 0.82 0.85 0.88 0.91 0.98 1.02 0.98 0.96 0.91 0.86 0.82 0.79 0.74 0.74 0.74 0.74 0.75 0.76 0.71 0.67 0.64 0.63 0.62 0.59 0.58 0.59 0.59 0.57 0.53 0.48 0.42 0.37 0.33 0.34
0.74 0.77 0.75 0.70 0.68 0.75 0.80 0.83 0.85 0.91 0.94 0.95 0.94 0.93 0.92 0.90 0.91 0.90 0.85 0.79 0.76 0.74 0.73 0.73 0.71 0.65 0.61 0.60 0.61 0.61 0.60 0.59 0.59 0.57 0.55 0.53 0.49 0.45 0.40 0.38 0.39 0.38 0.37
0.81 0.81 0.81 0.78 0.75 0.82 0.84 0.88 0.92 0.94 0.90 0.89 0.87 0.86 0.87 0.86 0.83 0.80 0.77 0.75 0.76 0.77 0.73 0.69 0.66 0.63 0.60 0.60 0.60 0.59 0.58 0.57 0.56 0.54 0.50 0.46 0.42 0.38 0.36 0.35 0.36 0.36 0.34
0.79 0.78 0.79 0.79 0.82 0.86 0.86 0.87 0.90 0.92 0.92 0.86 0.83 0.83 0.82 0.77 0.74 0.72 0.69 0.71 0.72 0.71 0.71 0.69 0.67 0.65 0.64 0.62 0.60 0.59 0.57 0.54 0.51 0.46 0.41 0.38 0.38 0.37 0.37 0.36 0.35 0.35 0.33

GFSMW_prec_pwat_054.txt.gz
Precipitable_Water
0.74 0.67 0.66 0.69 0.80 0.90 1.03 1.13 1.30 1.36 1.36 1.33 1.31 1.31 1.27 1.28 1.24 1.24 1.27 1.31 1.18 1.16 1.11 1.08 1.11 1.09 1.07 1.05 1.06 1.03 0.95 0.85 0.79 0.69 0.69 0.66 0.70 0.71 0.73 0.79 0.85 0.85 0.89
0.72 0.65 0.65 0.65 0.71 0.80 0.90 1.00 1.11 1.26 1.35 1.34 1.34 1.34 1.31 1.28 1.26 1.25 1.26 1.30 1.25 1.21 1.13 1.08 1.07 1.05 1.07 1.09 1.07 1.04 0.96 0.95 0.92 0.75 0.75 0.65 0.67 0.72 0.79 0.88 0.90 0.83 0.84
0.65 0.65 0.62 0.65 0.66 0.72 0.81 0.92 1.03 1.16 1.32 1.38 1.37 1.36 1.37 1.32 1.25 1.21 1.21 1.26 1.32 1.22 1.15 1.12 1.11 1.08 1.07 1.06 1.09 1.08 1.01 0.92 0.92 0.90 0.80 0.66 0.60 0.77 0.84 0.85 0.84 0.81 0.81
0.70 0.70 0.64 0.63 0.64 0.67 0.79 0.84 0.98 1.07 1.17 1.33 1.30 1.28 1.23 1.18 1.21 1.20 1.17 1.22 1.30 1.23 1.17 1.14 1.14 1.13 1.12 1.08 1.09 1.09 1.03 1.03 0.88 0.84 0.88 0.87 0.86 0.75 0.74 0.86 0.87 0.89 0.91
0.66 0.71 0.67 0.62 0.67 0.66 0.70 0.78 0.85 0.98 1.08 1.15 1.19 1.20 1.17 1.20 1.21 1.22 1.18 1.22 1.22 1.22 1.17 1.16 1.17 1.16 1.19 1.12 1.13 1.08 1.06 1.06 1.02 0.93 0.84 0.84 0.88 0.89 0.79 0.74 0.85 0.94 1.00
0.63 0.73 0.78 0.73 0.66 0.69 0.67 0.72 0.76 0.83 0.96 1.01 1.07 1.05 1.05 1.05 1.05 1.08 1.07 1.08 1.11 1.15 1.12 1.14 1.17 1.18 1.16 1.10 1.11 1.13 1.07 1.03 1.01 1.00 1.00 0.91 0.85 0.83 0.82 0.77 0.83 0.88 0.97
0.61 0.69 0.74 0.74 0.66 0.66 0.66 0.65 0.70 0.72 0.84 0.92 0.97 0.97 0.97 0.99 0.98 0.98 0.97 0.94 0.97 0.99 1.03 1.08 1.07 1.07 1.09 1.10 1.11 1.12 1.05 1.01 0.99 1.00 1.01 1.01 0.97 0.99 0.98 0.97 0.92 0.94 1.05
0.57 0.61 0.71 0.78 0.75 0.67 0.69 0.63 0.63 0.70 0.75 0.84 0.90 0.97 0.96 0.96 0.93 0.93 0.91 0.88 0.87 0.91 0.98 0.99 1.01 1.01 1.01 1.03 1.04 1.01 0.99 0.97 0.95 0.96 1.00 1.01 1.01 1.00 0.96 0.96 0.96 0.90 0.97
0.53 0.58 0.65 0.74 0.79 0.76 0.67 0.66 0.61 0.64 0.73 0.76 0.84 0.88 0.93 0.93 0.92 0.92 0.91 0.88 0.85 0.86 0.89 0.94 0.96 0.95 0.96 0.98 0.99 0.96 0.94 0.96 0.98 0.95 0.96 0.98 1.02 1.06 1.05 1.10 1.12 0.98 0.86
0.46 0.54 0.63 0.70 0.79 0.82 0.81 0.75 0.72 0.65 0.68 0.75 0.79 0.82 0.87 0.93 0.94 0.94 0.90 0.89 0.90 0.91 0.90 0.93 1.00 0.99 0.98 0.97 0.97 0.96 0.96 0.97 1.01 1.01 1.02 1.02 1.08 1.09 1.12 1.12 1.13 1.10 0.98
0.51 0.58 0.63 0.72 0.77 0.83 0.85 0.83 0.79 0.73 0.70 0.71 0.76 0.81 0.83 0.87 0.91 0.91 0.93 0.93 0.94 0.96 0.97 0.96 0.96 0.99 0.97 1.01 1.02 1.03 1.01 0.98 1.01 1.07 1.03 1.02 1.10 1.13 1.12 1.17 1.14 1.10 1.05
0.51 0.58 0.66 0.73 0.74 0.79 0.84 0.85 0.86 0.85 0.83 0.80 0.77 0.76 0.82 0.84 0.83 0.83 0.86 0.92 0.93 0.97 0.97 0.96 0.95 0.98 1.04 1.02 0.99 0.98 1.00 0.97 0.96 0.96 0.97 0.99 1.14 1.14 1.16 1.13 1.09 1.07 1.07
0.50 0.52 0.63 0.69 0.72 0.76 0.79 0.82 0.85 0.83 0.88 0.91 0.92 0.90 0.87 0.83 0.82 0.84 0.88 0.93 0.95 0.96 0.98 0.94 0.93 0.96 0.99 1.05 1.04 1.02 1.09 1.10 1.01 1.04 1.06 1.09 1.15 1.05 1.10 1.09 1.07 1.07 1.06
0.48 0.49 0.53 0.63 0.71 0.74 0.75 0.74 0.79 0.84 0.87 0.91 0.92 0.92 0.93 0.93 0.94 0.98 0.97 0.93 0.90 0.88 0.88 0.88 0.88 0.93 0.97 1.06 1.07 1.08 1.11 1.12 1.06 1.10 1.16 1.17 1.09 1.02 1.02 1.05 1.05 1.02 0.96
0.50 0.52 0.51 0.53 0.61 0.71 0.75 0.77 0.81 0.82 0.87 0.87 0.87 0.85 0.91 0.95 0.98 0.94 0.94 0.93 0.90 0.89 0.91 0.88 0.89 0.93 0.96 1.02 1.11 1.13 1.11 1.10 1.12 1.16 1.17 1.15 1.09 1.08 1.09 1.04 1.00 0.95 0.88
0.52 0.55 0.55 0.54 0.54 0.60 0.70 0.76 0.78 0.79 0.84 0.81 0.76 0.79 0.80 0.84 0.84 0.82 0.82 0.86 0.86 0.87 0.88 0.87 0.87 0.90 0.97 1.01 1.08 1.14 1.14 1.12 1.09 1.10 1.14 1.10 1.12 1.09 1.05 1.04 1.00 0.96 0.85
0.54 0.55 0.57 0.59 0.58 0.60 0.66 0.68 0.74 0.83 0.80 0.77 0.77 0.78 0.78 0.77 0.77 0.81 0.83 0.82 0.83 0.88 0.85 0.84 0.89 0.91 0.99 1.05 1.11 1.14 1.16 1.15 1.15 1.13 1.11 1.07 1.08 1.05 1.01 0.95 0.94 0.88 0.83
0.56 0.60 0.62 0.61 0.62 0.60 0.60 0.67 0.72 0.76 0.78 0.77 0.78 0.81 0.79 0.77 0.80 0.80 0.81 0.83 0.86 0.86 0.89 0.89 0.93 0.96 1.02 1.09 1.13 1.15 1.13 1.11 1.10 1.08 1.06 1.02 0.99 0.98 0.93 0.88 0.82 0.76 0.73
0.59 0.59 0.62 0.64 0.65 0.62 0.62 0.61 0.66 0.73 0.77 0.76 0.76 0.81 0.83 0.81 0.82 0.82 0.86 0.89 0.91 0.92 0.92 0.95 0.94 0.96 0.98 1.04 1.05 1.05 1.03 0.99 0.96 0.96 0.95 0.92 0.92 0.89 0.86 0.84 0.72 0.70 0.63
0.66 0.62 0.61 0.63 0.62 0.62 0.63 0.62 0.61 0.68 0.72 0.78 0.83 0.87 0.89 0.87 0.87 0.89 0.90 0.91 0.97 0.94 0.93 0.90 0.89 0.90 0.89 0.93 0.96 0.98 0.95 0.90 0.87 0.87 0.88 0.87 0.86 0.83 0.78 0.71 0.66 0.58 0.58
0.67 0.70 0.69 0.66 0.67 0.67 0.67 0.62 0.62 0.62 0.72 0.81 0.86 0.90 0.95 0.95 0.96 0.96 0.95 0.95 0.97 0.95 0.92 0.91 0.90 0.88 0.85 0.85 0.87 0.89 0.88 0.86 0.83 0.81 0.80 0.79 0.80 0.77 0.72 0.64 0.60 0.60 0.57
0.67 0.71 0.72 0.72 0.73 0.75 0.74 0.66 0.66 0.78 0.83 0.83 0.82 0.86 0.89 0.93 0.94 0.94 0.96 1.02 1.02 0.95 0.89 0.87 0.84 0.82 0.82 0.80 0.80 0.82 0.82 0.82 0.78 0.75 0.75 0.72 0.74 0.69 0.63 0.62 0.59 0.55 0.52
0.68 0.73 0.73 0.74 0.75 0.73 0.77 0.73 0.73 0.79 0.81 0.80 0.80 0.83 0.87 0.92 0.96 0.97 0.99 0.97 0.92 0.92 0.84 0.80 0.79 0.77 0.74 0.73 0.74 0.77 0.77 0.78 0.77 0.75 0.71 0.65 0.63 0.60 0.58 0.56 0.52 0.49 0.45
0.68 0.73 0.75 0.74 0.73 0.72 0.73 0.76 0.78 0.82 0.82 0.79 0.81 0.84 0.88 0.91 0.96 0.98 0.97 0.94 0.89 0.86 0.83 0.81 0.75 0.72 0.71 0.70 0.70 0.74 0.75 0.70 0.62 0.62 0.62 0.60 0.58 0.57 0.54 0.51 0.48 0.45 0.43
0.69 0.73 0.73 0.77 0.78 0.78 0.78 0.80 0.81 0.84 0.84 0.83 0.84 0.85 0.88 0.89 0.91 0.92 0.90 0.87 0.85 0.83 0.81 0.78 0.73 0.69 0.67 0.69 0.71 0.69 0.63 0.61 0.61 0.60 0.58 0.55 0.52 0.49 0.47 0.44 0.42 0.41 0.41
0.70 0.72 0.71 0.77 0.81 0.79 0.82 0.86 0.89 0.89 0.89 0.88 0.87 0.85 0.85 0.83 0.83 0.81 0.79 0.82 0.80 0.80 0.79 0.75 0.71 0.68 0.67 0.66 0.65 0.62 0.61 0.59 0.58 0.54 0.50 0.47 0.46 0.44 0.43 0.41 0.40 0.39 0.37

GFSMW_prec_pwat_060.txt.gz
Precipitable_Water
0.81 0.82 0.83 0.77 0.76 0.77 0.79 0.87 0.97 1.09 1.20 1.26 1.24 1.28 1.28 1.37 1.40 1.41 1.37 1.38 1.26 1.24 1.23 1.19 1.16 1.09 1.07 1.00 1.02 0.98 0.96 0.96 0.95 0.92 0.89 0.84 0.84 0.81 0.77 0.80 0.82 0.83 0.88
0.79 0.78 0.80 0.75 0.69 0.71 0.76 0.83 0.92 1.01 1.09 1.24 1.28 1.31 1.33 1.38 1.39 1.40 1.31 1.29 1.19 1.23 1.18 1.16 1.05 1.06 1.04 0.98 0.99 0.97 0.95 0.94 0.95 0.85 0.81 0.68 0.71 0.74 0.76 0.76 0.73 0.73 0.82
0.75 0.74 0.77 0.78 0.72 0.67 0.72 0.78 0.87 0.96 1.07 1.22 1.30 1.32 1.34 1.33 1.29 1.31 1.23 1.19 1.22 1.20 1.16 1.09 1.01 1.01 1.04 1.01 1.05 1.00 0.96 0.88 0.91 0.91 0.78 0.69 0.65 0.73 0.83 0.81 0.79 0.78 0.81
0.74 0.78 0.75 0.80 0.74 0.67 0.71 0.77 0.84 0.91 1.04 1.16 1.21 1.23 1.19 1.16 1.19 1.22 1.22 1.21 1.22 1.16 1.13 1.14 1.08 1.00 1.02 1.06 1.14 1.13 1.07 1.03 0.90 0.91 0.88 0.92 0.93 0.84 0.84 0.90 0.89 0.90 0.86
0.61 0.75 0.75 0.80 0.85 0.76 0.67 0.72 0.80 0.85 0.97 1.05 1.12 1.14 1.14 1.19 1.16 1.21 1.21 1.20 1.21 1.22 1.18 1.15 1.16 1.05 1.01 1.12 1.25 1.19 1.12 1.10 1.07 1.00 0.93 0.87 0.89 0.93 0.85 0.78 0.90 0.99 0.94
0.58 0.74 0.82 0.83 0.86 0.87 0.73 0.69 0.72 0.78 0.89 0.97 1.04 1.06 1.06 1.07 1.07 1.10 1.10 1.14 1.17 1.22 1.19 1.13 1.14 1.21 1.17 1.10 1.20 1.19 1.12 1.08 1.07 1.09 1.08 0.96 0.85 0.78 0.76 0.74 0.78 0.81 0.90
0.59 0.70 0.79 0.78 0.83 0.86 0.80 0.70 0.70 0.72 0.82 0.90 0.97 1.03 1.07 1.04 1.03 1.04 1.04 1.05 1.10 1.12 1.12 1.12 1.09 1.12 1.15 1.21 1.17 1.14 1.09 1.10 1.08 1.06 1.05 1.03 0.99 0.99 0.99 0.95 0.88 0.84 0.94
0.60 0.64 0.75 0.77 0.82 0.88 0.88 0.77 0.71 0.67 0.76 0.82 0.89 0.98 1.02 1.04 1.03 1.03 1.02 0.98 0.98 1.06 1.10 1.10 1.06 1.07 1.20 1.19 1.19 1.11 1.08 1.08 1.09 1.07 1.12 1.10 1.07 1.04 1.00 0.93 0.90 0.82 0.87
0.54 0.61 0.72 0.77 0.80 0.86 0.90 0.88 0.74 0.70 0.71 0.76 0.83 0.89 0.96 0.97 0.97 1.01 1.01 0.98 0.97 0.99 1.09 1.08 1.04 1.08 1.14 1.17 1.10 1.01 1.02 1.03 1.07 1.06 1.08 1.06 1.08 1.07 1.06 1.03 0.94 0.82 0.70
0.57 0.68 0.73 0.80 0.81 0.87 0.92 0.96 0.87 0.74 0.75 0.76 0.78 0.82 0.88 0.94 0.95 0.97 0.96 0.96 0.99 0.97 1.00 1.01 1.01 1.07 1.13 1.15 1.08 1.04 1.04 1.01 1.03 1.08 1.08 1.06 1.05 1.06 1.05 0.99 0.96 0.97 0.93
0.58 0.64 0.73 0.78 0.83 0.87 0.91 0.93 0.94 0.83 0.78 0.78 0.77 0.76 0.81 0.88 0.94 0.92 0.93 0.95 0.97 0.97 0.97 0.98 0.99 1.04 1.11 1.14 1.10 1.08 1.06 1.03 1.04 1.07 1.05 1.05 1.08 1.04 1.06 1.07 1.05 1.00 0.99
0.60 0.63 0.60 0.70 0.79 0.87 0.92 0.94 0.97 0.93 0.85 0.83 0.82 0.78 0.78 0.83 0.85 0.88 0.91 0.95 0.94 0.98 0.96 0.96 0.98 1.00 0.98 1.01 1.01 1.01 1.02 1.01 1.00 1.03 1.04 1.04 1.08 1.06 1.08 1.10 1.10 1.11 1.08
0.61 0.61 0.62 0.71 0.75 0.85 0.92 0.96 0.98 0.99 0.95 0.90 0.86 0.83 0.79 0.77 0.76 0.78 0.85 0.90 0.91 0.94 0.96 0.95 0.92 0.92 0.95 0.95 0.95 0.95 0.95 0.95 0.96 0.96 0.96 0.99 1.05 1.04 1.06 1.07 1.08 1.16 1.14
0.59 0.63 0.63 0.67 0.72 0.87 0.88 0.90 0.97 1.01 1.04 0.99 0.92 0.88 0.85 0.80 0.77 0.82 0.85 0.87 0.90 0.89 0.92 0.95 0.96 0.96 0.95 0.96 0.94 0.93 0.91 0.91 0.92 0.95 0.96 0.95 1.00 1.04 1.06 1.11 1.11 1.17 1.14
0.58 0.65 0.66 0.68 0.72 0.72 0.75 0.92 0.98 0.99 1.02 1.03 1.00 0.89 0.96 0.98 0.96 0.93 0.91 0.93 0.95 0.97 0.98 0.97 0.98 0.99 0.97 0.94 0.91 0.91 0.91 0.91 0.91 0.94 0.95 0.97 1.02 1.05 1.08 1.12 1.12 1.12 1.05
0.65 0.67 0.66 0.67 0.70 0.71 0.74 0.77 0.83 1.01 1.03 1.01 0.98 1.01 1.01 1.01 1.01 1.02 1.03 1.05 1.02 1.00 1.01 0.99 0.98 0.97 0.96 0.94 0.91 0.93 0.92 0.92 0.90 0.89 0.95 0.99 1.01 1.02 1.06 1.13 1.18 1.18 1.13
0.58 0.60 0.61 0.64 0.68 0.72 0.75 0.77 0.80 0.80 0.88 1.01 1.00 1.01 1.03 1.02 1.01 1.04 1.07 1.04 1.03 1.06 1.03 1.02 1.04 1.01 1.02 0.99 0.99 1.01 1.01 0.98 0.96 0.93 0.94 0.96 1.01 1.05 1.07 1.11 1.15 1.15 1.13
0.53 0.53 0.55 0.55 0.62 0.69 0.74 0.77 0.80 0.83 0.80 0.80 0.94 1.01 1.01 1.00 1.02 1.05 1.04 1.05 1.04 1.01 1.01 1.02 1.04 1.04 1.00 1.02 1.02 1.04 1.04 1.02 1.02 1.03 1.04 1.03 1.00 1.03 1.06 1.06 1.02 0.99 1.00
0.52 0.50 0.52 0.51 0.56 0.57 0.61 0.67 0.73 0.78 0.80 0.80 0.75 0.89 0.98 0.99 1.02 1.01 1.00 1.03 1.05 1.02 1.00 1.03 1.07 1.04 1.01 1.03 1.04 1.04 1.03 1.00 0.99 1.01 1.03 1.06 1.05 1.04 1.02 0.98 0.91 0.86 0.86
0.51 0.46 0.46 0.51 0.51 0.51 0.55 0.55 0.60 0.70 0.75 0.80 0.84 0.86 0.82 0.98 0.97 1.00 1.02 1.05 1.08 1.05 1.06 1.00 0.99 0.99 0.98 1.02 1.04 1.04 1.01 0.97 0.97 0.98 0.98 1.00 1.00 0.99 0.98 0.93 0.88 0.83 0.81
0.47 0.44 0.43 0.42 0.43 0.46 0.50 0.52 0.57 0.60 0.70 0.80 0.85 0.83 0.82 0.88 0.98 1.00 1.05 1.06 1.04 1.01 0.98 0.95 0.95 0.96 0.97 1.00 1.05 1.07 1.05 1.00 0.94 0.92 0.91 0.93 0.95 0.96 0.94 0.91 0.85 0.80 0.74
0.45 0.45 0.43 0.44 0.44 0.43 0.42 0.43 0.48 0.58 0.67 0.75 0.82 0.84 0.85 0.85 0.95 0.97 0.95 0.98 1.00 0.98 0.96 0.95 0.94 0.97 0.99 1.00 1.01 1.02 1.01 0.99 0.96 0.90 0.90 0.90 0.88 0.86 0.83 0.81 0.76 0.75 0.72
0.44 0.46 0.44 0.44 0.45 0.45 0.43 0.41 0.47 0.52 0.61 0.66 0.71 0.75 0.83 0.87 0.90 0.91 0.93 0.95 0.96 0.98 0.99 0.96 0.94 0.91 0.93 0.93 0.96 0.95 0.94 0.93 0.90 0.89 0.85 0.84 0.80 0.78 0.76 0.72 0.70 0.67 0.64
0.45 0.46 0.44 0.43 0.43 0.44 0.43 0.44 0.48 0.55 0.55 0.60 0.61 0.67 0.71 0.77 0.85 0.89 0.91 0.94 0.95 0.94 0.93 0.93 0.91 0.92 0.89 0.89 0.88 0.86 0.87 0.85 0.83 0.81 0.76 0.73 0.71 0.68 0.66 0.64 0.63 0.60 0.58
0.45 0.45 0.42 0.40 0.41 0.43 0.43 0.45 0.48 0.54 0.56 0.59 0.59 0.59 0.64 0.70 0.74 0.80 0.85 0.88 0.90 0.91 0.88 0.83 0.87 0.83 0.78 0.79 0.83 0.77 0.74 0.75 0.73 0.71 0.66 0.65 0.62 0.59 0.58 0.56 0.56 0.54 0.53
0.41 0.40 0.39 0.39 0.41 0.43 0.43 0.45 0.49 0.53 0.57 0.60 0.60 0.58 0.58 0.62 0.65 0.70 0.73 0.78 0.82 0.82 0.80 0.80 0.80 0.77 0.76 0.70 0.74 0.71 0.68 0.68 0.66 0.62 0.60 0.57 0.55 0.53 0.51 0.50 0.49 0.48 0.46

GFSMW_prec_pwat_063.txt.gz
Precipitable_Water
0.78 0.81 0.82 0.82 0.84 0.76 0.73 0.76 0.86 1.00 1.13 1.20 1.28 1.30 1.28 1.37 1.40 1.42 1.42 1.41 1.35 1.36 1.36 1.28 1.25 1.26 1.24 1.12 1.05 1.04 0.98 0.96 0.99 0.92 0.91 0.93 0.93 0.93 0.92 0.92 0.87 0.88 0.89
0.75 0.77 0.80 0.82 0.83 0.74 0.69 0.72 0.81 0.91 1.02 1.12 1.25 1.28 1.28 1.31 1.38 1.43 1.44 1.42 1.39 1.33 1.31 1.26 1.28 1.26 1.27 1.23 1.13 1.01 0.99 1.00 1.01 0.92 0.92 0.79 0.84 0.86 0.85 0.83 0.85 0.88 0.92
0.70 0.74 0.78 0.79 0.84 0.75 0.65 0.67 0.75 0.86 0.96 1.11 1.23 1.26 1.29 1.30 1.31 1.35 1.39 1.38 1.31 1.28 1.29 1.25 1.31 1.25 1.23 1.20 1.13 1.00 0.99 0.93 1.03 1.01 0.93 0.77 0.69 0.71 0.78 0.77 0.77 0.80 0.84
0.69 0.74 0.74 0.79 0.79 0.78 0.68 0.68 0.73 0.81 0.90 1.05 1.15 1.13 1.12 1.13 1.22 1.28 1.34 1.30 1.26 1.28 1.25 1.26 1.26 1.23 1.19 1.10 1.05 1.00 0.94 1.01 0.93 0.97 0.96 0.90 0.85 0.71 0.68 0.83 0.87 0.88 0.83
0.63 0.70 0.72 0.78 0.81 0.84 0.72 0.66 0.70 0.78 0.86 0.94 1.03 1.07 1.08 1.16 1.21 1.23 1.26 1.26 1.26 1.21 1.23 1.23 1.17 1.10 1.04 1.02 0.99 0.94 0.96 1.04 0.95 0.92 0.89 0.87 0.86 0.94 0.84 0.80 0.88 0.95 0.98
0.61 0.70 0.76 0.81 0.82 0.86 0.84 0.67 0.66 0.74 0.83 0.89 0.94 0.95 0.99 1.02 1.06 1.12 1.14 1.18 1.15 1.14 1.14 1.15 1.11 1.03 1.00 1.04 1.05 0.99 1.04 1.05 1.04 1.02 0.94 0.87 0.80 0.81 0.83 0.81 0.81 0.78 0.85
0.61 0.69 0.75 0.76 0.78 0.81 0.87 0.73 0.69 0.69 0.78 0.85 0.91 0.94 0.96 0.98 0.98 1.03 1.04 1.08 1.15 1.14 1.11 1.10 1.09 1.10 1.05 1.02 1.07 1.10 1.10 1.09 1.11 1.06 1.03 1.05 1.02 1.02 0.97 0.90 0.84 0.83 0.90
0.62 0.70 0.79 0.78 0.73 0.80 0.89 0.83 0.73 0.67 0.74 0.78 0.85 0.93 0.97 0.97 0.97 0.96 0.99 1.02 1.04 1.05 1.11 1.08 1.04 1.07 1.12 1.11 1.07 1.08 1.15 1.15 1.17 1.08 1.08 1.07 1.09 1.08 1.03 0.96 0.88 0.82 0.87
0.66 0.71 0.75 0.80 0.74 0.76 0.84 0.89 0.82 0.74 0.70 0.75 0.81 0.88 0.93 0.94 0.94 0.94 0.94 0.95 0.96 0.99 1.05 1.06 1.03 0.99 1.00 1.10 1.12 1.12 1.11 1.13 1.13 1.09 1.04 1.04 1.07 1.04 0.99 1.04 1.01 0.91 0.79
0.58 0.70 0.77 0.83 0.86 0.80 0.82 0.91 0.93 0.82 0.73 0.76 0.78 0.80 0.87 0.92 0.95 0.94 0.89 0.88 0.89 0.90 0.93 0.98 1.00 1.01 0.98 0.97 1.04 1.06 1.07 1.06 1.10 1.07 1.01 1.00 1.04 1.04 1.05 1.06 1.06 1.03 0.94
0.63 0.72 0.84 0.87 0.90 0.88 0.86 0.90 0.96 0.95 0.84 0.76 0.78 0.81 0.81 0.87 0.91 0.92 0.93 0.92 0.93 0.91 0.86 0.89 0.94 0.96 0.96 0.96 0.97 1.02 1.05 1.03 1.06 1.05 1.01 0.99 1.02 1.02 1.04 1.07 1.06 1.01 0.99
0.64 0.70 0.79 0.95 0.99 0.91 0.92 0.93 0.97 0.98 0.99 0.92 0.80 0.80 0.84 0.84 0.86 0.86 0.92 0.95 0.93 0.95 0.93 0.91 0.92 0.97 0.99 0.98 0.95 0.94 1.02 1.05 1.05 1.00 1.00 0.97 1.00 0.99 1.02 1.02 1.02 1.02 1.03
0.66 0.68 0.75 0.80 0.91 1.05 1.09 0.98 0.99 0.99 1.03 1.05 0.99 0.85 0.85 0.81 0.80 0.83 0.86 0.92 0.94 0.94 0.95 0.95 0.89 0.89 0.91 0.94 0.98 0.95 0.96 0.99 1.00 1.00 0.96 0.92 0.95 0.92 0.93 0.96 1.00 1.05 1.06
0.67 0.71 0.72 0.76 0.84 0.89 0.97 1.12 1.17 1.13 1.08 1.05 1.05 1.02 0.95 0.85 0.84 0.84 0.86 0.88 0.91 0.91 0.92 0.93 0.91 0.91 0.92 0.95 0.95 0.93 0.94 0.95 0.95 0.95 0.94 0.91 0.91 0.89 0.90 0.92 0.92 0.96 0.99
0.64 0.69 0.71 0.74 0.77 0.82 0.87 0.93 0.95 0.99 1.15 1.14 1.07 1.04 1.09 1.07 1.03 0.93 0.88 0.89 0.92 0.91 0.94 0.94 0.93 0.94 0.94 0.92 0.92 0.92 0.92 0.92 0.91 0.91 0.91 0.91 0.93 0.93 0.94 0.94 0.93 0.96 0.97
0.65 0.66 0.67 0.67 0.70 0.74 0.78 0.84 0.88 0.92 0.97 1.10 1.10 1.11 1.09 1.08 1.05 1.08 1.08 1.05 0.98 0.93 0.97 0.94 0.97 0.97 0.94 0.92 0.94 0.96 0.94 0.94 0.91 0.88 0.93 0.97 0.97 0.96 0.98 1.01 1.03 1.03 0.97
0.64 0.63 0.61 0.60 0.60 0.61 0.63 0.65 0.74 0.86 0.89 0.94 1.00 1.12 1.14 1.13 1.08 1.09 1.10 1.09 1.10 1.12 1.08 1.04 1.04 1.00 1.03 1.03 1.02 1.01 1.03 1.00 0.97 0.96 0.98 0.99 1.01 1.03 1.04 1.04 1.05 1.07 1.07
0.57 0.57 0.55 0.52 0.51 0.51 0.52 0.56 0.61 0.67 0.78 0.83 0.89 0.92 1.03 1.10 1.13 1.10 1.08 1.08 1.08 1.10 1.11 1.13 1.15 1.13 1.11 1.11 1.10 1.11 1.11 1.08 1.05 1.06 1.05 1.05 1.05 1.08 1.08 1.05 1.02 1.00 1.00
0.57 0.53 0.53 0.51 0.49 0.45 0.46 0.48 0.51 0.57 0.60 0.61 0.70 0.82 0.89 0.91 1.02 1.10 1.11 1.09 1.10 1.09 1.10 1.14 1.17 1.16 1.14 1.18 1.15 1.16 1.17 1.14 1.09 1.07 1.09 1.09 1.09 1.09 1.10 1.06 0.98 0.95 0.93
0.61 0.56 0.51 0.49 0.44 0.43 0.45 0.44 0.42 0.43 0.45 0.53 0.60 0.69 0.73 0.77 0.82 0.87 0.96 1.11 1.13 1.09 1.13 1.12 1.11 1.11 1.12 1.11 1.14 1.16 1.15 1.06 1.02 1.03 1.05 1.07 1.07 1.06 1.07 1.03 0.96 0.88 0.85
0.57 0.48 0.45 0.41 0.40 0.42 0.42 0.38 0.39 0.39 0.44 0.48 0.52 0.58 0.64 0.69 0.74 0.78 0.83 0.97 1.06 1.09 1.07 1.06 1.06 1.08 1.09 1.08 1.10 1.15 1.13 1.08 1.03 1.00 0.97 0.97 0.98 1.00 0.98 0.95 0.90 0.86 0.86
0.40 0.39 0.39 0.39 0.41 0.40 0.39 0.37 0.36 0.39 0.41 0.43 0.47 0.49 0.52 0.60 0.65 0.70 0.77 0.85 0.94 1.00 1.01 1.00 1.00 1.03 1.03 1.06 1.08 1.10 1.11 1.08 1.03 0.95 0.92 0.91 0.92 0.91 0.89 0.89 0.85 0.82 0.80
0.39 0.42 0.41 0.40 0.41 0.41 0.39 0.37 0.39 0.40 0.40 0.39 0.40 0.42 0.47 0.51 0.59 0.61 0.67 0.75 0.86 0.90 0.92 0.95 0.93 0.92 0.94 0.95 0.99 0.99 1.02 1.00 0.95 0.93 0.87 0.83 0.83 0.81 0.81 0.78 0.76 0.75 0.72
0.40 0.41 0.41 0.39 0.38 0.39 0.39 0.40 0.41 0.42 0.40 0.38 0.39 0.41 0.42 0.44 0.52 0.58 0.60 0.65 0.72 0.78 0.84 0.86 0.88 0.88 0.87 0.86 0.84 0.87 0.86 0.89 0.87 0.84 0.77 0.76 0.77 0.73 0.67 0.64 0.65 0.68 0.66
0.41 0.41 0.39 0.37 0.37 0.38 0.39 0.41 0.43 0.43 0.40 0.40 0.40 0.41 0.43 0.43 0.49 0.58 0.60 0.59 0.64 0.69 0.71 0.75 0.76 0.82 0.68 0.80 0.77 0.73 0.74 0.75 0.76 0.71 0.73 0.67 0.60 0.64 0.60 0.60 0.58 0.58 0.56
0.39 0.39 0.39 0.38 0.38 0.38 0.39 0.41 0.43 0.44 0.42 0.41 0.41 0.42 0.43 0.43 0.47 0.54 0.60 0.62 0.62 0.63 0.66 0.69 0.67 0.68 0.66 0.72 0.71 0.65 0.69 0.65 0.64 0.61 0.60 0.58 0.56 0.52 0.52 0.52 0.51 0.51 0.49

GFSMW_prec_pwat_066.txt.gz
Precipitable_Water
0.69 0.78 0.89 0.94 0.96 0.91 0.83 0.70 0.77 0.91 1.03 1.12 1.18 1.30 1.29 1.35 1.39 1.43 1.43 1.42 1.40 1.41 1.41 1.32 1.18 1.11 1.05 1.01 0.97 0.95 0.92 0.93 1.01 1.01 1.02 1.02 1.04 1.01 1.00 0.99 0.96 0.94 0.94
0.68 0.75 0.86 0.90 0.92 0.89 0.84 0.68 0.72 0.86 0.99 1.08 1.21 1.30 1.35 1.40 1.44 1.46 1.45 1.42 1.39 1.39 1.35 1.34 1.23 1.20 1.09 1.04 1.01 0.97 0.94 1.00 1.02 0.91 0.92 0.86 0.90 0.95 0.96 0.95 0.92 0.90 0.92
0.60 0.69 0.79 0.84 0.90 0.86 0.82 0.65 0.66 0.81 0.93 1.07 1.23 1.29 1.35 1.35 1.35 1.37 1.40 1.40 1.42 1.36 1.35 1.32 1.26 1.22 1.22 1.10 1.10 1.05 0.97 0.94 1.03 1.00 0.94 0.81 0.75 0.83 0.92 0.88 0.88 0.86 0.87
0.59 0.68 0.78 0.80 0.87 0.85 0.90 0.68 0.65 0.75 0.87 0.98 1.14 1.14 1.12 1.10 1.20 1.27 1.38 1.42 1.42 1.36 1.35 1.33 1.30 1.26 1.25 1.23 1.20 1.13 0.99 0.97 0.95 1.01 1.03 1.01 0.97 0.76 0.69 0.83 0.86 0.86 0.85
0.57 0.65 0.73 0.79 0.88 0.93 0.88 0.76 0.63 0.70 0.82 0.89 0.98 1.07 1.06 1.14 1.23 1.29 1.33 1.38 1.40 1.37 1.35 1.33 1.34 1.27 1.29 1.29 1.24 1.18 1.09 0.97 0.95 0.97 0.96 1.00 1.01 0.94 0.80 0.70 0.74 0.86 0.91
0.57 0.65 0.78 0.86 0.87 0.93 0.92 0.85 0.62 0.65 0.77 0.85 0.92 0.93 0.98 1.05 1.11 1.18 1.24 1.30 1.33 1.31 1.30 1.30 1.30 1.29 1.26 1.25 1.27 1.18 1.09 0.98 0.98 0.96 0.99 0.94 0.87 0.86 0.86 0.81 0.82 0.85 0.93
0.57 0.66 0.72 0.79 0.84 0.83 0.87 0.89 0.72 0.62 0.70 0.78 0.87 0.92 0.93 0.96 0.98 1.05 1.12 1.21 1.24 1.22 1.22 1.26 1.28 1.28 1.28 1.22 1.22 1.14 1.06 1.00 0.91 0.93 0.95 0.94 0.93 0.92 0.88 0.84 0.82 0.80 0.87
0.60 0.64 0.71 0.77 0.84 0.83 0.85 0.90 0.80 0.68 0.67 0.73 0.79 0.88 0.92 0.93 0.95 0.98 1.04 1.10 1.12 1.16 1.20 1.20 1.22 1.25 1.20 1.17 1.16 1.14 1.04 0.94 0.95 1.00 1.02 0.98 1.00 0.99 0.98 0.94 0.92 0.88 0.90
0.59 0.66 0.75 0.82 0.87 0.81 0.81 0.88 0.88 0.77 0.71 0.68 0.73 0.81 0.89 0.91 0.91 0.94 0.99 1.02 1.09 1.12 1.11 1.10 1.04 1.07 1.06 1.02 0.97 0.98 1.02 1.02 1.00 1.04 1.07 1.05 1.08 1.10 1.10 1.10 1.04 0.91 0.74
0.61 0.69 0.77 0.81 0.85 0.84 0.87 0.92 0.95 0.92 0.84 0.75 0.73 0.75 0.83 0.91 0.93 0.93 0.91 0.94 0.98 1.01 1.03 1.01 0.99 0.97 0.96 0.97 1.00 0.98 0.98 0.94 1.00 1.07 1.04 1.04 1.06 1.07 1.07 1.04 1.03 0.98 0.87
0.70 0.75 0.82 0.91 0.93 0.95 0.93 0.96 0.99 0.98 0.99 0.92 0.77 0.74 0.78 0.83 0.90 0.92 0.92 0.92 0.94 0.93 0.93 0.97 0.96 0.93 0.90 0.91 0.92 0.94 0.98 0.96 1.00 1.03 1.02 1.01 1.06 1.05 1.05 1.05 1.04 1.01 0.99
0.72 0.79 0.89 0.97 1.01 1.03 1.05 1.05 1.08 1.03 1.03 1.06 0.99 0.82 0.78 0.80 0.82 0.85 0.91 0.95 0.91 0.93 0.91 0.90 0.91 0.92 0.92 0.96 0.94 0.90 0.91 0.93 0.95 1.00 1.02 1.00 1.06 1.05 1.05 1.01 0.97 0.97 0.98
0.78 0.83 0.87 0.92 0.99 1.05 1.09 1.12 1.13 1.12 1.15 1.14 1.11 1.06 0.94 0.82 0.78 0.79 0.85 0.90 0.94 0.94 0.93 0.91 0.87 0.89 0.94 0.95 0.96 0.94 0.93 0.91 0.92 0.94 0.93 0.92 0.98 0.94 0.95 0.96 0.91 0.91 0.92
0.75 0.79 0.82 0.87 0.90 0.94 0.97 1.03 1.11 1.13 1.11 1.12 1.11 1.09 1.08 1.07 1.02 0.92 0.84 0.81 0.85 0.88 0.91 0.93 0.92 0.91 0.91 0.93 0.94 0.95 0.94 0.95 0.94 0.95 0.94 0.93 0.93 0.91 0.94 0.97 0.94 0.94 0.92
0.69 0.73 0.74 0.77 0.80 0.83 0.88 0.90 0.92 0.96 1.05 1.13 1.10 1.10 1.16 1.19 1.19 1.15 1.11 1.04 0.91 0.85 0.87 0.88 0.91 0.93 0.93 0.91 0.90 0.92 0.92 0.92 0.94 0.96 0.96 0.96 0.95 0.94 0.96 0.97 0.94 0.95 0.92
0.70 0.71 0.70 0.67 0.65 0.68 0.74 0.78 0.83 0.88 0.94 0.96 0.98 1.08 1.14 1.18 1.20 1.22 1.20 1.18 1.14 1.11 1.02 0.91 0.88 0.89 0.91 0.92 0.94 0.95 0.93 0.94 0.93 0.91 0.96 1.01 1.01 0.98 0.98 1.01 1.04 1.04 0.98
0.69 0.67 0.64 0.60 0.61 0.59 0.60 0.62 0.68 0.76 0.81 0.84 0.87 0.91 0.98 1.03 1.11 1.17 1.20 1.16 1.15 1.18 1.15 1.13 1.11 1.04 0.99 0.94 0.94 0.97 0.98 0.96 0.96 0.95 0.95 0.97 1.00 1.00 1.00 1.03 1.07 1.06 1.04
0.65 0.67 0.64 0.60 0.58 0.55 0.53 0.54 0.55 0.55 0.58 0.62 0.71 0.82 0.86 0.90 0.97 1.00 1.04 1.10 1.11 1.12 1.12 1.13 1.15 1.15 1.14 1.14 1.12 1.10 1.07 1.02 1.01 1.02 1.03 1.02 1.03 1.04 1.01 1.02 1.00 1.01 1.02
0.65 0.60 0.55 0.54 0.54 0.49 0.47 0.45 0.44 0.44 0.44 0.46 0.50 0.55 0.62 0.71 0.78 0.81 0.87 0.93 0.98 1.04 1.06 1.10 1.12 1.14 1.15 1.17 1.18 1.18 1.19 1.15 1.12 1.12 1.09 1.07 1.09 1.12 1.10 1.06 1.02 1.01 1.00
0.62 0.58 0.53 0.52 0.50 0.45 0.44 0.40 0.39 0.39 0.37 0.38 0.41 0.43 0.46 0.49 0.54 0.67 0.73 0.77 0.82 0.87 0.99 1.06 1.10 1.14 1.14 1.20 1.20 1.20 1.21 1.15 1.16 1.14 1.12 1.10 1.13 1.19 1.18 1.10 1.04 0.98 0.97
0.57 0.54 0.51 0.49 0.46 0.44 0.43 0.39 0.38 0.37 0.39 0.40 0.40 0.39 0.41 0.42 0.45 0.47 0.52 0.62 0.70 0.73 0.77 0.89 0.96 0.98 1.02 1.07 1.12 1.17 1.16 1.14 1.11 1.09 1.06 1.07 1.10 1.13 1.11 1.08 1.02 0.98 0.96
0.46 0.45 0.44 0.43 0.44 0.42 0.40 0.36 0.35 0.38 0.39 0.39 0.39 0.39 0.39 0.41 0.43 0.45 0.46 0.49 0.54 0.61 0.66 0.71 0.74 0.81 0.89 0.94 1.00 1.07 1.13 1.11 1.11 1.03 1.00 0.96 0.93 0.92 0.92 0.96 0.94 0.91 0.86
0.44 0.43 0.41 0.40 0.40 0.39 0.38 0.35 0.37 0.38 0.37 0.37 0.36 0.36 0.36 0.37 0.39 0.41 0.43 0.46 0.49 0.51 0.55 0.60 0.63 0.66 0.71 0.77 0.84 0.91 0.98 1.00 0.99 0.98 0.88 0.89 0.82 0.88 0.80 0.79 0.80 0.73 0.76
0.46 0.43 0.40 0.37 0.36 0.37 0.38 0.37 0.38 0.38 0.37 0.35 0.36 0.36 0.35 0.35 0.37 0.40 0.41 0.41 0.44 0.48 0.50 0.54 0.58 0.63 0.67 0.71 0.76 0.78 0.79 0.85 0.85 0.81 0.81 0.75 0.80 0.70 0.70 0.68 0.68 0.67 0.62
0.43 0.41 0.37 0.36 0.36 0.37 0.38 0.39 0.39 0.39 0.36 0.36 0.36 0.36 0.36 0.35 0.35 0.37 0.39 0.40 0.44 0.47 0.50 0.53 0.56 0.58 0.60 0.63 0.64 0.70 0.67 0.74 0.74 0.71 0.70 0.67 0.66 0.59 0.61 0.62 0.59 0.57 0.58
0.40 0.37 0.36 0.35 0.35 0.36 0.37 0.38 0.40 0.39 0.37 0.36 0.35 0.35 0.35 0.36 0.36 0.37 0.37 0.41 0.42 0.44 0.47 0.52 0.55 0.56 0.58 0.59 0.59 0.57 0.64 0.57 0.63 0.59 0.55 0.56 0.56 0.53 0.52 0.51 0.52 0.51 0.50

GFSMW_prec_pwat_072.txt.gz
Precipitable_Water
0.53 0.67 0.76 0.84 0.93 1.00 1.05 1.00 0.94 0.80 0.76 0.79 0.85 0.98 1.08 1.24 1.37 1.46 1.54 1.57 1.56 1.56 1.51 1.39 1.31 1.07 0.91 0.98 1.01 0.98 0.96 0.97 1.03 0.93 0.98 0.98 1.11 1.11 1.05 0.98 0.94 0.90 0.93
0.51 0.61 0.71 0.79 0.89 0.94 0.99 1.01 0.92 0.77 0.74 0.80 0.87 1.05 1.17 1.30 1.38 1.46 1.49 1.52 1.53 1.54 1.48 1.37 1.28 1.07 0.99 0.99 1.04 1.03 1.01 1.02 1.08 0.96 0.90 0.79 0.92 1.03 1.11 1.09 1.01 0.94 0.98
0.48 0.58 0.64 0.71 0.87 0.91 0.95 0.98 0.92 0.79 0.74 0.83 0.89 1.10 1.18 1.27 1.30 1.35 1.42 1.50 1.50 1.47 1.42 1.41 1.33 1.14 1.04 0.99 1.02 1.03 1.03 0.97 1.07 1.01 0.87 0.74 0.73 0.86 1.08 1.09 1.06 1.03 1.02
0.53 0.58 0.63 0.71 0.81 0.89 0.96 1.00 0.94 0.84 0.72 0.83 0.82 0.99 1.01 1.07 1.21 1.29 1.39 1.44 1.50 1.50 1.49 1.44 1.36 1.25 1.08 1.01 0.95 0.95 0.96 0.97 0.88 0.96 0.96 0.91 0.90 0.77 0.77 0.97 1.03 1.06 1.03
0.54 0.55 0.58 0.68 0.84 0.93 0.94 1.00 0.97 0.87 0.69 0.79 0.83 0.90 1.03 1.11 1.20 1.27 1.31 1.39 1.44 1.48 1.48 1.45 1.38 1.32 1.22 1.10 0.93 0.97 0.89 1.00 0.96 0.91 0.86 0.85 0.90 0.91 0.83 0.70 0.76 0.84 0.97
0.54 0.59 0.69 0.77 0.83 0.93 0.95 0.99 0.98 0.87 0.69 0.74 0.82 0.86 0.92 1.00 1.05 1.14 1.20 1.28 1.37 1.43 1.44 1.43 1.44 1.39 1.28 1.14 1.03 1.01 0.99 1.03 1.01 0.96 0.92 0.87 0.85 0.84 0.85 0.76 0.81 0.82 0.87
0.52 0.56 0.62 0.68 0.76 0.85 0.92 0.96 0.96 0.90 0.71 0.68 0.77 0.85 0.92 0.96 0.97 1.02 1.07 1.14 1.25 1.31 1.36 1.42 1.39 1.38 1.37 1.29 1.11 1.14 1.11 1.06 1.07 1.06 1.03 1.01 0.95 0.98 0.89 0.84 0.85 0.86 0.88
0.52 0.55 0.60 0.65 0.69 0.84 0.90 0.96 0.92 0.91 0.77 0.69 0.74 0.81 0.89 0.93 0.95 0.96 1.00 1.08 1.15 1.27 1.37 1.40 1.39 1.38 1.38 1.36 1.29 1.16 1.18 1.17 1.13 1.09 1.12 1.09 1.04 1.02 0.95 0.90 0.88 0.82 0.84
0.52 0.56 0.64 0.68 0.70 0.83 0.91 1.00 0.93 0.94 0.83 0.72 0.71 0.76 0.84 0.90 0.91 0.93 0.98 1.06 1.15 1.23 1.32 1.38 1.40 1.36 1.37 1.37 1.33 1.27 1.21 1.20 1.20 1.18 1.18 1.14 1.11 1.08 1.05 0.98 0.96 0.88 0.77
0.61 0.64 0.71 0.74 0.79 0.91 1.01 1.06 1.01 0.95 0.93 0.82 0.73 0.73 0.80 0.88 0.91 0.94 0.92 0.97 1.08 1.16 1.18 1.22 1.29 1.33 1.34 1.35 1.33 1.30 1.27 1.24 1.23 1.22 1.22 1.17 1.15 1.13 1.12 1.04 1.01 0.97 0.88
0.73 0.76 0.80 0.82 0.87 0.97 1.05 1.05 1.03 1.01 0.99 1.00 0.91 0.81 0.76 0.81 0.88 0.90 0.94 0.94 0.97 1.01 1.05 1.07 1.11 1.14 1.17 1.22 1.26 1.27 1.25 1.19 1.15 1.20 1.19 1.16 1.13 1.09 1.08 1.04 1.02 0.95 0.92
0.80 0.86 0.87 0.89 0.93 1.01 1.10 1.09 1.08 1.08 1.08 1.08 1.07 0.99 0.92 0.83 0.79 0.84 0.90 0.96 0.96 0.98 0.98 0.98 0.95 0.98 1.02 1.06 1.04 1.03 1.06 1.05 1.04 1.06 1.06 1.02 1.03 0.98 0.95 0.95 0.92 0.89 0.93
0.79 0.81 0.84 0.87 0.94 1.03 1.08 1.09 1.12 1.12 1.13 1.11 1.11 1.11 1.07 0.99 0.92 0.86 0.85 0.89 0.93 0.95 0.98 0.98 0.98 0.98 0.97 0.95 0.96 0.97 0.97 0.97 0.97 0.96 0.94 0.95 0.96 0.90 0.93 0.96 0.94 0.92 0.94
0.81 0.82 0.85 0.87 0.94 1.00 1.03 1.05 1.08 1.11 1.13 1.17 1.18 1.14 1.14 1.15 1.11 1.06 1.02 0.98 0.92 0.88 0.90 0.94 0.96 0.96 0.98 1.00 1.00 0.99 0.96 0.97 0.97 0.97 0.95 0.95 0.93 0.89 0.89 0.89 0.90 0.93 0.92
0.75 0.79 0.84 0.88 0.94 0.98 1.01 1.05 1.09 1.11 1.12 1.10 1.08 1.09 1.14 1.18 1.18 1.18 1.19 1.19 1.15 1.09 1.04 0.99 0.96 0.94 0.94 0.96 0.98 1.01 1.00 0.96 0.95 0.96 0.95 0.95 0.97 0.96 0.94 0.92 0.91 0.93 0.90
0.63 0.66 0.70 0.76 0.85 0.89 0.92 0.97 1.01 1.02 1.04 1.03 1.01 1.02 1.04 1.08 1.09 1.09 1.09 1.16 1.20 1.23 1.23 1.21 1.19 1.16 1.12 1.06 1.01 0.98 0.96 0.98 0.98 0.95 0.97 0.98 0.98 0.96 0.95 0.97 0.98 0.98 0.93
0.69 0.66 0.65 0.66 0.70 0.71 0.72 0.71 0.74 0.76 0.78 0.80 0.82 0.83 0.84 0.88 0.93 0.97 0.99 0.99 1.01 1.06 1.08 1.13 1.18 1.17 1.21 1.23 1.22 1.20 1.15 1.11 1.07 1.02 0.98 0.96 0.99 1.00 1.00 1.01 1.02 1.04 1.06
0.77 0.79 0.80 0.76 0.71 0.68 0.66 0.64 0.65 0.64 0.62 0.60 0.59 0.60 0.61 0.62 0.67 0.72 0.75 0.76 0.81 0.85 0.92 0.98 1.02 1.03 1.04 1.04 1.07 1.10 1.14 1.15 1.14 1.15 1.15 1.15 1.14 1.15 1.13 1.09 1.04 1.02 1.04
0.76 0.75 0.71 0.73 0.72 0.70 0.67 0.63 0.59 0.55 0.53 0.51 0.49 0.48 0.47 0.47 0.48 0.48 0.50 0.53 0.56 0.60 0.65 0.68 0.71 0.74 0.79 0.83 0.90 0.96 1.01 1.06 1.10 1.18 1.21 1.21 1.18 1.21 1.20 1.16 1.11 1.11 1.13
0.74 0.68 0.64 0.62 0.59 0.57 0.57 0.55 0.52 0.50 0.46 0.41 0.40 0.41 0.42 0.41 0.40 0.41 0.41 0.44 0.46 0.47 0.48 0.48 0.48 0.49 0.52 0.56 0.61 0.67 0.75 0.81 0.91 1.02 0.98 1.01 1.03 1.09 1.15 1.14 1.14 1.09 1.05
0.69 0.65 0.62 0.61 0.59 0.56 0.52 0.48 0.48 0.45 0.45 0.45 0.44 0.42 0.41 0.40 0.39 0.40 0.42 0.43 0.43 0.43 0.43 0.41 0.41 0.41 0.42 0.44 0.46 0.49 0.53 0.58 0.61 0.68 0.74 0.78 0.82 0.92 1.03 1.06 1.04 1.00 0.97
0.60 0.58 0.53 0.52 0.53 0.53 0.51 0.46 0.41 0.42 0.43 0.41 0.40 0.39 0.39 0.39 0.38 0.38 0.37 0.38 0.38 0.37 0.37 0.38 0.38 0.40 0.41 0.41 0.41 0.42 0.45 0.49 0.50 0.50 0.53 0.57 0.60 0.65 0.74 0.80 0.80 0.83 0.84
0.56 0.53 0.53 0.52 0.52 0.50 0.48 0.44 0.43 0.41 0.39 0.39 0.38 0.37 0.37 0.37 0.37 0.36 0.35 0.35 0.35 0.34 0.33 0.33 0.33 0.34 0.37 0.37 0.38 0.40 0.42 0.44 0.44 0.46 0.48 0.50 0.50 0.52 0.56 0.57 0.60 0.66 0.66
0.53 0.53 0.49 0.46 0.45 0.46 0.46 0.44 0.43 0.42 0.39 0.37 0.36 0.37 0.37 0.36 0.36 0.35 0.35 0.34 0.33 0.32 0.32 0.31 0.31 0.32 0.33 0.33 0.34 0.35 0.37 0.39 0.41 0.43 0.43 0.42 0.44 0.46 0.46 0.47 0.49 0.49 0.49
0.48 0.46 0.44 0.42 0.42 0.44 0.44 0.45 0.44 0.43 0.40 0.40 0.39 0.37 0.37 0.36 0.35 0.35 0.36 0.35 0.35 0.35 0.32 0.32 0.33 0.32 0.32 0.35 0.37 0.36 0.36 0.36 0.38 0.40 0.42 0.42 0.42 0.41 0.40 0.40 0.42 0.45 0.43
0.44 0.42 0.41 0.40 0.39 0.40 0.40 0.40 0.41 0.41 0.39 0.36 0.36 0.36 0.35 0.35 0.35 0.34 0.34 0.36 0.36 0.36 0.37 0.37 0.36 0.37 0.37 0.38 0.38 0.38 0.39 0.39 0.38 0.37 0.35 0.36 0.38 0.39 0.39 0.39 0.38 0.38 0.38

GFSMW_prec_pwat_075.txt.gz
Precipitable_Water
0.44 0.51 0.63 0.77 0.90 0.94 0.96 1.00 1.06 1.09 0.99 0.79 0.79 0.84 0.95 1.15 1.25 1.39 1.49 1.50 1.56 1.59 1.55 1.51 1.50 1.48 1.39 1.18 1.05 1.02 1.01 1.02 1.03 0.96 0.96 1.04 1.15 1.13 1.12 1.02 0.93 0.91 0.92
0.42 0.49 0.61 0.72 0.81 0.86 0.93 0.97 1.03 1.09 0.99 0.76 0.82 0.91 1.10 1.22 1.31 1.42 1.48 1.48 1.52 1.55 1.54 1.51 1.48 1.42 1.34 1.18 1.03 1.00 0.96 0.99 1.02 0.93 0.93 0.83 0.95 1.04 1.07 1.08 0.95 0.91 0.90
0.39 0.44 0.57 0.66 0.77 0.82 0.89 0.93 1.02 1.06 0.99 0.78 0.85 0.95 1.16 1.20 1.25 1.35 1.41 1.42 1.49 1.53 1.52 1.51 1.46 1.38 1.31 1.07 1.02 1.02 1.04 0.95 1.02 1.03 0.92 0.78 0.74 0.84 0.98 1.08 1.08 1.02 0.95
0.40 0.44 0.57 0.64 0.71 0.81 0.93 0.98 1.02 1.03 1.00 0.80 0.80 0.86 1.02 1.02 1.20 1.30 1.42 1.47 1.47 1.46 1.53 1.50 1.43 1.36 1.24 1.03 1.02 1.08 1.06 1.06 1.00 1.11 1.06 1.02 0.97 0.79 0.73 0.96 1.02 1.06 1.04
0.43 0.49 0.57 0.67 0.78 0.87 0.91 0.98 1.02 1.03 0.99 0.78 0.80 0.85 0.97 1.09 1.16 1.25 1.32 1.39 1.46 1.47 1.45 1.40 1.36 1.31 1.21 1.09 1.03 1.01 1.09 1.13 1.09 1.04 1.05 1.01 0.91 0.90 0.77 0.72 0.84 1.01 1.05
0.48 0.56 0.65 0.70 0.74 0.89 0.93 0.98 1.00 1.03 1.01 0.80 0.78 0.84 0.91 1.01 1.06 1.13 1.20 1.31 1.38 1.45 1.47 1.45 1.41 1.34 1.25 1.12 1.06 1.07 1.08 1.04 1.08 1.08 1.06 0.96 0.84 0.80 0.77 0.72 0.78 0.82 0.92
0.52 0.58 0.65 0.65 0.72 0.78 0.87 0.97 0.99 1.03 1.02 0.81 0.76 0.85 0.92 1.00 1.02 1.05 1.09 1.19 1.23 1.31 1.40 1.44 1.41 1.37 1.37 1.28 1.15 1.11 1.09 1.01 1.03 1.00 1.03 1.05 1.01 0.98 0.88 0.85 0.81 0.78 0.86
0.55 0.60 0.67 0.68 0.71 0.76 0.86 0.95 0.99 1.01 1.00 0.82 0.74 0.83 0.90 0.96 1.00 1.03 1.06 1.08 1.12 1.26 1.39 1.42 1.42 1.42 1.39 1.35 1.30 1.14 1.04 1.03 1.03 0.99 1.07 1.06 1.08 1.03 1.03 0.92 0.89 0.79 0.82
0.60 0.61 0.69 0.72 0.74 0.78 0.88 0.97 1.01 1.05 0.99 0.82 0.76 0.76 0.84 0.89 0.93 0.97 0.99 1.03 1.11 1.17 1.27 1.39 1.38 1.41 1.39 1.37 1.34 1.23 1.11 1.08 1.09 1.09 1.13 1.10 1.12 1.10 1.11 1.08 1.03 0.89 0.76
0.66 0.65 0.73 0.74 0.78 0.81 0.91 1.02 1.08 1.08 1.00 0.86 0.79 0.77 0.80 0.87 0.91 0.93 0.91 0.99 1.08 1.13 1.15 1.24 1.33 1.37 1.40 1.39 1.37 1.33 1.24 1.14 1.16 1.17 1.11 1.12 1.16 1.15 1.13 1.12 1.08 1.06 0.94
0.77 0.78 0.77 0.81 0.83 0.86 0.93 1.02 1.09 1.08 1.01 0.94 0.83 0.79 0.77 0.84 0.90 0.90 0.92 0.94 1.00 1.07 1.10 1.14 1.18 1.23 1.30 1.32 1.31 1.32 1.32 1.23 1.13 1.14 1.15 1.12 1.15 1.13 1.10 1.15 1.15 1.08 1.09
0.80 0.86 0.87 0.88 0.87 0.88 0.96 1.04 1.10 1.07 1.05 1.05 1.00 0.89 0.85 0.83 0.84 0.88 0.92 0.96 0.94 0.98 1.01 1.03 1.02 1.05 1.09 1.13 1.12 1.10 1.13 1.14 1.14 1.16 1.13 1.11 1.13 1.11 1.13 1.13 1.08 1.06 1.07
0.81 0.85 0.85 0.85 0.89 0.93 0.98 1.04 1.09 1.11 1.13 1.12 1.12 1.09 1.01 0.94 0.87 0.85 0.89 0.95 0.96 0.97 0.98 0.98 0.96 0.96 0.96 0.98 0.98 1.01 1.02 1.03 1.05 1.07 1.06 1.06 1.06 1.03 1.05 1.04 0.99 0.99 0.99
0.80 0.81 0.84 0.88 0.89 0.93 0.97 1.03 1.05 1.11 1.16 1.15 1.14 1.10 1.13 1.13 1.10 1.05 0.99 0.94 0.94 0.96 0.98 0.99 1.00 1.01 1.01 1.00 1.00 0.99 0.98 0.98 1.00 1.01 1.01 1.01 1.00 0.98 0.99 0.98 0.97 0.96 0.93
0.79 0.80 0.81 0.86 0.90 0.95 0.99 1.03 1.04 1.07 1.12 1.10 1.10 1.10 1.15 1.17 1.17 1.16 1.15 1.15 1.14 1.09 1.06 1.03 1.00 1.00 1.00 1.01 0.99 0.99 0.99 0.99 1.00 1.03 1.04 1.03 1.02 1.00 1.00 0.98 0.96 0.96 0.94
0.77 0.81 0.82 0.83 0.86 0.92 0.96 1.00 1.02 1.02 1.07 1.05 1.03 1.06 1.07 1.08 1.10 1.11 1.12 1.13 1.14 1.15 1.18 1.18 1.18 1.19 1.16 1.10 1.12 1.11 1.07 1.03 0.98 0.95 0.99 1.01 1.02 1.02 1.03 1.04 1.03 1.03 0.97
0.67 0.66 0.68 0.71 0.74 0.79 0.85 0.87 0.89 0.95 0.98 0.99 0.96 0.95 0.95 0.94 0.95 0.98 1.00 1.01 1.03 1.06 1.05 1.05 1.06 1.06 1.05 1.06 1.08 1.10 1.13 1.13 1.14 1.14 1.13 1.10 1.12 1.12 1.10 1.07 1.05 1.05 1.05
0.73 0.76 0.71 0.67 0.70 0.73 0.72 0.74 0.74 0.74 0.76 0.71 0.66 0.68 0.70 0.70 0.71 0.73 0.74 0.76 0.81 0.82 0.83 0.84 0.87 0.88 0.91 0.96 1.00 1.03 1.07 1.10 1.13 1.15 1.16 1.12 1.12 1.16 1.16 1.14 1.13 1.13 1.16
0.76 0.76 0.77 0.79 0.76 0.71 0.71 0.70 0.67 0.60 0.56 0.55 0.56 0.57 0.58 0.55 0.55 0.54 0.55 0.57 0.58 0.59 0.60 0.61 0.61 0.61 0.63 0.66 0.69 0.72 0.77 0.81 0.85 0.88 0.91 0.91 0.95 1.02 1.07 1.08 1.07 1.11 1.10
0.72 0.72 0.73 0.72 0.68 0.67 0.69 0.65 0.59 0.56 0.56 0.55 0.53 0.53 0.52 0.48 0.48 0.48 0.49 0.48 0.47 0.45 0.45 0.45 0.46 0.46 0.46 0.48 0.49 0.51 0.52 0.52 0.53 0.56 0.59 0.62 0.68 0.74 0.83 0.88 0.90 0.90 0.93
0.68 0.69 0.68 0.67 0.68 0.68 0.63 0.55 0.52 0.51 0.50 0.50 0.50 0.50 0.49 0.48 0.47 0.46 0.45 0.44 0.44 0.44 0.43 0.43 0.42 0.42 0.41 0.41 0.41 0.43 0.43 0.42 0.41 0.41 0.42 0.44 0.48 0.53 0.58 0.63 0.67 0.69 0.73
0.65 0.61 0.57 0.55 0.56 0.56 0.57 0.56 0.53 0.52 0.49 0.47 0.47 0.46 0.46 0.46 0.46 0.45 0.44 0.45 0.43 0.41 0.40 0.39 0.39 0.39 0.39 0.38 0.38 0.38 0.39 0.38 0.37 0.37 0.39 0.41 0.42 0.45 0.48 0.49 0.52 0.56 0.56
0.59 0.56 0.52 0.53 0.53 0.53 0.52 0.48 0.49 0.51 0.48 0.45 0.42 0.41 0.41 0.40 0.40 0.39 0.37 0.36 0.36 0.34 0.33 0.33 0.32 0.33 0.35 0.35 0.35 0.35 0.35 0.35 0.35 0.36 0.35 0.36 0.36 0.37 0.39 0.41 0.44 0.45 0.45
0.56 0.54 0.53 0.50 0.48 0.49 0.48 0.47 0.47 0.47 0.45 0.43 0.42 0.41 0.40 0.39 0.38 0.38 0.37 0.36 0.34 0.34 0.33 0.32 0.31 0.32 0.33 0.34 0.35 0.34 0.34 0.34 0.34 0.34 0.33 0.33 0.33 0.34 0.35 0.36 0.37 0.39 0.41
0.54 0.51 0.47 0.45 0.44 0.44 0.44 0.46 0.45 0.44 0.42 0.42 0.41 0.40 0.40 0.39 0.38 0.38 0.38 0.37 0.37 0.36 0.34 0.34 0.34 0.32 0.32 0.34 0.36 0.36 0.35 0.35 0.34 0.35 0.34 0.33 0.33 0.33 0.33 0.33 0.34 0.34 0.34
0.48 0.44 0.43 0.42 0.42 0.42 0.41 0.41 0.42 0.41 0.39 0.38 0.37 0.37 0.37 0.37 0.36 0.35 0.35 0.37 0.37 0.37 0.37 0.37 0.36 0.36 0.36 0.36 0.36 0.36 0.36 0.35 0.35 0.34 0.33 0.32 0.32 0.31 0.32 0.32 0.32 0.33 0.33

GFSMW_prec_pwat_078.txt.gz
Precipitable_Water
0.38 0.45 0.53 0.68 0.78 0.94 1.04 1.03 1.01 1.11 1.15 1.07 0.85 0.77 0.80 0.93 1.12 1.24 1.33 1.40 1.50 1.63 1.55 1.54 1.49 1.53 1.45 1.40 1.38 1.31 1.20 1.13 1.11 0.98 1.00 1.01 1.05 1.05 1.04 1.04 0.97 1.01 0.93
0.33 0.42 0.52 0.66 0.74 0.86 0.97 1.00 1.03 1.10 1.12 1.11 0.87 0.79 0.83 1.03 1.21 1.31 1.39 1.46 1.51 1.51 1.59 1.49 1.51 1.51 1.45 1.40 1.36 1.27 1.13 1.11 1.09 0.94 0.92 0.81 0.93 1.02 1.03 1.10 1.10 1.01 0.94
0.33 0.39 0.50 0.62 0.74 0.81 0.89 0.97 1.03 1.07 1.11 1.12 0.91 0.79 0.85 1.11 1.14 1.25 1.37 1.42 1.50 1.48 1.55 1.54 1.50 1.49 1.47 1.38 1.32 1.18 1.10 0.98 1.07 1.05 0.89 0.78 0.72 0.87 1.04 1.07 1.04 0.98 0.95
0.36 0.38 0.46 0.55 0.66 0.81 0.94 0.99 1.07 1.06 1.11 1.11 0.86 0.69 0.75 0.93 1.09 1.22 1.33 1.40 1.44 1.45 1.51 1.50 1.52 1.48 1.47 1.40 1.31 1.17 1.12 1.05 0.96 1.02 1.03 1.01 0.93 0.84 0.81 0.97 1.00 1.01 1.04
0.40 0.40 0.42 0.51 0.67 0.84 0.92 0.99 1.08 1.07 1.10 1.06 0.85 0.71 0.78 0.99 1.10 1.17 1.27 1.38 1.42 1.44 1.49 1.51 1.49 1.47 1.44 1.41 1.29 1.17 1.11 1.11 1.05 1.01 1.02 1.03 1.05 0.97 0.87 0.78 0.85 1.01 0.99
0.49 0.45 0.46 0.57 0.71 0.87 0.94 0.98 1.03 1.04 1.10 1.04 0.85 0.72 0.80 0.94 1.02 1.08 1.14 1.29 1.38 1.43 1.45 1.48 1.47 1.44 1.39 1.36 1.28 1.12 1.07 1.10 1.11 1.10 1.15 1.07 1.05 1.00 0.93 0.88 0.90 0.83 0.90
0.53 0.50 0.54 0.63 0.76 0.84 0.90 0.96 1.01 1.00 1.08 1.05 0.86 0.75 0.83 0.93 0.98 1.04 1.10 1.16 1.23 1.34 1.38 1.42 1.40 1.39 1.40 1.38 1.32 1.12 1.10 1.12 1.10 1.16 1.17 1.18 1.11 1.09 1.03 0.87 0.83 0.82 0.88
0.60 0.53 0.65 0.72 0.79 0.86 0.88 0.94 1.00 1.01 1.07 1.07 0.88 0.79 0.84 0.92 0.99 1.04 1.09 1.13 1.18 1.24 1.39 1.42 1.45 1.40 1.36 1.34 1.29 1.17 1.14 1.14 1.13 1.16 1.16 1.13 1.10 1.10 1.04 0.97 0.92 0.78 0.82
0.67 0.59 0.67 0.78 0.82 0.86 0.86 0.95 1.02 1.02 1.07 1.05 0.89 0.79 0.84 0.91 0.96 1.01 1.04 1.06 1.12 1.18 1.26 1.38 1.43 1.44 1.42 1.34 1.29 1.19 1.14 1.13 1.16 1.16 1.12 1.10 1.11 1.11 1.11 1.12 1.06 0.93 0.82
0.69 0.67 0.75 0.84 0.87 0.88 0.89 0.99 1.06 1.06 1.10 1.06 0.88 0.80 0.82 0.90 0.96 0.98 0.95 0.98 1.05 1.11 1.14 1.23 1.35 1.39 1.40 1.41 1.34 1.30 1.25 1.20 1.15 1.13 1.08 1.09 1.07 1.16 1.17 1.11 1.11 1.08 0.97
0.70 0.75 0.83 0.92 0.92 0.90 0.93 0.97 1.05 1.08 1.08 1.05 0.94 0.82 0.81 0.86 0.93 0.94 0.93 0.94 1.02 1.08 1.10 1.13 1.20 1.28 1.34 1.38 1.33 1.29 1.29 1.26 1.21 1.16 1.08 1.06 1.10 1.09 1.12 1.12 1.10 1.09 1.08
0.73 0.80 0.87 0.92 0.92 0.93 0.94 0.99 1.08 1.09 1.11 1.08 0.99 0.87 0.84 0.87 0.91 0.92 0.95 0.97 0.96 1.03 1.06 1.08 1.11 1.15 1.17 1.23 1.22 1.20 1.22 1.20 1.17 1.12 1.10 1.08 1.14 1.12 1.12 1.08 1.03 1.02 1.04
0.74 0.81 0.86 0.84 0.86 0.90 0.95 1.00 1.08 1.09 1.12 1.12 1.05 0.96 0.89 0.85 0.86 0.92 0.97 1.00 1.00 0.98 1.02 1.01 1.00 1.01 1.03 1.05 1.11 1.11 1.09 1.09 1.09 1.09 1.04 1.00 0.99 0.94 0.99 1.01 1.00 1.03 1.04
0.74 0.78 0.82 0.84 0.88 0.91 0.93 0.96 1.05 1.12 1.15 1.17 1.12 1.07 1.04 1.00 0.96 0.96 0.95 0.97 1.01 1.01 1.02 1.04 1.03 1.03 1.04 1.04 1.06 1.06 1.04 1.03 1.04 1.06 1.05 1.05 1.04 1.02 1.02 1.04 1.03 1.03 1.00
0.73 0.77 0.80 0.83 0.86 0.89 0.94 0.98 1.02 1.06 1.10 1.12 1.12 1.11 1.11 1.11 1.09 1.04 1.03 1.05 1.05 1.06 1.07 1.07 1.08 1.10 1.04 0.97 1.00 1.04 1.03 1.03 1.03 1.05 1.05 1.06 1.09 1.10 1.10 1.08 1.07 1.07 1.03
0.73 0.76 0.80 0.84 0.86 0.88 0.91 0.96 1.00 1.03 1.07 1.06 1.08 1.11 1.11 1.11 1.12 1.13 1.13 1.12 1.09 1.07 1.08 1.07 1.07 1.04 1.01 1.02 1.05 1.08 1.10 1.12 1.10 1.07 1.09 1.11 1.11 1.10 1.10 1.10 1.10 1.09 1.03
0.70 0.74 0.78 0.82 0.86 0.88 0.91 0.93 0.98 1.03 1.01 1.03 1.03 1.02 1.06 1.08 1.08 1.10 1.11 1.09 1.08 1.08 1.06 1.05 1.04 1.01 1.00 1.02 1.06 1.09 1.12 1.13 1.14 1.13 1.11 1.14 1.20 1.20 1.19 1.20 1.19 1.18 1.16
0.72 0.68 0.71 0.74 0.76 0.80 0.81 0.83 0.88 0.89 0.89 0.90 0.92 0.91 0.93 0.93 0.95 0.98 0.98 1.00 1.00 0.98 0.97 0.96 0.95 0.93 0.92 0.93 0.95 0.99 1.04 1.04 1.01 1.00 1.00 1.00 1.02 1.03 1.05 1.08 1.11 1.16 1.12
0.72 0.75 0.77 0.78 0.74 0.71 0.70 0.69 0.70 0.71 0.74 0.77 0.75 0.79 0.85 0.75 0.68 0.68 0.72 0.72 0.71 0.70 0.70 0.70 0.69 0.67 0.64 0.65 0.67 0.71 0.75 0.72 0.70 0.70 0.71 0.72 0.72 0.74 0.77 0.81 0.83 0.87 0.86
0.72 0.73 0.73 0.75 0.77 0.78 0.75 0.74 0.72 0.68 0.64 0.64 0.66 0.72 0.67 0.61 0.57 0.58 0.58 0.58 0.56 0.54 0.53 0.52 0.53 0.52 0.50 0.48 0.49 0.51 0.51 0.48 0.48 0.49 0.49 0.49 0.48 0.49 0.52 0.54 0.56 0.55 0.58
0.70 0.72 0.72 0.70 0.69 0.70 0.70 0.69 0.64 0.62 0.66 0.67 0.69 0.67 0.63 0.58 0.58 0.55 0.55 0.54 0.53 0.51 0.49 0.48 0.46 0.44 0.43 0.43 0.44 0.45 0.45 0.43 0.42 0.42 0.41 0.43 0.43 0.44 0.45 0.46 0.46 0.45 0.48
0.66 0.66 0.66 0.66 0.65 0.64 0.64 0.61 0.60 0.61 0.59 0.57 0.56 0.54 0.53 0.52 0.53 0.53 0.51 0.51 0.50 0.47 0.46 0.44 0.43 0.43 0.43 0.41 0.41 0.40 0.40 0.40 0.38 0.36 0.36 0.36 0.36 0.36 0.37 0.38 0.39 0.42 0.45
0.61 0.60 0.58 0.56 0.54 0.54 0.54 0.52 0.55 0.56 0.56 0.55 0.53 0.52 0.51 0.50 0.50 0.47 0.46 0.45 0.45 0.42 0.41 0.40 0.38 0.38 0.39 0.39 0.38 0.37 0.37 0.36 0.35 0.35 0.35 0.35 0.35 0.35 0.35 0.34 0.35 0.36 0.36
0.58 0.54 0.52 0.50 0.51 0.51 0.50 0.49 0.49 0.49 0.48 0.47 0.46 0.46 0.45 0.44 0.44 0.44 0.43 0.42 0.41 0.39 0.38 0.38 0.36 0.36 0.36 0.37 0.38 0.38 0.38 0.38 0.37 0.36 0.35 0.35 0.34 0.34 0.33 0.33 0.33 0.33 0.33
0.58 0.57 0.53 0.49 0.47 0.49 0.48 0.49 0.49 0.48 0.46 0.45 0.44 0.44 0.43 0.42 0.41 0.42 0.41 0.40 0.40 0.39 0.37 0.37 0.37 0.35 0.34 0.35 0.37 0.36 0.36 0.36 0.35 0.36 0.35 0.33 0.32 0.31 0.31 0.31 0.31 0.32 0.32
0.54 0.50 0.47 0.45 0.45 0.45 0.44 0.44 0.45 0.44 0.42 0.41 0.41 0.41 0.40 0.39 0.38 0.37 0.36 0.38 0.38 0.38 0.37 0.37 0.36 0.35 0.35 0.35 0.34 0.34 0.34 0.34 0.34 0.33 0.31 0.30 0.29 0.28 0.27 0.27 0.26 0.26 0.26

GFSMW_prec_pwat_081.txt.gz
Precipitable_Water
0.42 0.41 0.47 0.59 0.80 0.96 0.99 1.04 1.04 1.12 1.13 1.07 1.06 0.98 0.76 0.81 0.86 0.99 1.13 1.23 1.31 1.37 1.40 1.43 1.50 1.52 1.45 1.49 1.50 1.41 1.30 1.20 1.18 1.11 1.05 1.07 1.08 1.02 0.96 0.99 0.95 0.97 0.96
0.43 0.42 0.46 0.58 0.79 0.89 0.96 1.01 1.05 1.10 1.10 1.10 1.10 1.02 0.84 0.83 0.89 1.11 1.21 1.27 1.33 1.42 1.38 1.47 1.51 1.53 1.45 1.45 1.45 1.42 1.29 1.18 1.24 1.05 1.01 0.91 0.98 1.02 0.98 0.98 0.96 0.95 1.01
0.44 0.42 0.41 0.54 0.77 0.81 0.90 0.98 1.05 1.07 1.08 1.11 1.09 1.04 0.88 0.85 0.88 1.08 1.16 1.29 1.44 1.46 1.47 1.48 1.48 1.48 1.47 1.42 1.39 1.37 1.27 1.17 1.24 1.12 0.93 0.83 0.75 0.83 0.98 1.00 1.00 0.99 1.02
0.46 0.44 0.40 0.50 0.72 0.78 0.92 1.02 1.05 1.05 1.10 1.14 1.02 0.97 0.78 0.67 0.84 1.03 1.17 1.31 1.45 1.49 1.48 1.44 1.48 1.46 1.49 1.43 1.31 1.39 1.34 1.27 1.10 1.14 1.09 1.00 0.89 0.79 0.79 0.97 1.02 1.07 1.04
0.45 0.42 0.42 0.45 0.71 0.82 0.91 1.02 1.07 1.05 1.10 1.11 1.03 0.96 0.76 0.81 0.87 1.03 1.11 1.22 1.37 1.41 1.43 1.48 1.49 1.47 1.46 1.45 1.42 1.38 1.33 1.27 1.13 1.04 1.05 1.02 0.99 1.00 0.93 0.82 0.91 1.01 1.01
0.47 0.48 0.43 0.44 0.67 0.84 0.94 0.99 1.03 1.04 1.11 1.12 1.05 0.94 0.75 0.76 0.83 0.96 1.04 1.14 1.31 1.38 1.41 1.48 1.48 1.49 1.47 1.44 1.42 1.37 1.30 1.25 1.19 1.08 1.04 1.04 1.00 0.98 0.91 0.89 0.95 0.90 0.97
0.63 0.57 0.52 0.56 0.65 0.79 0.90 0.95 1.01 0.98 1.11 1.09 1.05 0.96 0.80 0.81 0.85 0.95 1.01 1.10 1.21 1.28 1.34 1.42 1.45 1.45 1.49 1.46 1.45 1.37 1.30 1.23 1.16 1.12 1.04 1.05 1.06 1.08 1.05 1.02 0.95 0.98 1.10
0.86 0.75 0.64 0.62 0.69 0.79 0.90 0.96 1.00 0.98 1.09 1.09 1.06 0.99 0.84 0.84 0.91 0.99 1.01 1.07 1.14 1.25 1.35 1.41 1.43 1.42 1.45 1.45 1.43 1.37 1.27 1.24 1.15 1.10 1.11 1.14 1.13 1.15 1.17 1.14 1.06 0.92 0.94
0.73 0.76 0.72 0.75 0.77 0.90 1.00 0.99 1.02 1.02 1.09 1.10 1.07 0.99 0.86 0.82 0.88 0.96 1.04 1.09 1.15 1.21 1.26 1.40 1.37 1.42 1.42 1.40 1.39 1.35 1.32 1.21 1.13 1.15 1.21 1.18 1.16 1.25 1.21 1.14 1.07 1.06 0.85
0.65 0.77 0.80 0.86 0.90 1.05 1.05 1.06 1.09 1.03 1.12 1.13 1.10 0.99 0.85 0.86 0.92 0.96 0.96 0.99 1.04 1.13 1.21 1.29 1.38 1.40 1.40 1.39 1.38 1.35 1.34 1.23 1.18 1.19 1.18 1.18 1.18 1.19 1.20 1.14 1.07 1.09 1.01
0.66 0.79 0.92 1.00 1.02 1.04 1.02 1.04 1.05 1.08 1.11 1.14 1.13 1.00 0.86 0.88 0.91 0.94 0.95 0.96 1.03 1.08 1.12 1.18 1.28 1.34 1.36 1.38 1.35 1.31 1.26 1.21 1.15 1.18 1.15 1.15 1.20 1.17 1.13 1.13 1.09 1.08 1.10
0.69 0.76 0.84 0.92 0.98 1.00 1.00 1.02 1.06 1.08 1.14 1.17 1.13 1.02 0.90 0.86 0.88 0.90 0.94 0.96 0.95 1.04 1.09 1.10 1.12 1.21 1.30 1.35 1.34 1.33 1.31 1.24 1.17 1.18 1.19 1.18 1.19 1.13 1.10 1.06 1.03 1.07 1.06
0.71 0.74 0.77 0.83 0.88 0.92 0.99 1.04 1.07 1.09 1.14 1.16 1.12 1.07 0.98 0.90 0.88 0.90 0.94 0.96 0.96 0.98 1.04 1.06 1.07 1.10 1.16 1.19 1.20 1.23 1.21 1.13 1.12 1.15 1.12 1.12 1.10 1.03 1.04 0.99 0.96 0.96 0.98
0.75 0.72 0.73 0.79 0.86 0.90 0.96 1.00 0.99 1.05 1.11 1.13 1.09 1.05 1.00 0.96 0.94 0.97 0.99 1.00 1.02 1.00 1.02 1.05 1.05 1.05 1.06 1.06 1.07 1.09 1.12 1.12 1.11 1.10 1.08 1.06 1.03 1.00 1.02 1.01 0.98 0.97 0.96
0.74 0.73 0.71 0.77 0.82 0.88 0.93 0.98 1.00 1.02 1.05 1.07 1.06 1.05 1.05 1.01 0.95 0.92 0.96 0.99 1.00 1.01 1.03 1.06 1.02 1.00 0.99 0.98 0.99 1.03 1.08 1.08 1.11 1.14 1.10 1.12 1.15 1.16 1.14 1.09 1.06 1.09 1.09
0.72 0.74 0.73 0.76 0.81 0.86 0.89 0.94 0.96 1.00 1.04 1.04 1.05 1.07 1.08 1.09 1.08 1.05 1.02 0.99 0.96 0.97 1.02 1.01 1.00 0.99 0.99 1.01 1.03 1.05 1.08 1.12 1.08 1.06 1.09 1.14 1.10 1.11 1.12 1.12 1.12 1.11 1.05
0.72 0.73 0.76 0.74 0.78 0.83 0.88 0.92 0.94 0.98 0.99 1.03 1.04 1.05 1.07 1.07 1.08 1.12 1.10 1.07 1.05 1.02 0.99 0.99 0.98 0.97 0.98 1.02 1.04 1.05 1.07 1.04 1.02 1.02 1.05 1.08 1.09 1.10 1.11 1.15 1.16 1.13 1.12
0.70 0.72 0.74 0.76 0.78 0.83 0.87 0.91 0.95 0.95 0.96 0.98 1.00 1.01 1.04 1.05 1.05 1.07 1.09 1.07 1.05 1.04 1.03 1.03 1.02 0.99 0.99 1.01 1.04 1.05 1.04 1.01 0.99 0.98 0.98 0.98 0.99 1.01 1.02 1.05 1.03 1.00 0.99
0.69 0.71 0.74 0.74 0.77 0.77 0.79 0.82 0.86 0.88 0.88 0.90 0.90 0.92 0.95 0.95 0.93 0.91 0.96 0.98 1.00 1.00 0.97 0.95 0.95 0.93 0.91 0.90 0.90 0.89 0.86 0.80 0.77 0.76 0.76 0.75 0.72 0.71 0.72 0.71 0.68 0.66 0.65
0.68 0.69 0.72 0.74 0.74 0.77 0.73 0.72 0.74 0.74 0.76 0.81 0.83 0.79 0.81 0.81 0.82 0.85 0.85 0.78 0.74 0.71 0.69 0.66 0.66 0.62 0.61 0.61 0.60 0.59 0.57 0.54 0.53 0.53 0.52 0.51 0.51 0.51 0.52 0.50 0.48 0.45 0.46
0.65 0.68 0.69 0.69 0.73 0.77 0.77 0.75 0.74 0.72 0.72 0.71 0.70 0.73 0.77 0.75 0.75 0.77 0.73 0.65 0.60 0.59 0.56 0.54 0.52 0.50 0.49 0.48 0.49 0.52 0.50 0.48 0.46 0.45 0.43 0.43 0.43 0.42 0.42 0.42 0.41 0.41 0.43
0.62 0.64 0.64 0.66 0.67 0.68 0.69 0.69 0.71 0.76 0.76 0.73 0.70 0.71 0.72 0.73 0.71 0.69 0.67 0.65 0.61 0.55 0.53 0.50 0.49 0.51 0.50 0.47 0.45 0.43 0.45 0.43 0.41 0.39 0.39 0.38 0.37 0.37 0.37 0.37 0.38 0.38 0.39
0.60 0.61 0.61 0.60 0.60 0.59 0.61 0.59 0.61 0.63 0.64 0.64 0.65 0.67 0.66 0.64 0.66 0.65 0.62 0.60 0.59 0.55 0.52 0.51 0.50 0.48 0.48 0.48 0.47 0.44 0.42 0.41 0.39 0.38 0.37 0.37 0.37 0.36 0.36 0.36 0.36 0.36 0.36
0.57 0.57 0.56 0.54 0.52 0.53 0.53 0.53 0.53 0.53 0.52 0.51 0.51 0.51 0.51 0.50 0.50 0.50 0.51 0.50 0.50 0.48 0.47 0.45 0.44 0.43 0.43 0.42 0.44 0.43 0.43 0.42 0.41 0.40 0.39 0.39 0.38 0.37 0.36 0.35 0.35 0.35 0.34
0.57 0.56 0.54 0.51 0.50 0.51 0.50 0.50 0.50 0.50 0.48 0.48 0.48 0.48 0.46 0.45 0.44 0.44 0.43 0.43 0.44 0.44 0.42 0.41 0.41 0.40 0.38 0.39 0.40 0.40 0.39 0.39 0.39 0.38 0.36 0.34 0.33 0.31 0.30 0.30 0.29 0.28 0.28
0.54 0.54 0.54 0.52 0.49 0.49 0.49 0.50 0.52 0.50 0.49 0.47 0.47 0.47 0.46 0.44 0.43 0.42 0.41 0.42 0.42 0.42 0.41 0.41 0.40 0.38 0.37 0.36 0.35 0.35 0.34 0.34 0.33 0.31 0.28 0.26 0.24 0.22 0.21 0.19 0.19 0.18 0.18

GFSMW_prec_pwat_084.txt.gz
Precipitable_Water
0.45 0.46 0.43 0.38 0.48 0.64 1.01 1.16 1.14 1.16 1.17 1.07 1.00 0.98 1.02 1.10 0.93 0.89 0.91 1.03 1.16 1.24 1.33 1.35 1.33 1.42 1.32 1.36 1.45 1.51 1.42 1.39 1.39 1.22 1.15 1.06 1.03 0.91 0.89 0.96 0.94 0.94 1.03
0.43 0.48 0.45 0.44 0.53 0.76 1.01 1.13 1.14 1.14 1.12 1.08 1.03 1.05 1.08 1.09 0.90 0.84 0.90 1.10 1.20 1.28 1.36 1.37 1.36 1.34 1.38 1.43 1.42 1.45 1.37 1.41 1.35 1.13 1.09 0.91 0.99 1.01 0.99 0.97 0.92 1.03 1.04
0.41 0.48 0.47 0.45 0.63 0.80 1.04 1.12 1.12 1.11 1.10 1.08 1.08 1.08 1.12 1.08 0.92 0.81 0.90 1.12 1.24 1.33 1.36 1.39 1.39 1.39 1.44 1.46 1.43 1.45 1.37 1.24 1.32 1.22 1.05 0.92 0.87 0.90 1.00 0.96 0.94 0.97 0.97
0.37 0.50 0.48 0.45 0.67 0.73 1.07 1.17 1.17 1.11 1.09 1.09 1.04 1.01 0.96 0.87 0.83 0.78 0.94 1.16 1.25 1.37 1.45 1.47 1.45 1.41 1.42 1.46 1.47 1.48 1.39 1.32 1.22 1.24 1.18 1.10 0.99 0.83 0.80 0.93 0.90 0.95 0.93
0.40 0.45 0.51 0.49 0.66 0.75 0.93 1.10 1.14 1.07 1.06 1.07 1.07 1.04 0.96 0.92 0.82 0.82 0.93 1.10 1.20 1.32 1.42 1.44 1.43 1.41 1.45 1.46 1.47 1.45 1.41 1.37 1.26 1.22 1.17 1.04 1.04 0.99 0.85 0.75 0.84 0.95 1.01
0.42 0.45 0.52 0.52 0.67 0.78 0.93 1.04 1.07 1.03 1.05 1.08 1.07 1.08 0.98 0.88 0.74 0.79 0.92 1.06 1.14 1.21 1.36 1.40 1.42 1.43 1.44 1.43 1.45 1.46 1.38 1.34 1.32 1.26 1.18 1.14 0.98 0.99 0.98 0.90 0.96 0.92 0.97
0.74 0.75 0.71 0.52 0.52 0.80 0.92 1.00 1.02 1.00 1.05 1.07 1.12 1.11 1.02 0.94 0.78 0.82 0.94 1.02 1.07 1.13 1.24 1.35 1.39 1.43 1.46 1.46 1.43 1.42 1.40 1.35 1.29 1.25 1.21 1.21 1.10 1.07 1.06 1.11 1.04 1.00 1.07
0.76 0.81 0.81 0.74 0.60 0.83 0.98 1.01 1.00 1.00 1.06 1.08 1.11 1.14 1.06 0.94 0.84 0.88 0.96 1.02 1.06 1.14 1.25 1.30 1.38 1.45 1.48 1.47 1.45 1.39 1.40 1.37 1.33 1.26 1.22 1.15 1.10 1.09 1.08 1.02 0.98 0.97 1.01
0.73 0.81 0.82 0.80 0.73 0.91 1.02 1.00 1.01 1.04 1.08 1.11 1.14 1.13 1.06 0.97 0.89 0.94 1.00 1.02 1.07 1.12 1.25 1.26 1.39 1.41 1.43 1.44 1.45 1.39 1.36 1.33 1.28 1.29 1.23 1.16 1.13 1.12 1.11 1.12 1.12 1.03 0.90
0.69 0.83 0.85 0.92 0.99 1.06 1.12 1.07 1.04 1.06 1.12 1.15 1.17 1.14 1.08 1.00 0.92 0.95 0.98 1.03 1.07 1.10 1.17 1.22 1.36 1.38 1.42 1.44 1.44 1.38 1.36 1.33 1.32 1.30 1.23 1.17 1.17 1.19 1.17 1.15 1.15 1.15 1.05
0.68 0.74 0.81 0.92 1.03 1.12 1.10 1.15 1.14 1.16 1.12 1.19 1.18 1.15 1.08 1.00 0.95 0.96 0.99 0.99 1.01 1.05 1.10 1.17 1.24 1.33 1.38 1.40 1.36 1.36 1.35 1.29 1.28 1.28 1.16 1.12 1.18 1.14 1.21 1.19 1.11 1.13 1.09
0.70 0.73 0.79 0.87 0.93 0.96 1.10 1.18 1.20 1.16 1.18 1.20 1.16 1.16 1.12 1.04 0.93 0.93 0.97 1.01 0.99 1.02 1.04 1.12 1.14 1.25 1.33 1.38 1.34 1.32 1.32 1.31 1.30 1.24 1.21 1.19 1.21 1.18 1.20 1.20 1.16 1.14 1.12
0.70 0.73 0.73 0.81 0.87 0.93 1.01 1.04 1.11 1.14 1.20 1.19 1.15 1.15 1.09 1.03 0.96 0.93 0.97 1.00 0.97 0.95 1.00 1.05 1.08 1.10 1.18 1.28 1.32 1.34 1.32 1.29 1.26 1.24 1.20 1.18 1.17 1.17 1.17 1.17 1.13 1.09 1.07
0.69 0.71 0.71 0.75 0.79 0.88 0.93 0.98 1.05 1.12 1.17 1.14 1.12 1.10 1.07 1.07 1.04 1.01 0.98 0.97 0.98 0.96 0.99 1.03 1.01 1.02 1.04 1.09 1.16 1.20 1.22 1.24 1.20 1.15 1.10 1.11 1.09 1.02 1.05 1.01 1.00 0.98 0.96
0.69 0.72 0.71 0.72 0.76 0.82 0.86 0.95 1.01 1.06 1.10 1.09 1.08 1.09 1.09 1.10 1.08 1.02 0.98 0.95 0.95 0.95 0.96 0.97 0.97 0.97 0.97 0.98 1.02 1.06 1.07 1.12 1.07 1.16 1.13 1.06 1.04 1.04 1.03 1.02 1.01 1.02 0.99
0.69 0.70 0.73 0.74 0.76 0.80 0.82 0.89 0.95 1.02 1.05 1.05 1.04 1.07 1.07 1.06 1.00 1.00 0.99 0.96 0.92 0.92 0.93 0.92 0.93 0.93 0.94 0.97 1.01 1.02 1.02 1.02 1.02 0.96 1.04 1.09 1.08 1.07 1.06 1.06 1.05 1.06 1.03
0.65 0.68 0.72 0.75 0.75 0.78 0.82 0.84 0.92 0.97 1.00 1.00 1.01 1.03 1.04 1.01 1.00 0.98 0.97 0.97 0.93 0.92 0.91 0.91 0.92 0.93 0.96 0.99 1.03 1.05 1.04 1.03 1.02 1.06 1.06 1.02 1.04 1.06 1.07 1.03 1.03 1.04 1.04
0.63 0.68 0.71 0.74 0.77 0.77 0.80 0.84 0.89 0.92 0.94 0.96 0.97 0.99 1.01 1.01 1.01 1.04 1.05 1.03 1.04 1.03 1.00 0.92 0.90 0.91 0.94 1.00 1.03 1.04 1.02 0.99 0.98 0.97 0.97 0.97 0.97 1.00 1.02 1.00 0.97 0.95 0.95
0.65 0.68 0.71 0.72 0.75 0.77 0.78 0.80 0.84 0.87 0.89 0.91 0.93 0.94 0.97 0.96 0.96 0.97 0.99 1.01 0.99 1.01 1.00 0.98 0.98 0.98 0.99 1.02 1.03 1.01 0.99 0.95 0.93 0.92 0.91 0.89 0.89 0.86 0.89 0.87 0.80 0.73 0.69
0.63 0.66 0.69 0.71 0.72 0.73 0.76 0.75 0.77 0.80 0.80 0.83 0.87 0.88 0.88 0.90 0.88 0.90 0.91 0.93 0.93 0.92 0.94 0.91 0.92 0.93 0.93 0.94 0.93 0.87 0.79 0.71 0.66 0.63 0.60 0.56 0.55 0.55 0.54 0.51 0.47 0.44 0.44
0.61 0.64 0.67 0.67 0.68 0.71 0.72 0.70 0.73 0.72 0.76 0.80 0.82 0.83 0.84 0.81 0.85 0.80 0.80 0.80 0.81 0.80 0.79 0.72 0.65 0.61 0.60 0.58 0.58 0.57 0.54 0.52 0.49 0.47 0.45 0.45 0.44 0.45 0.45 0.44 0.43 0.42 0.43
0.58 0.61 0.62 0.63 0.66 0.68 0.68 0.66 0.67 0.70 0.75 0.77 0.76 0.75 0.77 0.79 0.81 0.79 0.80 0.77 0.71 0.68 0.65 0.63 0.59 0.57 0.53 0.51 0.51 0.52 0.51 0.48 0.44 0.42 0.43 0.42 0.41 0.41 0.40 0.41 0.41 0.41 0.40
0.56 0.59 0.61 0.60 0.61 0.63 0.64 0.62 0.66 0.69 0.70 0.70 0.70 0.70 0.71 0.74 0.74 0.72 0.72 0.70 0.69 0.65 0.61 0.57 0.54 0.53 0.54 0.54 0.52 0.51 0.50 0.50 0.49 0.49 0.48 0.46 0.43 0.41 0.39 0.39 0.38 0.38 0.37
0.54 0.56 0.56 0.54 0.54 0.56 0.56 0.58 0.58 0.57 0.57 0.58 0.59 0.61 0.61 0.63 0.65 0.66 0.66 0.66 0.66 0.65 0.62 0.58 0.56 0.55 0.54 0.53 0.54 0.52 0.51 0.50 0.48 0.47 0.45 0.43 0.41 0.40 0.37 0.36 0.35 0.35 0.34
0.53 0.54 0.54 0.53 0.54 0.54 0.54 0.55 0.53 0.53 0.51 0.50 0.49 0.49 0.50 0.50 0.48 0.48 0.47 0.47 0.47 0.47 0.45 0.44 0.44 0.42 0.42 0.43 0.44 0.43 0.42 0.42 0.42 0.40 0.38 0.35 0.33 0.30 0.28 0.26 0.24 0.23 0.23
0.50 0.51 0.51 0.52 0.52 0.51 0.51 0.53 0.55 0.54 0.52 0.51 0.52 0.51 0.49 0.48 0.47 0.46 0.45 0.47 0.46 0.46 0.45 0.44 0.43 0.42 0.42 0.41 0.40 0.39 0.37 0.36 0.34 0.30 0.27 0.24 0.22 0.20 0.19 0.18 0.17 0.16 0.16

GFSMW_prec_pwat_087.txt.gz
Precipitable_Water
0.39 0.45 0.50 0.51 0.50 0.46 0.62 0.88 1.07 1.14 1.19 1.18 1.11 1.06 0.98 1.05 1.12 1.17 1.11 0.95 0.91 1.02 1.13 1.21 1.25 1.30 1.31 1.31 1.30 1.28 1.34 1.41 1.51 1.38 1.31 1.26 1.21 1.10 1.02 0.97 0.94 0.91 0.90
0.32 0.39 0.49 0.51 0.49 0.46 0.74 0.90 1.05 1.13 1.15 1.15 1.16 1.09 1.03 1.05 1.09 1.14 1.05 0.92 0.92 1.08 1.23 1.25 1.27 1.34 1.30 1.28 1.27 1.32 1.33 1.44 1.45 1.27 1.21 1.06 1.09 1.04 1.01 1.00 0.98 0.91 0.93
0.31 0.32 0.46 0.50 0.50 0.53 0.75 0.93 1.08 1.13 1.14 1.19 1.20 1.10 1.06 1.04 1.04 1.05 0.96 0.81 0.93 1.14 1.24 1.27 1.33 1.32 1.35 1.28 1.28 1.31 1.33 1.32 1.38 1.35 1.16 1.02 0.92 0.94 0.99 0.96 0.98 0.96 0.96
0.39 0.31 0.45 0.49 0.56 0.72 0.89 1.05 1.12 1.16 1.13 1.20 1.09 0.96 0.91 0.89 0.99 0.99 0.90 0.85 1.01 1.18 1.24 1.33 1.37 1.36 1.36 1.32 1.33 1.38 1.40 1.38 1.25 1.33 1.27 1.19 1.08 0.85 0.83 0.95 0.98 1.00 0.96
0.46 0.38 0.44 0.47 0.61 0.90 1.02 1.02 1.08 1.07 1.08 1.11 1.02 0.98 0.97 1.03 1.04 0.99 0.89 0.88 1.05 1.16 1.24 1.33 1.34 1.37 1.39 1.40 1.36 1.42 1.41 1.40 1.33 1.25 1.21 1.15 1.10 1.09 0.96 0.83 0.87 0.94 0.95
0.61 0.60 0.68 0.71 0.73 0.88 0.95 0.99 0.97 0.98 1.07 1.08 1.01 1.02 1.03 1.02 1.00 0.91 0.82 0.86 1.02 1.14 1.23 1.31 1.35 1.40 1.39 1.39 1.40 1.44 1.43 1.43 1.36 1.31 1.25 1.14 1.05 1.02 0.99 0.88 0.87 0.82 0.89
0.69 0.65 0.63 0.74 0.70 0.87 0.97 0.92 0.93 0.91 1.03 1.05 1.00 1.06 1.09 1.05 1.01 0.93 0.82 0.86 0.96 1.05 1.14 1.25 1.31 1.37 1.42 1.43 1.46 1.45 1.44 1.40 1.34 1.32 1.26 1.24 1.13 1.16 1.11 1.01 0.96 0.94 1.00
0.72 0.74 0.75 0.72 0.72 0.74 1.03 0.96 0.97 0.98 1.03 1.05 1.05 1.12 1.11 1.12 1.10 0.98 0.88 0.90 0.97 1.04 1.13 1.18 1.29 1.37 1.43 1.46 1.47 1.45 1.44 1.43 1.39 1.34 1.32 1.24 1.19 1.22 1.15 1.06 1.00 0.98 1.04
0.71 0.77 0.80 0.81 0.80 0.83 0.96 1.00 0.98 1.05 1.08 1.08 1.11 1.11 1.13 1.15 1.12 1.00 0.94 0.92 0.99 1.06 1.12 1.19 1.26 1.34 1.42 1.45 1.45 1.41 1.39 1.41 1.37 1.35 1.33 1.25 1.28 1.26 1.20 1.16 1.14 1.04 0.88
0.69 0.76 0.82 0.89 0.96 0.98 1.21 1.22 1.18 1.11 1.12 1.13 1.14 1.11 1.13 1.19 1.12 1.06 0.97 0.94 0.99 1.05 1.09 1.15 1.26 1.31 1.39 1.42 1.42 1.40 1.41 1.36 1.35 1.33 1.30 1.29 1.30 1.25 1.21 1.19 1.16 1.09 0.97
0.64 0.72 0.83 0.92 1.00 1.04 1.24 1.29 1.29 1.27 1.17 1.17 1.14 1.12 1.14 1.16 1.16 1.06 0.98 0.97 1.01 1.03 1.07 1.12 1.18 1.24 1.37 1.40 1.39 1.39 1.37 1.35 1.34 1.33 1.28 1.30 1.29 1.22 1.19 1.19 1.15 1.09 1.05
0.66 0.70 0.81 0.89 0.95 1.00 1.08 1.15 1.22 1.33 1.17 1.18 1.18 1.15 1.16 1.18 1.12 1.05 0.99 1.01 0.99 1.02 1.02 1.07 1.10 1.16 1.32 1.38 1.37 1.35 1.36 1.31 1.27 1.27 1.29 1.27 1.27 1.20 1.19 1.11 1.04 1.07 1.10
0.69 0.69 0.73 0.79 0.85 0.91 0.97 1.03 1.12 1.24 1.30 1.29 1.22 1.17 1.20 1.19 1.16 1.09 1.02 1.00 1.00 1.00 1.00 1.04 1.05 1.08 1.18 1.32 1.36 1.35 1.33 1.30 1.30 1.29 1.26 1.26 1.23 1.18 1.14 1.09 1.13 1.17 1.18
0.68 0.69 0.72 0.73 0.76 0.80 0.87 0.96 1.04 1.14 1.24 1.22 1.19 1.17 1.19 1.20 1.17 1.13 1.08 1.05 0.99 0.94 0.94 0.97 0.99 1.01 1.04 1.15 1.29 1.31 1.32 1.32 1.32 1.31 1.32 1.29 1.25 1.21 1.19 1.18 1.18 1.17 1.10
0.64 0.67 0.71 0.72 0.75 0.75 0.83 0.91 0.98 1.05 1.12 1.16 1.16 1.16 1.17 1.19 1.16 1.13 1.08 1.04 0.96 0.90 0.91 0.92 0.96 0.98 1.00 1.05 1.10 1.21 1.25 1.26 1.24 1.25 1.18 1.09 1.08 1.08 1.11 1.03 1.00 0.98 0.93
0.63 0.65 0.69 0.72 0.72 0.74 0.77 0.84 0.92 0.98 1.04 1.08 1.12 1.13 1.13 1.11 1.09 1.06 1.05 1.01 0.97 0.93 0.90 0.89 0.91 0.93 0.97 1.02 1.04 1.07 1.06 1.03 1.00 1.00 0.98 1.00 0.97 0.94 0.99 0.96 0.97 1.02 0.99
0.62 0.63 0.67 0.69 0.73 0.74 0.76 0.81 0.87 0.94 0.97 1.00 1.04 1.07 1.08 1.08 1.07 1.05 1.02 0.99 0.95 0.93 0.90 0.89 0.90 0.92 0.94 0.99 1.02 1.01 0.98 0.93 0.93 0.90 0.98 0.93 0.95 1.01 1.02 1.00 1.01 1.01 1.02
0.60 0.62 0.64 0.66 0.70 0.77 0.76 0.80 0.83 0.88 0.91 0.94 0.99 1.00 1.01 1.03 1.02 1.03 0.96 0.96 0.94 0.92 0.93 0.92 0.89 0.90 0.91 0.96 0.99 1.00 0.97 0.95 0.94 0.96 0.95 0.95 1.00 1.04 1.02 0.96 0.96 0.94 0.93
0.60 0.62 0.65 0.67 0.70 0.74 0.77 0.78 0.80 0.82 0.85 0.87 0.90 0.94 0.95 0.96 0.94 0.94 0.93 0.90 0.89 0.90 0.92 0.93 0.93 0.94 0.90 0.91 0.94 0.95 0.94 0.92 0.92 0.95 0.96 0.96 0.93 0.94 0.93 0.88 0.83 0.87 0.84
0.57 0.60 0.63 0.64 0.66 0.71 0.75 0.76 0.77 0.76 0.77 0.81 0.85 0.87 0.89 0.88 0.88 0.88 0.89 0.91 0.91 0.90 0.92 0.93 0.93 0.96 0.96 0.94 0.95 0.94 0.94 0.92 0.90 0.89 0.90 0.91 0.91 0.88 0.83 0.71 0.59 0.50 0.48
0.54 0.60 0.62 0.62 0.64 0.68 0.70 0.70 0.71 0.71 0.73 0.75 0.78 0.81 0.81 0.83 0.85 0.82 0.85 0.84 0.82 0.83 0.84 0.84 0.86 0.88 0.90 0.87 0.88 0.87 0.85 0.81 0.77 0.70 0.61 0.55 0.52 0.51 0.50 0.48 0.46 0.43 0.44
0.51 0.55 0.56 0.59 0.61 0.65 0.66 0.65 0.66 0.69 0.72 0.71 0.73 0.74 0.75 0.77 0.78 0.78 0.78 0.79 0.78 0.76 0.72 0.74 0.74 0.73 0.77 0.78 0.72 0.67 0.62 0.58 0.52 0.47 0.46 0.45 0.44 0.43 0.43 0.42 0.42 0.41 0.41
0.50 0.52 0.53 0.56 0.59 0.62 0.64 0.62 0.64 0.66 0.67 0.67 0.66 0.67 0.69 0.71 0.71 0.70 0.72 0.72 0.72 0.70 0.69 0.64 0.61 0.61 0.61 0.61 0.59 0.57 0.54 0.51 0.49 0.49 0.48 0.48 0.48 0.48 0.47 0.47 0.46 0.44 0.41
0.48 0.50 0.51 0.51 0.53 0.58 0.61 0.61 0.61 0.61 0.61 0.61 0.62 0.63 0.63 0.64 0.65 0.65 0.66 0.66 0.65 0.65 0.63 0.62 0.61 0.61 0.61 0.61 0.62 0.61 0.60 0.59 0.58 0.56 0.55 0.53 0.48 0.46 0.43 0.41 0.40 0.38 0.35
0.47 0.48 0.49 0.49 0.50 0.54 0.56 0.59 0.59 0.58 0.55 0.54 0.55 0.56 0.57 0.57 0.58 0.58 0.58 0.58 0.58 0.58 0.55 0.55 0.55 0.53 0.52 0.54 0.56 0.55 0.54 0.53 0.50 0.46 0.42 0.38 0.35 0.32 0.29 0.27 0.26 0.25 0.24
0.47 0.46 0.48 0.48 0.49 0.51 0.53 0.56 0.57 0.56 0.55 0.53 0.52 0.51 0.50 0.49 0.49 0.48 0.48 0.51 0.50 0.50 0.50 0.49 0.48 0.47 0.47 0.46 0.45 0.44 0.42 0.40 0.37 0.33 0.30 0.27 0.26 0.24 0.22 0.20 0.19 0.19 0.18

GFSMW_prec_pwat_090.txt.gz
Precipitable_Water
0.41 0.43 0.46 0.46 0.47 0.46 0.50 0.63 0.76 0.87 0.99 1.20 1.30 1.35 1.24 1.18 1.17 1.19 1.23 1.22 1.16 1.06 0.97 0.94 0.98 1.09 1.15 1.26 1.39 1.35 1.30 1.28 1.30 1.33 1.38 1.37 1.41 1.38 1.35 1.30 1.10 1.02 0.91
0.40 0.41 0.41 0.44 0.48 0.51 0.55 0.70 0.75 0.83 0.93 1.11 1.28 1.23 1.21 1.17 1.08 1.13 1.19 1.20 1.16 1.07 0.95 0.95 1.05 1.17 1.22 1.26 1.30 1.29 1.20 1.21 1.32 1.28 1.28 1.11 1.22 1.31 1.31 1.26 1.08 0.95 0.93
0.41 0.37 0.38 0.38 0.44 0.52 0.67 0.75 0.79 0.80 0.93 1.09 1.28 1.24 1.26 1.20 1.05 1.05 1.08 1.16 1.18 1.03 0.95 1.01 1.17 1.24 1.27 1.27 1.32 1.28 1.23 1.14 1.30 1.38 1.25 1.06 0.99 1.13 1.25 1.18 1.00 0.94 0.93
0.54 0.46 0.47 0.43 0.46 0.52 0.68 0.78 0.80 0.83 0.95 1.10 1.25 1.12 1.02 0.94 0.94 0.96 1.07 1.10 1.11 1.00 0.96 1.10 1.22 1.24 1.32 1.31 1.31 1.32 1.27 1.20 1.16 1.35 1.35 1.29 1.20 1.03 0.99 1.11 0.98 0.96 0.93
0.66 0.61 0.60 0.53 0.56 0.66 0.72 0.82 0.84 0.87 0.95 1.14 1.23 1.14 1.07 1.03 0.97 0.99 1.03 1.05 0.96 0.93 0.98 1.10 1.18 1.20 1.28 1.32 1.35 1.31 1.27 1.27 1.25 1.26 1.29 1.23 1.22 1.17 0.96 0.79 0.86 0.94 0.96
0.71 0.72 0.76 0.65 0.62 0.80 0.92 0.97 0.91 0.87 1.09 1.23 1.19 1.11 1.05 0.96 0.92 0.97 1.00 0.99 0.93 0.89 1.01 1.11 1.18 1.27 1.28 1.31 1.32 1.34 1.35 1.30 1.35 1.31 1.28 1.20 1.14 1.08 1.02 0.90 0.93 0.89 0.94
0.77 0.76 0.75 0.68 0.69 0.81 0.92 1.06 1.11 1.06 1.20 1.19 1.12 1.09 1.07 0.97 0.94 1.00 1.01 0.94 0.86 0.85 0.99 1.12 1.17 1.23 1.29 1.34 1.39 1.37 1.37 1.34 1.36 1.34 1.28 1.25 1.21 1.16 1.11 1.07 1.00 0.91 0.97
0.78 0.78 0.80 0.74 0.77 0.83 0.94 0.99 1.21 1.17 1.11 1.06 1.06 1.13 1.09 1.01 1.03 1.04 1.04 0.96 0.85 0.91 1.04 1.11 1.17 1.23 1.30 1.37 1.42 1.41 1.38 1.40 1.36 1.35 1.33 1.29 1.26 1.19 1.13 1.06 1.02 0.93 0.96
0.79 0.79 0.83 0.80 0.81 0.85 1.03 1.08 1.08 1.14 1.12 1.06 1.07 1.11 1.07 1.00 1.03 1.06 1.11 1.03 0.92 0.99 1.03 1.09 1.14 1.21 1.30 1.37 1.42 1.41 1.40 1.40 1.41 1.39 1.35 1.31 1.30 1.27 1.20 1.20 1.16 1.02 0.93
0.71 0.78 0.81 0.84 0.87 0.92 0.97 1.07 1.14 1.20 1.17 1.15 1.15 1.11 1.04 1.02 1.08 1.10 1.11 1.02 0.94 1.01 1.01 1.04 1.10 1.16 1.24 1.33 1.39 1.39 1.42 1.40 1.39 1.39 1.34 1.33 1.31 1.25 1.26 1.23 1.19 1.14 1.02
0.69 0.72 0.80 0.87 0.91 0.92 0.94 0.99 1.09 1.25 1.29 1.29 1.23 1.14 1.06 1.07 1.09 1.14 1.14 1.03 0.97 1.03 1.01 1.03 1.07 1.13 1.19 1.31 1.36 1.38 1.38 1.36 1.35 1.37 1.34 1.31 1.32 1.23 1.26 1.26 1.22 1.17 1.12
0.68 0.71 0.74 0.84 0.90 0.95 0.99 1.04 1.12 1.18 1.36 1.34 1.32 1.20 1.11 1.11 1.12 1.15 1.16 1.09 0.98 1.03 1.03 1.04 1.05 1.10 1.15 1.29 1.36 1.34 1.36 1.33 1.31 1.34 1.31 1.30 1.31 1.27 1.29 1.27 1.18 1.13 1.14
0.67 0.68 0.70 0.73 0.83 0.96 1.05 1.07 1.10 1.16 1.20 1.26 1.36 1.23 1.14 1.13 1.15 1.16 1.18 1.17 1.06 1.04 1.03 1.02 1.00 1.03 1.12 1.19 1.33 1.35 1.32 1.33 1.32 1.32 1.28 1.27 1.28 1.25 1.26 1.22 1.16 1.15 1.12
0.64 0.66 0.67 0.69 0.74 0.87 0.96 1.00 1.10 1.16 1.17 1.31 1.26 1.15 1.11 1.15 1.16 1.21 1.22 1.15 1.08 1.03 0.98 0.98 0.99 1.00 1.04 1.15 1.25 1.34 1.30 1.33 1.32 1.33 1.30 1.29 1.28 1.25 1.22 1.21 1.19 1.15 1.09
0.59 0.62 0.64 0.68 0.70 0.74 0.82 0.90 0.95 1.08 1.12 1.15 1.15 1.23 1.23 1.21 1.21 1.19 1.19 1.14 1.05 1.00 0.96 0.92 0.96 0.96 0.99 1.02 1.12 1.25 1.29 1.28 1.24 1.24 1.24 1.24 1.25 1.27 1.27 1.23 1.19 1.17 1.14
0.57 0.61 0.63 0.67 0.70 0.70 0.72 0.77 0.82 0.93 1.01 1.06 1.10 1.16 1.19 1.19 1.15 1.14 1.12 1.10 1.03 0.98 0.96 0.92 0.91 0.95 0.96 1.01 1.08 1.13 1.11 1.19 1.19 1.17 1.16 1.20 1.21 1.19 1.17 1.15 1.12 1.10 0.99
0.54 0.58 0.61 0.63 0.67 0.72 0.71 0.72 0.76 0.87 0.93 0.97 1.03 1.04 1.09 1.10 1.12 1.11 1.09 1.07 1.01 0.98 0.95 0.93 0.93 0.90 0.93 0.98 1.01 1.04 1.03 0.99 0.99 1.06 1.03 1.05 1.04 1.03 0.99 0.94 0.94 0.93 0.94
0.52 0.57 0.60 0.64 0.66 0.69 0.73 0.75 0.75 0.82 0.86 0.92 0.93 0.99 0.99 0.99 1.01 1.01 1.00 1.00 1.00 0.95 0.94 0.92 0.92 0.91 0.92 0.94 0.97 0.99 0.97 0.94 0.92 0.92 0.90 0.92 0.92 0.96 0.93 0.91 0.92 0.93 0.94
0.51 0.55 0.59 0.62 0.66 0.67 0.70 0.74 0.74 0.73 0.78 0.81 0.87 0.89 0.92 0.89 0.90 0.92 0.94 0.93 0.94 0.95 0.92 0.90 0.89 0.90 0.92 0.95 0.94 0.95 0.92 0.91 0.91 0.89 0.90 0.89 0.90 0.89 0.93 0.96 0.93 0.93 0.92
0.50 0.53 0.56 0.60 0.63 0.66 0.69 0.69 0.70 0.71 0.72 0.74 0.81 0.84 0.85 0.85 0.89 0.86 0.87 0.89 0.90 0.90 0.90 0.89 0.87 0.88 0.90 0.92 0.93 0.96 0.94 0.86 0.87 0.90 0.92 0.92 0.91 0.91 0.92 0.90 0.86 0.82 0.83
0.49 0.53 0.55 0.55 0.60 0.64 0.65 0.64 0.67 0.67 0.71 0.74 0.75 0.78 0.80 0.82 0.82 0.83 0.83 0.83 0.84 0.83 0.83 0.83 0.85 0.86 0.87 0.89 0.90 0.90 0.89 0.86 0.83 0.82 0.84 0.87 0.88 0.87 0.84 0.82 0.73 0.61 0.53
0.47 0.49 0.50 0.51 0.57 0.61 0.62 0.60 0.61 0.65 0.68 0.69 0.70 0.71 0.72 0.73 0.76 0.78 0.76 0.76 0.77 0.74 0.76 0.76 0.77 0.80 0.81 0.82 0.83 0.83 0.83 0.82 0.79 0.74 0.73 0.71 0.69 0.65 0.58 0.53 0.49 0.45 0.42
0.44 0.47 0.48 0.50 0.52 0.58 0.59 0.58 0.60 0.61 0.63 0.63 0.65 0.66 0.67 0.68 0.68 0.66 0.67 0.68 0.70 0.69 0.69 0.69 0.70 0.70 0.72 0.74 0.76 0.75 0.75 0.73 0.66 0.63 0.59 0.55 0.52 0.49 0.48 0.46 0.46 0.44 0.43
0.43 0.45 0.46 0.47 0.49 0.55 0.56 0.56 0.58 0.59 0.60 0.59 0.60 0.61 0.62 0.62 0.63 0.63 0.63 0.64 0.63 0.63 0.63 0.63 0.63 0.63 0.64 0.64 0.65 0.64 0.63 0.61 0.60 0.58 0.57 0.56 0.55 0.55 0.54 0.52 0.49 0.47 0.45
0.43 0.44 0.44 0.45 0.48 0.51 0.53 0.55 0.57 0.57 0.55 0.56 0.56 0.56 0.57 0.58 0.58 0.59 0.59 0.59 0.60 0.60 0.58 0.59 0.60 0.59 0.59 0.61 0.63 0.63 0.62 0.61 0.61 0.59 0.55 0.52 0.48 0.44 0.42 0.39 0.36 0.34 0.32
0.43 0.43 0.43 0.44 0.46 0.48 0.50 0.53 0.54 0.55 0.53 0.51 0.51 0.51 0.52 0.52 0.53 0.53 0.53 0.56 0.56 0.56 0.56 0.56 0.55 0.55 0.56 0.56 0.56 0.53 0.50 0.46 0.42 0.39 0.35 0.32 0.30 0.28 0.27 0.26 0.25 0.25 0.23

GFSMW_prec_pwat_096.txt.gz
Precipitable_Water
0.49 0.54 0.50 0.50 0.53 0.55 0.51 0.44 0.48 0.64 0.80 0.87 0.98 1.07 1.07 1.11 1.17 1.33 1.43 1.25 1.22 1.21 1.20 1.19 1.17 1.18 1.04 0.95 1.00 1.05 1.00 1.09 1.21 1.22 1.26 1.31 1.42 1.48 1.50 1.51 1.51 1.51 1.46
0.51 0.55 0.59 0.56 0.53 0.54 0.56 0.55 0.48 0.60 0.74 0.84 0.90 1.06 1.01 1.11 1.12 1.28 1.42 1.46 1.30 1.28 1.24 1.22 1.18 1.16 1.01 0.96 0.96 1.00 0.99 1.08 1.21 1.13 1.18 1.04 1.17 1.34 1.41 1.48 1.48 1.47 1.43
0.49 0.54 0.58 0.61 0.59 0.57 0.57 0.58 0.58 0.62 0.72 0.86 0.92 0.93 1.05 1.06 1.07 1.14 1.21 1.54 1.50 1.34 1.30 1.29 1.22 1.17 1.04 0.91 0.94 1.00 1.08 1.05 1.18 1.27 1.18 1.03 0.95 1.13 1.29 1.35 1.46 1.45 1.38
0.52 0.56 0.61 0.64 0.63 0.64 0.63 0.63 0.65 0.67 0.84 0.95 0.92 0.82 0.74 0.78 0.88 0.98 1.23 1.52 1.56 1.34 1.32 1.32 1.24 1.16 0.99 0.93 0.93 1.12 1.15 1.15 1.08 1.25 1.30 1.25 1.15 1.00 0.91 1.27 1.36 1.41 1.35
0.57 0.59 0.67 0.73 0.67 0.71 0.71 0.68 0.74 0.73 0.89 0.92 0.96 0.86 0.78 0.82 0.89 1.06 1.00 1.07 1.37 1.40 1.32 1.32 1.19 1.12 0.99 0.96 1.01 1.13 1.18 1.21 1.22 1.22 1.22 1.21 1.16 1.09 1.01 1.01 1.19 1.32 1.34
0.63 0.69 0.78 0.79 0.72 0.77 0.77 0.75 0.78 0.75 0.87 0.93 0.98 0.91 0.82 0.84 0.91 1.03 1.08 1.19 1.26 1.37 1.31 1.28 1.19 1.13 0.98 0.97 1.04 1.17 1.20 1.22 1.26 1.27 1.26 1.19 1.10 1.04 1.00 1.03 1.14 1.15 1.25
0.63 0.70 0.76 0.77 0.73 0.78 0.79 0.77 0.80 0.77 0.90 0.94 0.99 0.97 0.95 0.91 0.94 1.00 1.13 1.18 1.20 1.23 1.19 1.19 1.19 1.06 0.95 0.99 1.05 1.14 1.19 1.22 1.23 1.25 1.23 1.25 1.20 1.16 1.10 1.15 1.15 1.10 1.21
0.66 0.73 0.78 0.81 0.78 0.82 0.82 0.81 0.81 0.80 0.97 1.00 1.03 1.05 1.02 0.99 1.04 1.14 1.18 1.23 1.17 1.15 1.17 1.18 1.17 1.05 0.96 1.02 1.09 1.09 1.14 1.22 1.22 1.23 1.25 1.22 1.20 1.21 1.18 1.20 1.16 1.07 1.09
0.63 0.71 0.79 0.83 0.84 0.84 0.84 0.84 0.82 0.85 1.01 1.06 1.10 1.07 1.08 1.09 1.08 1.17 1.34 1.30 1.15 1.13 1.12 1.14 1.08 1.00 1.00 1.03 1.07 1.10 1.14 1.19 1.24 1.24 1.26 1.23 1.23 1.25 1.25 1.32 1.25 1.08 0.93
0.64 0.70 0.75 0.82 0.86 0.87 0.85 0.89 0.88 0.88 1.07 1.18 1.18 1.15 1.14 1.19 1.19 1.22 1.37 1.21 1.13 1.09 1.06 1.08 1.08 1.02 1.00 1.05 1.09 1.11 1.17 1.17 1.23 1.29 1.29 1.28 1.28 1.23 1.28 1.31 1.26 1.19 1.08
0.62 0.66 0.71 0.79 0.83 0.86 0.88 0.86 0.89 0.94 1.07 1.23 1.20 1.22 1.21 1.21 1.25 1.27 1.24 1.20 1.11 1.05 1.08 1.12 1.07 1.00 1.01 1.03 1.05 1.09 1.12 1.13 1.19 1.32 1.30 1.28 1.28 1.27 1.25 1.31 1.26 1.18 1.14
0.62 0.65 0.67 0.73 0.79 0.83 0.86 0.86 0.89 0.97 1.06 1.18 1.22 1.16 1.13 1.22 1.11 1.30 1.30 1.25 1.06 1.10 1.11 1.12 1.07 0.98 0.99 1.03 1.02 1.00 1.07 1.12 1.21 1.30 1.27 1.28 1.29 1.24 1.29 1.28 1.23 1.17 1.17
0.60 0.59 0.63 0.68 0.73 0.79 0.85 0.88 0.91 0.98 1.07 1.14 1.18 1.18 1.15 1.18 1.21 1.31 1.27 1.21 1.12 1.14 1.15 1.14 1.05 0.97 0.98 0.96 1.00 1.01 1.07 1.15 1.30 1.27 1.30 1.28 1.28 1.24 1.26 1.26 1.22 1.19 1.19
0.57 0.57 0.60 0.66 0.71 0.75 0.82 0.84 0.93 0.98 1.03 1.07 1.12 1.14 1.19 1.29 1.33 1.34 1.30 1.21 1.17 1.13 1.13 1.13 1.03 0.97 0.94 0.93 0.98 1.03 1.07 1.20 1.29 1.33 1.32 1.31 1.29 1.27 1.27 1.25 1.23 1.21 1.19
0.57 0.56 0.57 0.63 0.69 0.72 0.76 0.81 0.85 0.92 0.99 0.98 0.97 1.04 1.10 1.16 1.26 1.28 1.25 1.16 1.13 1.10 1.11 1.06 0.97 0.91 0.88 0.88 0.92 0.99 1.09 1.15 1.23 1.26 1.27 1.30 1.35 1.33 1.33 1.27 1.24 1.21 1.16
0.54 0.56 0.56 0.61 0.65 0.69 0.73 0.75 0.78 0.83 0.92 0.94 0.93 1.00 1.05 1.08 1.11 1.14 1.19 1.10 1.07 1.07 1.06 1.03 0.97 0.88 0.86 0.88 0.92 0.99 1.05 1.14 1.16 1.18 1.21 1.24 1.24 1.28 1.27 1.28 1.27 1.24 1.17
0.50 0.51 0.52 0.56 0.62 0.65 0.69 0.72 0.74 0.78 0.81 0.88 0.90 0.94 0.99 0.97 1.02 1.01 1.11 1.06 1.03 1.04 1.01 0.99 0.97 0.89 0.84 0.87 0.92 0.93 0.97 1.00 1.05 1.07 1.14 1.15 1.17 1.21 1.20 1.19 1.20 1.19 1.19
0.48 0.48 0.50 0.53 0.58 0.64 0.67 0.69 0.73 0.74 0.75 0.78 0.87 0.87 0.93 0.93 0.97 0.94 0.99 1.02 1.00 0.98 0.96 0.96 0.95 0.95 0.90 0.88 0.95 0.96 0.96 0.93 0.99 0.99 1.02 1.09 1.10 1.14 1.14 1.12 1.09 1.09 1.08
0.44 0.47 0.51 0.52 0.55 0.58 0.62 0.65 0.68 0.70 0.71 0.72 0.75 0.79 0.88 0.87 0.88 0.91 0.93 0.96 0.95 0.94 0.93 0.93 0.93 0.94 0.94 0.94 0.93 0.96 0.95 0.92 0.96 0.97 1.00 0.94 0.96 1.02 1.05 1.02 0.99 0.99 0.99
0.43 0.46 0.49 0.51 0.53 0.54 0.57 0.59 0.62 0.65 0.65 0.69 0.71 0.75 0.78 0.81 0.85 0.85 0.86 0.89 0.89 0.90 0.90 0.92 0.92 0.91 0.91 0.93 0.94 0.93 0.90 0.88 0.88 0.90 0.92 0.92 0.96 0.98 0.97 0.95 0.95 0.88 0.88
0.43 0.46 0.47 0.47 0.49 0.52 0.53 0.53 0.57 0.59 0.64 0.67 0.69 0.70 0.72 0.70 0.78 0.80 0.82 0.82 0.84 0.83 0.84 0.85 0.86 0.87 0.88 0.88 0.90 0.90 0.89 0.85 0.82 0.83 0.84 0.87 0.88 0.88 0.89 0.88 0.85 0.84 0.86
0.41 0.44 0.45 0.46 0.48 0.50 0.50 0.49 0.50 0.56 0.60 0.62 0.63 0.65 0.67 0.67 0.67 0.70 0.73 0.75 0.75 0.76 0.75 0.75 0.78 0.80 0.82 0.83 0.84 0.84 0.84 0.84 0.82 0.80 0.78 0.81 0.83 0.82 0.80 0.81 0.80 0.80 0.78
0.42 0.43 0.43 0.44 0.46 0.48 0.49 0.48 0.50 0.52 0.55 0.57 0.58 0.59 0.61 0.63 0.64 0.62 0.62 0.62 0.66 0.67 0.67 0.66 0.68 0.70 0.73 0.74 0.76 0.77 0.76 0.76 0.76 0.76 0.75 0.75 0.75 0.73 0.73 0.74 0.73 0.72 0.69
0.39 0.41 0.41 0.42 0.42 0.45 0.47 0.48 0.49 0.50 0.51 0.51 0.52 0.54 0.56 0.57 0.58 0.60 0.61 0.59 0.59 0.58 0.59 0.59 0.60 0.62 0.64 0.66 0.67 0.68 0.68 0.68 0.68 0.68 0.68 0.69 0.69 0.67 0.66 0.64 0.62 0.61 0.59
0.38 0.39 0.39 0.39 0.40 0.43 0.44 0.46 0.47 0.47 0.47 0.48 0.49 0.50 0.51 0.52 0.53 0.55 0.55 0.55 0.57 0.57 0.55 0.56 0.56 0.56 0.56 0.59 0.62 0.61 0.60 0.60 0.61 0.62 0.61 0.61 0.60 0.59 0.59 0.59 0.59 0.58 0.55
0.36 0.36 0.37 0.38 0.39 0.40 0.41 0.43 0.45 0.46 0.45 0.43 0.44 0.46 0.48 0.49 0.50 0.50 0.50 0.54 0.54 0.55 0.55 0.55 0.55 0.55 0.55 0.56 0.56 0.57 0.56 0.56 0.56 0.54 0.52 0.52 0.52 0.50 0.48 0.45 0.43 0.42 0.40

GFSMW_prec_pwat_102.txt.gz
Precipitable_Water
0.46 0.50 0.51 0.53 0.53 0.54 0.54 0.55 0.55 0.57 0.59 0.58 0.51 0.72 0.80 0.89 0.95 1.21 1.33 1.29 1.25 1.22 1.25 1.28 1.31 1.23 1.14 1.13 1.14 1.13 1.06 0.99 1.06 1.01 0.99 1.19 1.17 1.21 1.22 1.32 1.44 1.50 1.64
0.45 0.47 0.48 0.50 0.53 0.55 0.58 0.56 0.56 0.58 0.62 0.62 0.62 0.69 0.89 0.89 0.91 0.99 1.15 1.29 1.33 1.24 1.23 1.26 1.32 1.26 1.17 1.15 1.16 1.12 1.04 1.02 1.03 0.89 0.93 0.83 0.91 1.11 1.22 1.37 1.42 1.49 1.58
0.45 0.45 0.45 0.47 0.51 0.53 0.58 0.61 0.65 0.64 0.67 0.71 0.68 0.66 0.86 0.96 0.93 0.92 0.94 1.03 1.32 1.30 1.22 1.27 1.38 1.33 1.25 1.19 1.19 1.14 1.08 0.95 0.97 1.02 0.89 0.80 0.68 0.93 1.17 1.24 1.34 1.41 1.40
0.46 0.45 0.46 0.47 0.51 0.56 0.62 0.69 0.70 0.71 0.72 0.74 0.72 0.68 0.68 0.82 0.84 0.83 0.89 0.96 1.22 1.30 1.25 1.28 1.33 1.37 1.32 1.25 1.23 1.23 1.15 1.10 0.88 1.01 1.03 1.08 0.98 0.88 0.86 1.18 1.30 1.40 1.35
0.45 0.45 0.47 0.49 0.54 0.59 0.63 0.70 0.73 0.76 0.78 0.80 0.77 0.73 0.69 0.87 0.94 0.99 0.97 1.03 1.09 1.22 1.23 1.18 1.21 1.54 1.33 1.30 1.29 1.25 1.20 1.17 1.02 0.88 0.93 1.03 1.02 1.12 0.98 0.96 1.17 1.33 1.38
0.47 0.49 0.50 0.52 0.54 0.60 0.66 0.72 0.77 0.78 0.83 0.86 0.80 0.75 0.75 0.78 0.95 0.97 1.00 1.03 1.04 1.15 1.21 1.28 1.28 1.29 1.15 1.12 1.25 1.27 1.28 1.21 1.06 0.95 0.99 1.08 0.99 1.02 1.00 1.08 1.13 1.17 1.27
0.48 0.46 0.47 0.49 0.52 0.56 0.65 0.74 0.79 0.76 0.82 0.80 0.80 0.81 0.79 0.78 0.98 1.00 1.11 1.08 1.04 1.08 1.14 1.16 1.15 1.13 1.17 1.15 1.22 1.16 1.31 1.18 1.04 0.96 1.00 1.14 1.15 1.18 1.12 1.14 1.13 1.10 1.21
0.46 0.43 0.44 0.49 0.51 0.55 0.63 0.76 0.82 0.77 0.84 0.85 0.84 0.87 0.88 0.85 1.05 1.13 1.17 1.17 1.09 1.11 1.20 1.17 1.10 1.11 1.17 1.20 1.21 1.24 1.32 1.19 1.06 1.03 1.08 1.16 1.20 1.24 1.23 1.21 1.14 1.08 1.12
0.42 0.41 0.42 0.46 0.51 0.55 0.65 0.76 0.84 0.85 0.86 0.85 0.85 0.92 1.07 1.08 1.14 1.14 1.22 1.28 1.22 1.18 1.14 1.17 1.14 1.19 1.33 1.23 1.29 1.31 1.24 1.16 1.04 1.09 1.12 1.14 1.20 1.23 1.25 1.29 1.29 1.14 0.97
0.43 0.43 0.41 0.44 0.50 0.57 0.68 0.79 0.90 0.85 0.88 0.88 0.91 1.06 1.19 1.14 1.12 1.17 1.19 1.20 1.20 1.14 1.13 1.15 1.20 1.28 1.41 1.46 1.47 1.33 1.23 1.14 1.04 1.10 1.11 1.11 1.20 1.19 1.23 1.24 1.26 1.24 1.13
0.42 0.42 0.41 0.45 0.51 0.57 0.69 0.78 0.88 0.88 0.89 0.90 0.93 1.01 1.14 1.15 1.14 1.15 1.19 1.27 1.21 1.14 1.13 1.16 1.29 1.34 1.44 1.43 1.40 1.27 1.22 1.04 0.97 1.13 1.07 1.06 1.13 1.15 1.20 1.24 1.24 1.18 1.16
0.40 0.39 0.37 0.43 0.51 0.55 0.66 0.75 0.83 0.86 0.90 0.91 0.93 0.96 1.03 1.09 1.19 1.21 1.21 1.27 1.26 1.24 1.22 1.25 1.24 1.24 1.36 1.40 1.29 1.26 1.14 0.96 0.99 1.03 1.04 1.08 1.15 1.11 1.16 1.19 1.16 1.19 1.22
0.33 0.35 0.37 0.42 0.50 0.54 0.62 0.73 0.81 0.84 0.90 0.91 0.96 1.00 1.05 1.09 1.13 1.24 1.32 1.33 1.30 1.24 1.18 1.20 1.09 1.09 1.38 1.34 1.20 1.18 1.09 1.06 1.05 1.06 1.06 1.03 1.08 1.04 1.09 1.12 1.21 1.19 1.24
0.32 0.36 0.41 0.43 0.50 0.55 0.60 0.68 0.76 0.82 0.86 0.88 0.93 0.98 1.03 1.08 1.15 1.17 1.28 1.32 1.30 1.20 1.20 1.19 1.11 1.17 1.26 1.22 1.19 1.18 1.11 1.06 1.04 1.06 1.04 1.02 1.03 1.04 1.13 1.20 1.25 1.23 1.20
0.36 0.41 0.43 0.46 0.51 0.54 0.59 0.66 0.73 0.78 0.80 0.83 0.90 0.91 1.00 1.00 1.08 1.11 1.15 1.22 1.25 1.24 1.23 1.17 1.16 1.18 1.19 1.12 1.14 1.14 1.06 1.03 0.99 0.98 1.01 1.03 1.10 1.17 1.26 1.28 1.24 1.22 1.19
0.38 0.42 0.45 0.49 0.53 0.52 0.57 0.65 0.69 0.74 0.78 0.80 0.82 0.86 0.91 0.95 0.99 1.03 1.06 1.07 1.15 1.16 1.19 1.17 1.15 1.10 1.09 1.08 1.13 1.11 1.01 0.94 0.91 0.90 0.95 1.03 1.09 1.14 1.28 1.29 1.32 1.30 1.20
0.39 0.44 0.47 0.50 0.52 0.54 0.58 0.62 0.67 0.71 0.74 0.76 0.77 0.82 0.86 0.89 0.93 0.94 0.98 0.99 1.02 1.03 1.04 1.10 1.13 1.08 1.07 1.07 1.07 1.02 0.96 0.90 0.86 0.88 0.92 0.99 1.04 1.09 1.18 1.23 1.25 1.24 1.24
0.43 0.44 0.48 0.50 0.52 0.55 0.58 0.62 0.65 0.67 0.69 0.72 0.74 0.76 0.81 0.83 0.86 0.88 0.88 0.92 0.95 0.96 1.01 1.01 1.04 1.08 1.01 0.98 0.98 0.95 0.92 0.87 0.86 0.86 0.90 0.93 0.96 0.99 1.07 1.16 1.16 1.14 1.17
0.45 0.47 0.49 0.51 0.53 0.55 0.57 0.57 0.59 0.63 0.65 0.67 0.69 0.72 0.73 0.76 0.78 0.80 0.80 0.84 0.87 0.90 0.92 0.95 0.96 0.99 0.96 0.96 0.92 0.91 0.89 0.84 0.83 0.86 0.89 0.93 0.96 0.97 0.97 1.02 1.06 1.06 1.07
0.46 0.46 0.49 0.52 0.52 0.53 0.55 0.53 0.54 0.57 0.60 0.63 0.66 0.69 0.71 0.72 0.73 0.75 0.76 0.79 0.83 0.85 0.87 0.88 0.88 0.93 0.92 0.92 0.91 0.90 0.91 0.87 0.85 0.86 0.88 0.89 0.93 0.95 0.95 0.92 0.91 0.97 0.98
0.44 0.47 0.48 0.48 0.50 0.52 0.52 0.50 0.51 0.51 0.56 0.60 0.63 0.64 0.66 0.68 0.69 0.71 0.74 0.75 0.78 0.80 0.81 0.82 0.82 0.85 0.88 0.89 0.92 0.91 0.89 0.87 0.85 0.83 0.84 0.86 0.89 0.91 0.91 0.91 0.90 0.90 0.91
0.44 0.46 0.46 0.46 0.48 0.49 0.49 0.48 0.47 0.50 0.52 0.54 0.56 0.59 0.61 0.62 0.64 0.66 0.69 0.71 0.72 0.73 0.74 0.74 0.76 0.77 0.79 0.81 0.84 0.85 0.85 0.85 0.83 0.81 0.81 0.84 0.87 0.87 0.87 0.87 0.86 0.87 0.86
0.43 0.44 0.43 0.43 0.45 0.45 0.46 0.44 0.45 0.47 0.48 0.48 0.49 0.51 0.54 0.57 0.59 0.59 0.60 0.63 0.66 0.66 0.66 0.67 0.67 0.69 0.72 0.73 0.76 0.77 0.77 0.78 0.77 0.78 0.77 0.78 0.79 0.80 0.81 0.80 0.80 0.80 0.79
0.41 0.42 0.41 0.40 0.40 0.42 0.43 0.43 0.44 0.43 0.44 0.44 0.45 0.46 0.47 0.48 0.51 0.53 0.55 0.55 0.57 0.57 0.59 0.61 0.61 0.62 0.64 0.66 0.69 0.69 0.69 0.71 0.71 0.72 0.70 0.71 0.73 0.74 0.73 0.73 0.73 0.73 0.72
0.36 0.35 0.34 0.34 0.34 0.35 0.36 0.37 0.38 0.39 0.37 0.37 0.39 0.41 0.42 0.43 0.44 0.46 0.47 0.48 0.51 0.53 0.53 0.54 0.54 0.55 0.56 0.59 0.62 0.62 0.63 0.63 0.64 0.64 0.64 0.63 0.63 0.63 0.63 0.65 0.65 0.66 0.65
0.33 0.32 0.31 0.31 0.30 0.30 0.29 0.30 0.31 0.30 0.30 0.29 0.30 0.31 0.34 0.36 0.38 0.40 0.41 0.44 0.45 0.47 0.49 0.50 0.51 0.51 0.52 0.52 0.54 0.55 0.57 0.58 0.59 0.58 0.56 0.56 0.56 0.56 0.56 0.56 0.56 0.58 0.57

GFSMW_prec_pwat_105.txt.gz
Precipitable_Water
0.62 0.64 0.66 0.63 0.61 0.61 0.57 0.56 0.54 0.56 0.56 0.54 0.56 0.59 0.57 0.72 0.96 1.13 1.25 1.41 1.51 1.56 1.51 1.38 1.31 1.23 1.20 1.26 1.22 1.17 1.11 1.09 1.16 1.08 0.98 1.03 1.11 1.11 1.17 1.22 1.28 1.23 1.28
0.58 0.61 0.57 0.56 0.55 0.55 0.57 0.57 0.57 0.58 0.58 0.57 0.58 0.61 0.61 0.61 0.84 1.04 1.08 1.20 1.30 1.48 1.55 1.42 1.36 1.25 1.20 1.27 1.27 1.15 1.06 1.11 1.15 1.00 0.92 0.73 0.87 0.98 1.10 1.12 1.14 1.19 1.30
0.54 0.52 0.51 0.51 0.53 0.53 0.55 0.56 0.59 0.63 0.67 0.67 0.66 0.64 0.67 0.65 0.65 0.93 1.01 1.06 1.18 1.26 1.42 1.36 1.48 1.21 1.19 1.20 1.28 1.19 1.07 0.99 1.09 1.13 0.96 0.72 0.63 0.77 0.99 1.02 1.11 1.19 1.29
0.53 0.50 0.47 0.47 0.49 0.52 0.56 0.59 0.61 0.65 0.71 0.75 0.71 0.68 0.65 0.62 0.59 0.72 1.04 0.98 1.05 1.23 1.24 1.31 1.54 1.24 1.21 1.23 1.32 1.29 1.17 1.13 0.95 1.09 1.12 1.01 0.93 0.69 0.67 0.96 1.09 1.21 1.26
0.50 0.48 0.49 0.49 0.53 0.55 0.56 0.59 0.62 0.66 0.72 0.76 0.77 0.75 0.71 0.73 0.78 0.72 0.95 0.98 1.03 1.10 1.19 1.18 1.24 1.36 1.29 1.28 1.35 1.41 1.26 1.19 1.09 0.99 1.00 0.97 0.98 0.92 0.81 0.73 0.93 1.13 1.27
0.51 0.51 0.51 0.49 0.50 0.56 0.58 0.59 0.61 0.66 0.72 0.77 0.79 0.78 0.78 0.77 0.80 0.78 0.88 1.00 1.04 1.03 1.14 1.22 1.20 1.25 1.35 1.27 1.25 1.13 1.36 1.24 1.15 1.12 1.08 0.94 0.85 0.81 0.82 0.85 0.94 1.01 1.20
0.50 0.48 0.46 0.45 0.47 0.50 0.54 0.57 0.58 0.62 0.71 0.78 0.80 0.80 0.81 0.84 0.83 0.79 0.83 1.07 1.08 1.03 1.05 1.21 1.17 1.20 1.35 1.14 0.96 0.88 1.44 1.41 1.24 1.15 1.12 1.04 0.96 0.94 0.96 1.03 1.00 0.97 1.14
0.50 0.48 0.46 0.45 0.45 0.48 0.52 0.55 0.57 0.61 0.72 0.80 0.82 0.83 0.86 0.83 0.82 0.82 0.83 1.03 1.12 1.06 1.16 1.25 1.22 1.24 1.36 1.23 1.23 1.17 1.32 1.34 1.29 1.21 1.16 1.09 0.98 0.96 1.07 1.08 1.05 0.95 1.03
0.48 0.45 0.46 0.47 0.45 0.46 0.52 0.53 0.57 0.63 0.75 0.80 0.85 0.88 0.90 0.91 0.92 0.94 0.90 1.07 1.17 1.16 1.21 1.29 1.25 1.35 1.39 1.37 1.30 1.25 1.30 1.30 1.31 1.25 1.21 1.06 1.00 1.05 1.13 1.22 1.17 1.05 0.94
0.43 0.44 0.45 0.46 0.45 0.43 0.50 0.54 0.57 0.62 0.74 0.84 0.89 0.90 0.92 0.99 1.11 1.12 1.00 1.07 1.16 1.24 1.24 1.29 1.25 1.23 1.27 1.24 1.21 1.26 1.35 1.42 1.33 1.26 1.18 1.07 1.00 1.11 1.14 1.18 1.19 1.20 1.09
0.41 0.42 0.43 0.44 0.41 0.41 0.48 0.51 0.55 0.60 0.70 0.84 0.91 0.92 0.94 0.98 1.12 1.22 1.23 1.17 1.23 1.24 1.30 1.28 1.25 1.18 1.19 1.13 1.08 1.13 1.34 1.34 1.29 1.25 1.12 1.01 1.03 1.10 1.13 1.19 1.18 1.14 1.15
0.39 0.38 0.38 0.37 0.39 0.42 0.46 0.50 0.53 0.59 0.68 0.80 0.90 0.93 0.93 0.96 1.00 1.08 1.20 1.23 1.20 1.26 1.30 1.21 1.15 1.16 1.17 1.17 1.13 1.12 1.19 1.28 1.26 1.22 1.10 0.96 1.07 1.08 1.13 1.14 1.08 1.11 1.16
0.33 0.32 0.34 0.37 0.40 0.43 0.46 0.49 0.51 0.58 0.67 0.77 0.86 0.92 0.92 0.95 0.97 1.01 1.08 1.25 1.27 1.28 1.33 1.24 1.20 1.16 1.17 1.17 1.19 1.13 1.18 1.22 1.29 1.19 1.07 0.90 1.08 1.00 1.05 1.10 1.06 1.11 1.15
0.33 0.31 0.35 0.39 0.43 0.46 0.47 0.48 0.50 0.58 0.66 0.75 0.81 0.84 0.89 0.95 1.01 1.03 1.07 1.13 1.22 1.26 1.29 1.31 1.27 1.21 1.23 1.26 1.23 1.25 1.31 1.34 1.27 1.16 1.02 1.05 1.04 1.04 1.06 1.00 1.08 1.10 1.08
0.32 0.32 0.35 0.40 0.44 0.46 0.48 0.50 0.51 0.57 0.66 0.74 0.78 0.82 0.87 0.92 0.95 1.00 1.06 1.11 1.14 1.17 1.25 1.27 1.26 1.25 1.23 1.22 1.17 1.18 1.26 1.18 1.15 1.14 1.05 1.04 1.05 1.07 1.05 1.04 1.05 1.08 1.11
0.32 0.34 0.36 0.42 0.44 0.46 0.47 0.50 0.51 0.58 0.67 0.73 0.76 0.78 0.83 0.88 0.91 0.94 0.98 1.02 1.05 1.14 1.11 1.14 1.15 1.14 1.11 1.12 1.13 1.21 1.20 1.14 1.11 1.00 0.96 1.06 0.99 0.98 1.03 1.10 1.18 1.21 1.16
0.33 0.34 0.38 0.42 0.45 0.48 0.49 0.50 0.53 0.61 0.67 0.71 0.73 0.75 0.78 0.81 0.84 0.87 0.90 0.92 0.97 1.02 1.04 1.04 1.07 1.07 1.08 1.13 1.17 1.17 1.12 1.06 1.05 0.98 0.91 0.89 0.94 0.98 1.03 1.06 1.11 1.22 1.25
0.33 0.37 0.41 0.45 0.48 0.51 0.53 0.54 0.57 0.61 0.66 0.67 0.69 0.72 0.73 0.75 0.79 0.81 0.83 0.86 0.87 0.89 0.92 0.95 0.99 1.01 1.05 1.10 1.14 1.15 1.08 1.03 1.02 0.91 0.86 0.85 0.89 0.96 0.99 0.98 0.99 1.13 1.17
0.39 0.44 0.46 0.48 0.50 0.52 0.54 0.55 0.57 0.59 0.62 0.63 0.65 0.68 0.70 0.71 0.74 0.75 0.77 0.79 0.78 0.81 0.85 0.87 0.91 0.89 0.97 1.01 1.06 1.10 1.03 0.95 0.90 0.85 0.85 0.86 0.89 0.91 0.94 0.94 0.91 0.99 1.07
0.45 0.45 0.47 0.49 0.51 0.52 0.55 0.55 0.54 0.55 0.56 0.59 0.63 0.66 0.67 0.68 0.69 0.71 0.72 0.74 0.74 0.75 0.78 0.82 0.84 0.86 0.93 0.94 0.95 1.00 0.98 0.90 0.84 0.81 0.80 0.82 0.87 0.92 0.93 0.93 0.90 0.89 0.92
0.45 0.47 0.48 0.48 0.50 0.53 0.53 0.52 0.51 0.50 0.54 0.57 0.59 0.62 0.64 0.63 0.66 0.69 0.70 0.71 0.70 0.73 0.74 0.76 0.79 0.80 0.86 0.87 0.89 0.91 0.91 0.85 0.82 0.77 0.82 0.84 0.86 0.89 0.89 0.92 0.88 0.87 0.90
0.44 0.47 0.46 0.47 0.49 0.50 0.50 0.49 0.47 0.51 0.52 0.52 0.52 0.54 0.56 0.59 0.61 0.61 0.63 0.67 0.68 0.68 0.68 0.69 0.71 0.74 0.78 0.80 0.79 0.84 0.84 0.83 0.80 0.82 0.83 0.83 0.85 0.85 0.84 0.86 0.86 0.85 0.85
0.44 0.45 0.45 0.44 0.45 0.45 0.45 0.43 0.45 0.45 0.47 0.47 0.47 0.48 0.49 0.51 0.53 0.53 0.55 0.57 0.60 0.61 0.63 0.64 0.64 0.66 0.70 0.72 0.74 0.75 0.77 0.77 0.76 0.76 0.78 0.81 0.82 0.83 0.82 0.82 0.81 0.81 0.81
0.42 0.42 0.41 0.39 0.38 0.39 0.39 0.38 0.39 0.39 0.37 0.38 0.40 0.41 0.42 0.43 0.44 0.46 0.47 0.48 0.50 0.53 0.54 0.56 0.58 0.60 0.62 0.64 0.67 0.68 0.69 0.71 0.71 0.69 0.71 0.74 0.74 0.76 0.75 0.76 0.75 0.75 0.75
0.37 0.36 0.34 0.33 0.32 0.31 0.31 0.32 0.32 0.32 0.30 0.30 0.31 0.33 0.34 0.35 0.37 0.37 0.38 0.39 0.42 0.44 0.45 0.48 0.50 0.51 0.53 0.57 0.61 0.62 0.62 0.63 0.64 0.64 0.64 0.65 0.65 0.65 0.65 0.66 0.68 0.68 0.68
0.32 0.31 0.29 0.28 0.27 0.26 0.25 0.27 0.27 0.27 0.25 0.24 0.25 0.25 0.26 0.27 0.27 0.28 0.30 0.32 0.33 0.34 0.37 0.39 0.40 0.41 0.41 0.43 0.48 0.52 0.57 0.58 0.60 0.58 0.57 0.57 0.58 0.57 0.58 0.58 0.59 0.61 0.60

GFSMW_prec_pwat_108.txt.gz
Precipitable_Water
0.59 0.71 0.79 0.82 0.74 0.68 0.65 0.63 0.60 0.61 0.62 0.59 0.59 0.61 0.62 0.70 0.71 0.81 1.02 1.25 1.37 1.38 1.52 1.50 1.46 1.44 1.26 1.17 1.20 1.19 1.12 1.09 1.18 1.11 1.10 1.16 1.17 1.15 1.11 1.18 1.15 1.15 1.24
0.61 0.71 0.76 0.75 0.66 0.61 0.59 0.58 0.58 0.57 0.59 0.61 0.60 0.58 0.56 0.58 0.64 0.69 0.86 1.07 1.05 1.25 1.42 1.47 1.50 1.57 1.50 1.32 1.22 1.16 1.10 1.13 1.13 1.01 1.00 0.85 0.96 1.00 1.08 1.08 1.08 1.07 1.22
0.63 0.70 0.72 0.67 0.62 0.59 0.57 0.57 0.57 0.58 0.59 0.62 0.63 0.63 0.64 0.62 0.57 0.54 0.59 0.78 1.05 1.05 1.17 1.24 1.37 1.50 1.46 1.51 1.45 1.36 1.13 1.02 1.16 1.13 0.97 0.79 0.72 0.83 0.95 0.98 1.03 1.03 1.12
0.71 0.71 0.65 0.60 0.57 0.57 0.59 0.60 0.59 0.58 0.58 0.62 0.62 0.62 0.60 0.58 0.66 0.69 0.69 0.69 1.02 1.11 1.01 1.00 1.09 1.23 1.29 1.43 1.37 1.53 1.31 1.17 1.06 1.15 1.14 1.02 0.99 0.78 0.70 0.89 0.96 1.01 1.10
0.70 0.66 0.60 0.55 0.54 0.54 0.56 0.57 0.58 0.58 0.58 0.61 0.64 0.63 0.64 0.69 0.72 0.75 0.75 0.77 0.83 1.18 1.06 1.03 1.01 1.06 1.18 1.17 1.20 1.31 1.34 1.30 1.13 1.14 1.13 1.04 1.06 1.07 0.87 0.69 0.74 0.94 1.08
0.69 0.58 0.56 0.53 0.51 0.53 0.54 0.55 0.54 0.56 0.60 0.63 0.67 0.67 0.68 0.69 0.68 0.72 0.75 0.75 0.80 0.94 1.34 1.19 1.07 1.06 1.13 1.14 1.16 1.09 1.24 1.33 1.18 1.13 1.15 1.04 0.96 0.96 0.94 0.83 0.77 0.76 0.95
0.56 0.54 0.51 0.50 0.52 0.50 0.48 0.48 0.51 0.53 0.61 0.63 0.67 0.71 0.72 0.72 0.70 0.70 0.74 0.78 0.75 0.95 1.16 1.30 1.16 1.14 1.12 1.16 1.15 1.16 1.58 1.37 1.21 1.03 0.96 1.08 1.14 1.16 1.06 0.95 0.82 0.76 0.95
0.53 0.50 0.49 0.48 0.47 0.47 0.46 0.45 0.43 0.52 0.58 0.61 0.64 0.72 0.75 0.76 0.75 0.80 0.83 0.82 0.81 0.92 1.03 1.29 1.23 1.14 1.15 1.20 1.31 1.19 1.46 1.26 1.14 0.98 1.05 1.18 1.17 1.27 1.18 1.00 0.87 0.74 0.90
0.50 0.49 0.50 0.49 0.48 0.48 0.48 0.46 0.43 0.51 0.56 0.59 0.62 0.70 0.76 0.80 0.82 0.89 0.94 0.91 0.87 0.84 1.08 1.23 1.24 1.14 1.13 1.16 1.29 1.20 1.27 1.18 1.07 1.07 0.93 1.31 1.32 1.30 1.24 1.15 1.03 0.82 0.74
0.47 0.46 0.47 0.47 0.47 0.47 0.47 0.44 0.47 0.49 0.54 0.56 0.60 0.65 0.75 0.82 0.91 0.96 1.01 1.01 1.00 0.97 1.03 1.15 1.24 1.16 1.17 1.19 1.29 1.21 1.18 1.11 1.18 1.27 1.27 1.31 1.33 1.31 1.27 1.19 1.09 0.99 0.92
0.47 0.46 0.46 0.47 0.44 0.44 0.43 0.44 0.47 0.49 0.51 0.55 0.59 0.61 0.72 0.84 0.91 0.98 1.04 1.10 1.13 1.16 1.09 1.25 1.24 1.18 1.20 1.26 1.26 1.29 1.36 1.44 1.24 1.30 1.23 1.28 1.32 1.30 1.24 1.18 1.09 1.03 1.05
0.47 0.44 0.43 0.40 0.36 0.37 0.41 0.44 0.48 0.49 0.51 0.54 0.56 0.58 0.65 0.81 0.89 0.93 0.97 1.07 1.07 1.18 1.23 1.24 1.25 1.26 1.27 1.26 1.26 1.24 1.22 1.16 1.14 1.12 1.22 1.19 1.36 1.32 1.21 1.14 1.04 1.06 1.08
0.40 0.37 0.36 0.35 0.36 0.39 0.42 0.46 0.48 0.49 0.52 0.54 0.55 0.59 0.63 0.74 0.86 0.93 0.96 1.00 1.06 1.12 1.24 1.31 1.29 1.27 1.24 1.28 1.23 1.18 1.13 1.05 1.06 1.06 1.19 1.31 1.33 1.21 1.13 1.08 1.05 1.08 1.10
0.34 0.34 0.34 0.36 0.38 0.41 0.44 0.46 0.48 0.51 0.52 0.54 0.55 0.58 0.63 0.72 0.81 0.89 0.94 0.96 1.04 1.08 1.18 1.25 1.37 1.19 1.37 1.25 1.19 1.12 1.07 1.09 1.13 1.17 1.21 1.24 1.28 1.15 1.04 0.97 1.05 1.02 1.02
0.33 0.33 0.34 0.36 0.38 0.42 0.46 0.48 0.49 0.50 0.52 0.53 0.55 0.58 0.64 0.73 0.81 0.86 0.91 0.91 0.98 1.04 1.05 1.12 1.19 1.19 1.29 1.24 1.23 1.21 1.17 1.11 1.11 1.14 1.12 1.28 1.19 1.09 1.05 1.03 1.03 1.02 1.02
0.32 0.34 0.35 0.37 0.39 0.41 0.45 0.48 0.49 0.50 0.52 0.52 0.54 0.59 0.64 0.73 0.78 0.80 0.84 0.88 0.92 0.94 1.00 1.01 1.09 1.13 1.14 1.19 1.20 1.27 1.26 1.22 1.15 1.08 1.15 1.17 1.10 1.02 0.99 1.00 1.04 1.03 0.97
0.34 0.33 0.36 0.38 0.41 0.43 0.48 0.48 0.49 0.52 0.52 0.52 0.56 0.60 0.66 0.71 0.75 0.78 0.81 0.82 0.85 0.90 0.93 0.95 0.99 1.03 1.05 1.13 1.18 1.26 1.24 1.20 1.16 1.16 1.17 1.10 1.06 0.97 0.92 0.97 0.93 0.95 1.00
0.35 0.35 0.38 0.40 0.43 0.46 0.49 0.51 0.52 0.53 0.52 0.53 0.56 0.61 0.67 0.69 0.72 0.74 0.75 0.77 0.79 0.81 0.85 0.89 0.91 0.94 1.00 1.05 1.10 1.10 1.14 1.12 1.10 1.12 1.08 1.03 1.00 0.91 0.94 0.88 0.88 0.90 0.98
0.38 0.39 0.42 0.45 0.47 0.48 0.50 0.51 0.51 0.52 0.52 0.54 0.58 0.63 0.65 0.66 0.68 0.69 0.70 0.73 0.74 0.75 0.78 0.80 0.83 0.86 0.89 0.98 1.00 1.00 1.02 1.03 1.03 1.02 0.99 0.97 0.97 0.89 0.86 0.85 0.85 0.86 0.88
0.42 0.43 0.45 0.47 0.47 0.49 0.51 0.50 0.51 0.51 0.52 0.56 0.58 0.61 0.63 0.63 0.64 0.66 0.68 0.70 0.71 0.72 0.73 0.74 0.78 0.81 0.83 0.88 0.90 0.92 0.92 0.93 0.94 0.95 0.96 0.93 0.94 0.85 0.84 0.86 0.84 0.81 0.83
0.44 0.46 0.46 0.47 0.48 0.50 0.51 0.50 0.50 0.51 0.53 0.54 0.55 0.55 0.57 0.57 0.60 0.62 0.64 0.66 0.67 0.68 0.68 0.69 0.72 0.74 0.76 0.79 0.83 0.85 0.86 0.85 0.86 0.86 0.89 0.88 0.86 0.78 0.78 0.82 0.84 0.85 0.86
0.44 0.45 0.45 0.46 0.47 0.47 0.47 0.47 0.47 0.49 0.50 0.50 0.49 0.49 0.49 0.51 0.52 0.53 0.54 0.57 0.60 0.62 0.63 0.64 0.66 0.69 0.71 0.73 0.75 0.76 0.79 0.80 0.79 0.79 0.82 0.84 0.82 0.77 0.75 0.78 0.83 0.84 0.85
0.44 0.45 0.43 0.42 0.43 0.43 0.41 0.38 0.38 0.38 0.38 0.40 0.40 0.41 0.41 0.40 0.41 0.41 0.42 0.45 0.48 0.49 0.51 0.54 0.58 0.60 0.64 0.66 0.69 0.70 0.72 0.73 0.72 0.74 0.76 0.78 0.79 0.78 0.79 0.80 0.79 0.78 0.80
0.41 0.41 0.38 0.35 0.33 0.34 0.34 0.34 0.34 0.33 0.31 0.29 0.31 0.31 0.31 0.32 0.32 0.32 0.33 0.32 0.34 0.35 0.37 0.39 0.42 0.48 0.54 0.58 0.62 0.64 0.66 0.67 0.68 0.69 0.68 0.71 0.73 0.74 0.75 0.76 0.74 0.74 0.75
0.36 0.35 0.33 0.30 0.28 0.27 0.28 0.28 0.28 0.26 0.25 0.24 0.23 0.24 0.24 0.24 0.26 0.26 0.26 0.25 0.26 0.24 0.25 0.29 0.30 0.31 0.34 0.42 0.49 0.54 0.58 0.61 0.63 0.63 0.64 0.63 0.63 0.64 0.65 0.67 0.67 0.67 0.68
0.29 0.28 0.27 0.25 0.23 0.21 0.20 0.21 0.21 0.22 0.20 0.19 0.20 0.19 0.20 0.20 0.21 0.21 0.22 0.25 0.25 0.24 0.22 0.21 0.22 0.25 0.27 0.30 0.32 0.35 0.41 0.47 0.53 0.54 0.54 0.55 0.56 0.56 0.56 0.58 0.58 0.59 0.61

GFSMW_prec_pwat_111.txt.gz
Precipitable_Water
0.60 0.65 0.69 0.73 0.76 0.77 0.79 0.71 0.65 0.67 0.66 0.63 0.60 0.59 0.56 0.61 0.64 0.70 0.83 0.94 1.13 1.35 1.42 1.47 1.51 1.50 1.36 1.33 1.36 1.32 1.19 1.19 1.29 1.22 1.21 1.15 1.18 1.20 1.20 1.23 1.17 1.09 1.08
0.62 0.67 0.72 0.76 0.78 0.77 0.74 0.65 0.62 0.63 0.62 0.60 0.59 0.60 0.59 0.60 0.60 0.59 0.63 0.69 0.79 0.94 1.16 1.20 1.29 1.41 1.42 1.45 1.38 1.40 1.32 1.29 1.33 1.19 1.14 0.95 1.01 1.08 1.16 1.17 1.16 1.10 1.09
0.61 0.67 0.70 0.75 0.77 0.73 0.68 0.62 0.62 0.61 0.60 0.59 0.58 0.58 0.60 0.59 0.57 0.57 0.57 0.56 0.63 0.73 0.84 1.03 1.17 1.20 1.26 1.31 1.43 1.59 1.51 1.42 1.42 1.36 1.17 0.96 0.77 0.86 1.06 1.09 1.09 1.14 1.02
0.69 0.63 0.66 0.70 0.73 0.68 0.61 0.62 0.62 0.59 0.59 0.59 0.55 0.55 0.53 0.51 0.55 0.57 0.60 0.61 0.64 0.67 0.79 0.90 1.09 1.17 1.21 1.21 1.25 1.42 1.43 1.27 1.11 1.39 1.39 1.24 1.05 0.76 0.71 0.98 1.06 1.10 1.03
0.67 0.63 0.67 0.72 0.67 0.62 0.57 0.58 0.57 0.58 0.58 0.58 0.59 0.57 0.55 0.59 0.60 0.60 0.61 0.64 0.68 0.72 0.72 0.83 0.98 1.09 1.19 1.22 1.10 1.08 1.09 1.19 1.14 1.02 1.12 1.26 1.16 1.04 0.79 0.69 0.88 1.06 1.05
0.69 0.67 0.69 0.69 0.66 0.62 0.50 0.49 0.48 0.47 0.51 0.55 0.57 0.57 0.56 0.58 0.61 0.62 0.61 0.64 0.69 0.73 0.76 0.80 0.97 1.00 1.14 1.27 1.14 1.10 1.11 1.08 1.06 1.07 1.15 1.08 1.07 1.01 0.89 0.78 0.84 0.89 0.97
0.67 0.70 0.66 0.65 0.62 0.55 0.51 0.49 0.48 0.46 0.47 0.48 0.53 0.57 0.59 0.60 0.63 0.65 0.65 0.65 0.65 0.69 0.74 0.81 0.91 1.00 1.11 1.31 1.44 1.23 1.19 1.17 1.19 1.12 1.16 1.23 1.16 1.12 1.05 0.93 0.88 0.90 0.96
0.70 0.67 0.63 0.58 0.50 0.49 0.50 0.49 0.49 0.46 0.46 0.47 0.50 0.55 0.58 0.59 0.66 0.68 0.71 0.72 0.74 0.79 0.84 0.84 0.86 0.99 1.01 1.13 1.20 1.23 1.22 1.19 1.16 1.12 1.17 1.20 1.18 1.17 1.06 0.93 0.95 0.88 0.92
0.63 0.59 0.56 0.50 0.48 0.49 0.48 0.46 0.43 0.43 0.43 0.46 0.49 0.54 0.57 0.59 0.63 0.69 0.75 0.77 0.83 0.88 0.92 0.87 0.84 0.88 0.90 0.97 1.22 1.31 1.19 1.15 1.12 1.11 1.14 1.16 1.16 1.14 1.15 1.09 1.08 0.94 0.81
0.58 0.56 0.54 0.52 0.51 0.49 0.48 0.45 0.43 0.43 0.46 0.49 0.51 0.54 0.56 0.58 0.60 0.69 0.73 0.78 0.85 0.92 0.97 0.96 0.93 0.91 0.97 1.10 1.29 1.25 1.20 1.11 1.09 1.14 1.02 1.22 1.22 1.20 1.16 1.19 1.22 1.13 0.99
0.55 0.54 0.52 0.51 0.49 0.46 0.44 0.43 0.43 0.44 0.45 0.48 0.50 0.53 0.57 0.58 0.59 0.63 0.72 0.77 0.84 0.91 1.02 1.10 1.13 1.02 1.11 1.24 1.25 1.16 1.13 1.09 1.18 1.27 1.13 1.09 1.10 1.17 1.20 1.13 1.26 1.23 1.12
0.53 0.49 0.45 0.43 0.40 0.40 0.41 0.42 0.43 0.45 0.47 0.49 0.50 0.52 0.55 0.58 0.58 0.60 0.67 0.77 0.82 0.91 0.98 1.08 1.17 1.14 1.17 1.20 1.22 1.10 1.12 1.12 1.24 1.16 1.19 1.18 1.22 1.33 1.24 1.18 1.20 1.25 1.20
0.42 0.39 0.38 0.36 0.36 0.38 0.39 0.41 0.44 0.47 0.49 0.50 0.51 0.52 0.55 0.57 0.58 0.60 0.64 0.72 0.80 0.89 0.95 0.99 1.01 1.09 1.19 1.27 1.26 1.29 1.25 1.24 1.21 1.28 1.29 1.09 1.27 1.15 1.21 1.22 1.21 1.19 1.22
0.36 0.34 0.33 0.34 0.36 0.37 0.40 0.42 0.44 0.48 0.49 0.51 0.52 0.52 0.55 0.56 0.57 0.59 0.63 0.69 0.77 0.85 0.92 0.97 0.99 1.03 1.13 1.27 1.29 1.31 1.29 1.23 1.26 1.27 1.23 1.11 1.06 1.02 1.18 1.22 1.24 1.22 1.17
0.33 0.32 0.32 0.34 0.36 0.37 0.41 0.43 0.45 0.49 0.51 0.51 0.53 0.54 0.55 0.56 0.56 0.58 0.62 0.67 0.75 0.82 0.88 0.91 0.98 1.06 1.08 1.07 1.10 1.20 1.31 1.22 1.22 1.24 1.13 1.16 1.18 1.21 1.31 1.33 1.27 1.17 1.02
0.31 0.34 0.34 0.35 0.36 0.37 0.40 0.43 0.46 0.49 0.53 0.52 0.53 0.55 0.55 0.55 0.56 0.58 0.62 0.67 0.73 0.80 0.83 0.88 0.92 0.96 0.98 1.07 1.13 1.12 1.27 1.22 1.17 1.06 1.14 1.18 1.20 1.22 1.28 1.27 1.19 1.12 1.04
0.31 0.33 0.35 0.35 0.37 0.39 0.43 0.44 0.47 0.51 0.52 0.52 0.54 0.54 0.55 0.56 0.56 0.58 0.61 0.66 0.71 0.75 0.80 0.83 0.87 0.89 0.94 1.02 1.04 1.04 1.12 1.16 1.14 1.14 1.12 1.11 1.17 1.22 1.18 1.15 1.11 1.02 0.99
0.31 0.35 0.34 0.37 0.40 0.43 0.45 0.47 0.49 0.50 0.51 0.52 0.53 0.54 0.55 0.56 0.58 0.59 0.62 0.68 0.71 0.71 0.74 0.77 0.80 0.84 0.89 0.94 0.98 0.99 1.04 1.00 1.07 1.09 1.09 1.08 1.09 1.10 1.13 1.07 1.03 0.94 0.90
0.37 0.39 0.41 0.42 0.44 0.45 0.48 0.49 0.49 0.50 0.51 0.51 0.53 0.55 0.56 0.56 0.58 0.59 0.64 0.67 0.67 0.69 0.69 0.74 0.76 0.78 0.82 0.87 0.90 0.93 0.94 0.92 0.96 0.98 1.01 1.01 1.04 1.09 1.09 1.03 0.97 0.85 0.87
0.40 0.42 0.44 0.45 0.45 0.47 0.50 0.49 0.49 0.49 0.49 0.50 0.50 0.52 0.53 0.53 0.54 0.57 0.60 0.62 0.64 0.65 0.67 0.68 0.71 0.74 0.75 0.80 0.83 0.86 0.85 0.86 0.87 0.86 0.89 0.96 0.97 1.03 1.00 0.95 0.93 0.80 0.76
0.43 0.44 0.45 0.44 0.46 0.48 0.48 0.47 0.47 0.47 0.49 0.50 0.48 0.46 0.46 0.46 0.46 0.49 0.51 0.52 0.54 0.58 0.61 0.63 0.65 0.68 0.70 0.72 0.76 0.79 0.80 0.80 0.79 0.80 0.83 0.87 0.90 0.93 0.91 0.93 0.90 0.79 0.76
0.43 0.44 0.43 0.43 0.45 0.45 0.44 0.41 0.40 0.40 0.42 0.41 0.40 0.38 0.36 0.35 0.35 0.34 0.36 0.38 0.39 0.40 0.43 0.49 0.53 0.59 0.63 0.67 0.69 0.71 0.73 0.75 0.74 0.73 0.74 0.80 0.81 0.83 0.88 0.87 0.86 0.83 0.76
0.42 0.43 0.41 0.40 0.39 0.38 0.37 0.34 0.33 0.34 0.32 0.31 0.30 0.30 0.29 0.28 0.28 0.26 0.25 0.23 0.25 0.28 0.29 0.30 0.32 0.39 0.48 0.55 0.61 0.64 0.67 0.68 0.67 0.69 0.71 0.73 0.75 0.77 0.81 0.81 0.81 0.83 0.76
0.40 0.38 0.34 0.32 0.31 0.32 0.32 0.31 0.28 0.26 0.24 0.21 0.21 0.21 0.22 0.22 0.23 0.22 0.22 0.21 0.20 0.18 0.19 0.21 0.23 0.26 0.30 0.34 0.40 0.49 0.55 0.60 0.62 0.65 0.66 0.67 0.68 0.70 0.72 0.72 0.73 0.74 0.72
0.35 0.33 0.29 0.25 0.23 0.22 0.21 0.21 0.21 0.21 0.19 0.20 0.18 0.18 0.19 0.19 0.20 0.21 0.21 0.21 0.22 0.21 0.19 0.19 0.19 0.20 0.21 0.25 0.28 0.31 0.35 0.41 0.48 0.53 0.56 0.58 0.59 0.60 0.61 0.63 0.64 0.66 0.67
0.28 0.25 0.21 0.17 0.16 0.17 0.17 0.18 0.18 0.18 0.17 0.17 0.17 0.17 0.17 0.18 0.19 0.18 0.19 0.23 0.22 0.20 0.18 0.20 0.21 0.21 0.21 0.23 0.22 0.22 0.24 0.27 0.31 0.33 0.37 0.43 0.47 0.50 0.53 0.54 0.56 0.58 0.60

GFSMW_prec_pwat_117.txt.gz
Precipitable_Water
0.45 0.55 0.66 0.75 0.77 0.78 0.75 0.71 0.67 0.67 0.65 0.61 0.58 0.58 0.56 0.59 0.63 0.67 0.70 0.77 0.88 0.94 1.00 1.07 1.20 1.30 1.44 1.55 1.63 1.58 1.40 1.34 1.73 1.44 1.29 1.37 1.48 1.43 1.49 1.49 1.46 1.42 1.36
0.49 0.53 0.62 0.72 0.79 0.77 0.74 0.72 0.68 0.66 0.64 0.63 0.63 0.63 0.61 0.58 0.58 0.62 0.65 0.67 0.68 0.70 0.71 0.78 0.88 0.97 1.01 1.12 1.33 1.42 1.40 1.42 1.44 1.27 1.34 1.28 1.30 1.33 1.44 1.59 1.54 1.46 1.43
0.54 0.56 0.62 0.71 0.80 0.78 0.75 0.71 0.68 0.66 0.65 0.64 0.64 0.63 0.62 0.58 0.54 0.55 0.58 0.63 0.66 0.67 0.66 0.66 0.67 0.73 0.84 0.85 0.93 1.10 1.15 1.12 1.26 1.35 1.25 1.10 1.05 1.21 1.29 1.35 1.45 1.49 1.39
0.62 0.64 0.65 0.67 0.73 0.77 0.76 0.72 0.68 0.64 0.62 0.61 0.57 0.57 0.51 0.41 0.48 0.51 0.54 0.57 0.63 0.67 0.68 0.66 0.65 0.63 0.63 0.65 0.73 0.87 0.99 1.01 0.97 1.08 1.21 1.20 1.14 0.97 0.94 1.14 1.23 1.37 1.34
0.67 0.70 0.71 0.69 0.70 0.77 0.76 0.71 0.67 0.63 0.61 0.59 0.57 0.55 0.52 0.46 0.45 0.47 0.48 0.52 0.57 0.63 0.69 0.70 0.67 0.65 0.65 0.64 0.61 0.62 0.70 0.84 0.81 0.87 0.91 0.95 0.99 1.03 0.94 0.85 0.97 1.19 1.28
0.66 0.70 0.73 0.72 0.68 0.68 0.67 0.68 0.64 0.62 0.61 0.64 0.64 0.62 0.49 0.50 0.45 0.43 0.44 0.46 0.50 0.55 0.64 0.71 0.74 0.74 0.72 0.72 0.71 0.71 0.73 0.81 0.88 0.84 0.86 0.88 0.84 0.85 0.86 0.84 0.86 0.88 1.06
0.65 0.67 0.67 0.66 0.69 0.69 0.67 0.62 0.63 0.60 0.63 0.61 0.59 0.56 0.53 0.47 0.48 0.48 0.44 0.45 0.47 0.51 0.56 0.66 0.71 0.74 0.77 0.77 0.79 0.76 0.74 0.81 0.90 0.93 0.89 0.89 0.89 0.96 0.94 0.88 0.80 0.80 0.97
0.61 0.62 0.63 0.63 0.61 0.62 0.61 0.60 0.62 0.62 0.60 0.56 0.51 0.49 0.49 0.49 0.52 0.50 0.50 0.50 0.50 0.53 0.58 0.60 0.68 0.74 0.76 0.77 0.81 0.80 0.76 0.78 0.89 0.92 0.96 0.98 1.02 1.01 1.00 0.88 0.88 0.81 0.93
0.60 0.63 0.64 0.66 0.63 0.63 0.62 0.59 0.57 0.56 0.54 0.51 0.49 0.50 0.51 0.51 0.52 0.54 0.54 0.52 0.56 0.58 0.58 0.59 0.62 0.70 0.75 0.79 0.81 0.82 0.81 0.83 0.86 0.91 0.97 1.02 1.07 1.08 1.11 1.10 1.02 0.93 0.90
0.58 0.56 0.57 0.57 0.61 0.62 0.57 0.54 0.53 0.51 0.49 0.51 0.51 0.49 0.51 0.53 0.53 0.55 0.55 0.53 0.54 0.56 0.57 0.57 0.58 0.64 0.71 0.76 0.79 0.80 0.86 0.81 0.84 0.92 0.97 1.04 1.08 1.07 1.11 1.11 1.15 1.09 1.02
0.55 0.57 0.55 0.55 0.52 0.50 0.56 0.59 0.58 0.53 0.52 0.50 0.49 0.49 0.48 0.49 0.49 0.49 0.50 0.55 0.54 0.54 0.54 0.55 0.57 0.60 0.64 0.69 0.75 0.79 0.87 0.85 0.83 0.95 0.99 0.98 1.04 1.04 1.11 1.16 1.14 1.17 1.13
0.46 0.47 0.47 0.46 0.45 0.45 0.42 0.43 0.43 0.43 0.45 0.47 0.47 0.47 0.47 0.48 0.47 0.48 0.49 0.51 0.52 0.53 0.52 0.54 0.56 0.58 0.62 0.66 0.71 0.76 0.83 0.90 0.91 0.99 1.06 0.96 1.12 1.13 1.16 1.10 1.12 1.13 1.16
0.41 0.40 0.40 0.40 0.40 0.41 0.41 0.41 0.43 0.44 0.45 0.46 0.46 0.46 0.47 0.46 0.46 0.48 0.50 0.52 0.51 0.50 0.52 0.54 0.54 0.56 0.59 0.64 0.69 0.74 0.81 0.89 1.00 1.09 1.14 1.10 1.14 1.17 1.19 1.18 1.16 1.19 1.21
0.38 0.35 0.35 0.35 0.35 0.37 0.41 0.43 0.44 0.46 0.47 0.47 0.47 0.47 0.48 0.48 0.48 0.49 0.50 0.51 0.51 0.52 0.53 0.54 0.55 0.57 0.60 0.63 0.68 0.74 0.82 0.92 1.03 1.18 1.27 1.19 1.18 1.16 1.13 1.13 1.17 1.20 1.15
0.34 0.33 0.31 0.33 0.36 0.40 0.41 0.43 0.45 0.46 0.46 0.46 0.48 0.49 0.51 0.51 0.51 0.51 0.51 0.52 0.53 0.53 0.53 0.54 0.56 0.58 0.59 0.62 0.67 0.74 0.81 0.88 0.97 1.03 1.12 1.21 1.20 1.15 1.12 1.15 1.16 1.19 1.13
0.32 0.31 0.32 0.35 0.37 0.40 0.42 0.43 0.46 0.47 0.48 0.47 0.48 0.50 0.51 0.51 0.52 0.52 0.53 0.54 0.53 0.53 0.54 0.55 0.56 0.57 0.59 0.62 0.67 0.74 0.79 0.84 0.91 0.96 1.01 1.05 1.04 1.08 1.19 1.30 1.19 1.17 1.07
0.30 0.31 0.34 0.37 0.39 0.41 0.43 0.43 0.45 0.46 0.45 0.45 0.46 0.46 0.48 0.48 0.50 0.51 0.52 0.53 0.53 0.55 0.55 0.55 0.56 0.55 0.58 0.61 0.64 0.73 0.79 0.83 0.87 0.91 0.95 0.99 1.00 1.05 1.18 1.15 1.13 1.18 1.16
0.31 0.34 0.37 0.37 0.40 0.43 0.45 0.46 0.46 0.46 0.45 0.45 0.45 0.44 0.44 0.43 0.43 0.44 0.44 0.45 0.46 0.48 0.52 0.54 0.54 0.54 0.57 0.61 0.63 0.71 0.77 0.80 0.81 0.86 0.89 0.92 0.98 1.01 1.03 1.04 1.02 1.04 1.08
0.35 0.37 0.38 0.39 0.41 0.43 0.45 0.46 0.46 0.46 0.45 0.44 0.43 0.42 0.39 0.36 0.34 0.31 0.31 0.32 0.32 0.33 0.36 0.41 0.47 0.52 0.55 0.59 0.62 0.70 0.73 0.73 0.75 0.79 0.83 0.87 0.89 0.93 1.01 0.99 0.96 1.00 1.02
0.37 0.37 0.38 0.40 0.41 0.43 0.45 0.44 0.44 0.44 0.42 0.38 0.35 0.33 0.30 0.25 0.21 0.21 0.20 0.21 0.23 0.25 0.28 0.28 0.30 0.35 0.42 0.51 0.59 0.65 0.66 0.67 0.69 0.72 0.74 0.79 0.83 0.88 0.89 0.88 0.92 0.88 0.94
0.37 0.39 0.40 0.40 0.41 0.44 0.43 0.38 0.37 0.36 0.36 0.32 0.27 0.24 0.22 0.20 0.20 0.21 0.22 0.22 0.22 0.21 0.20 0.20 0.23 0.25 0.27 0.32 0.40 0.51 0.58 0.59 0.62 0.65 0.67 0.71 0.75 0.79 0.82 0.83 0.88 0.85 0.89
0.38 0.40 0.39 0.40 0.42 0.41 0.39 0.35 0.30 0.27 0.25 0.24 0.22 0.22 0.21 0.19 0.18 0.16 0.15 0.17 0.17 0.16 0.17 0.18 0.19 0.21 0.23 0.23 0.25 0.32 0.38 0.44 0.51 0.56 0.61 0.66 0.69 0.72 0.75 0.78 0.80 0.81 0.84
0.38 0.39 0.38 0.37 0.36 0.35 0.31 0.24 0.24 0.23 0.20 0.19 0.18 0.19 0.19 0.19 0.19 0.16 0.15 0.16 0.16 0.17 0.16 0.15 0.15 0.16 0.19 0.20 0.21 0.21 0.23 0.28 0.33 0.40 0.46 0.56 0.62 0.63 0.67 0.69 0.72 0.74 0.75
0.35 0.35 0.34 0.32 0.28 0.25 0.24 0.20 0.20 0.20 0.19 0.18 0.18 0.19 0.18 0.19 0.20 0.18 0.16 0.15 0.15 0.15 0.15 0.14 0.13 0.14 0.15 0.17 0.18 0.18 0.18 0.19 0.21 0.25 0.31 0.36 0.42 0.49 0.56 0.61 0.63 0.65 0.67
0.32 0.30 0.28 0.23 0.20 0.19 0.16 0.17 0.18 0.18 0.17 0.17 0.17 0.17 0.18 0.17 0.17 0.17 0.15 0.14 0.15 0.15 0.14 0.15 0.13 0.13 0.12 0.14 0.16 0.16 0.15 0.16 0.16 0.17 0.18 0.21 0.25 0.30 0.37 0.43 0.51 0.57 0.59
0.27 0.25 0.20 0.16 0.16 0.15 0.15 0.16 0.17 0.17 0.17 0.15 0.15 0.16 0.16 0.15 0.15 0.15 0.14 0.16 0.15 0.15 0.14 0.14 0.13 0.12 0.13 0.12 0.12 0.13 0.13 0.13 0.13 0.12 0.12 0.13 0.16 0.18 0.21 0.26 0.32 0.39 0.45

GFSMW_prec_pwat_123.txt.gz
Precipitable_Water
0.47 0.50 0.51 0.53 0.55 0.57 0.58 0.60 0.63 0.69 0.74 0.76 0.76 0.78 0.77 0.80 0.76 0.75 0.73 0.70 0.69 0.71 0.72 0.70 0.72 0.78 0.86 1.04 1.19 1.30 1.44 1.52 1.63 1.55 1.47 1.37 1.51 1.47 1.45 1.40 1.38 1.42 1.44
0.47 0.50 0.51 0.53 0.55 0.56 0.58 0.60 0.62 0.65 0.69 0.73 0.77 0.79 0.79 0.79 0.74 0.70 0.69 0.69 0.70 0.70 0.70 0.69 0.67 0.67 0.67 0.70 0.76 0.90 1.05 1.29 1.46 1.35 1.30 1.22 1.32 1.41 1.34 1.45 1.36 1.33 1.36
0.47 0.49 0.51 0.53 0.55 0.57 0.59 0.60 0.63 0.65 0.67 0.71 0.71 0.73 0.77 0.73 0.69 0.68 0.66 0.67 0.69 0.70 0.69 0.67 0.67 0.68 0.67 0.65 0.68 0.71 0.72 0.77 1.08 1.21 1.04 0.91 0.86 1.00 1.14 1.18 1.23 1.32 1.31
0.49 0.51 0.53 0.54 0.55 0.56 0.61 0.61 0.63 0.65 0.69 0.70 0.68 0.63 0.62 0.61 0.66 0.64 0.64 0.63 0.66 0.68 0.66 0.63 0.61 0.64 0.67 0.67 0.69 0.73 0.71 0.70 0.66 0.94 1.14 1.07 1.00 0.83 0.79 1.01 1.09 1.23 1.20
0.50 0.50 0.53 0.56 0.60 0.61 0.63 0.64 0.69 0.67 0.70 0.74 0.73 0.70 0.64 0.63 0.65 0.64 0.63 0.63 0.69 0.70 0.69 0.61 0.58 0.58 0.63 0.66 0.67 0.70 0.72 0.73 0.68 0.67 0.80 0.93 0.94 0.92 0.84 0.78 0.86 0.99 1.05
0.50 0.52 0.55 0.58 0.60 0.64 0.64 0.69 0.73 0.74 0.72 0.75 0.79 0.79 0.77 0.74 0.61 0.62 0.60 0.64 0.65 0.62 0.66 0.66 0.58 0.60 0.59 0.62 0.67 0.67 0.70 0.72 0.74 0.71 0.68 0.68 0.70 0.67 0.66 0.64 0.77 0.76 0.91
0.50 0.51 0.52 0.54 0.56 0.58 0.60 0.65 0.71 0.75 0.75 0.73 0.70 0.71 0.73 0.72 0.70 0.67 0.66 0.57 0.56 0.52 0.54 0.57 0.55 0.58 0.60 0.58 0.62 0.66 0.65 0.68 0.70 0.72 0.71 0.71 0.68 0.79 0.72 0.67 0.65 0.70 0.79
0.51 0.50 0.52 0.53 0.53 0.55 0.57 0.60 0.62 0.64 0.66 0.67 0.71 0.76 0.75 0.73 0.72 0.67 0.61 0.57 0.52 0.50 0.52 0.53 0.55 0.57 0.62 0.61 0.58 0.59 0.65 0.66 0.70 0.71 0.74 0.75 0.75 0.77 0.82 0.78 0.78 0.75 0.78
0.50 0.50 0.50 0.46 0.46 0.47 0.48 0.50 0.55 0.61 0.62 0.62 0.63 0.60 0.59 0.57 0.57 0.63 0.59 0.57 0.56 0.52 0.51 0.52 0.54 0.57 0.58 0.60 0.62 0.59 0.59 0.62 0.67 0.71 0.74 0.77 0.80 0.84 0.84 0.91 0.86 0.80 0.70
0.49 0.46 0.42 0.41 0.41 0.41 0.43 0.45 0.49 0.48 0.54 0.60 0.62 0.61 0.61 0.60 0.57 0.55 0.57 0.60 0.56 0.52 0.49 0.50 0.51 0.54 0.58 0.59 0.60 0.61 0.61 0.62 0.66 0.69 0.72 0.78 0.84 0.86 0.89 0.98 0.95 0.89 0.78
0.46 0.44 0.41 0.41 0.40 0.39 0.39 0.40 0.42 0.47 0.50 0.51 0.50 0.54 0.61 0.61 0.61 0.59 0.59 0.56 0.55 0.53 0.51 0.49 0.50 0.51 0.54 0.58 0.60 0.62 0.62 0.64 0.67 0.71 0.73 0.79 0.84 0.87 0.89 0.94 0.92 0.89 0.90
0.46 0.43 0.42 0.40 0.39 0.37 0.36 0.38 0.41 0.42 0.45 0.54 0.53 0.50 0.51 0.54 0.53 0.53 0.55 0.54 0.52 0.53 0.52 0.51 0.51 0.51 0.53 0.54 0.58 0.60 0.62 0.61 0.62 0.67 0.73 0.78 0.82 0.83 0.92 0.94 0.89 0.91 0.94
0.45 0.43 0.42 0.39 0.38 0.37 0.36 0.40 0.42 0.43 0.45 0.46 0.49 0.54 0.55 0.52 0.51 0.52 0.53 0.53 0.53 0.53 0.52 0.52 0.51 0.51 0.52 0.53 0.54 0.57 0.60 0.63 0.63 0.65 0.67 0.69 0.73 0.75 0.78 0.81 0.92 0.95 0.95
0.45 0.43 0.42 0.39 0.37 0.36 0.37 0.40 0.42 0.44 0.45 0.45 0.45 0.45 0.49 0.52 0.52 0.53 0.54 0.54 0.54 0.53 0.52 0.51 0.51 0.52 0.53 0.54 0.54 0.55 0.57 0.60 0.61 0.64 0.66 0.68 0.69 0.70 0.75 0.81 0.86 0.92 1.00
0.44 0.44 0.42 0.39 0.36 0.35 0.38 0.40 0.41 0.42 0.44 0.43 0.42 0.42 0.43 0.45 0.45 0.46 0.46 0.47 0.49 0.50 0.51 0.50 0.50 0.50 0.51 0.52 0.54 0.56 0.56 0.56 0.58 0.60 0.63 0.65 0.69 0.72 0.76 0.80 0.84 0.88 0.88
0.44 0.44 0.41 0.37 0.34 0.35 0.38 0.40 0.42 0.43 0.43 0.42 0.42 0.42 0.42 0.42 0.40 0.39 0.37 0.36 0.36 0.36 0.37 0.39 0.43 0.46 0.47 0.49 0.51 0.52 0.53 0.54 0.54 0.55 0.57 0.61 0.63 0.68 0.74 0.78 0.83 0.83 0.86
0.44 0.43 0.38 0.35 0.36 0.39 0.40 0.40 0.42 0.43 0.42 0.39 0.38 0.37 0.37 0.36 0.34 0.31 0.28 0.25 0.23 0.24 0.23 0.23 0.25 0.28 0.33 0.40 0.45 0.49 0.50 0.51 0.51 0.53 0.55 0.56 0.60 0.65 0.68 0.73 0.78 0.80 0.81
0.44 0.41 0.36 0.36 0.39 0.41 0.42 0.44 0.43 0.42 0.41 0.37 0.36 0.33 0.31 0.27 0.25 0.23 0.21 0.19 0.19 0.19 0.19 0.19 0.21 0.21 0.23 0.24 0.25 0.31 0.39 0.44 0.49 0.50 0.52 0.54 0.56 0.60 0.64 0.68 0.71 0.74 0.79
0.42 0.38 0.37 0.38 0.40 0.41 0.43 0.44 0.43 0.40 0.37 0.33 0.31 0.25 0.22 0.21 0.21 0.17 0.16 0.17 0.17 0.18 0.17 0.17 0.17 0.18 0.19 0.20 0.19 0.19 0.21 0.24 0.28 0.38 0.46 0.49 0.52 0.55 0.59 0.62 0.64 0.68 0.74
0.38 0.35 0.38 0.39 0.40 0.41 0.43 0.41 0.37 0.33 0.27 0.23 0.21 0.21 0.21 0.18 0.17 0.19 0.19 0.18 0.16 0.15 0.15 0.15 0.16 0.16 0.16 0.17 0.16 0.15 0.15 0.15 0.17 0.21 0.25 0.32 0.41 0.48 0.52 0.56 0.59 0.62 0.68
0.35 0.38 0.39 0.38 0.40 0.41 0.39 0.35 0.35 0.28 0.25 0.24 0.22 0.19 0.20 0.20 0.19 0.16 0.16 0.15 0.14 0.14 0.13 0.14 0.14 0.14 0.15 0.15 0.15 0.15 0.14 0.14 0.15 0.14 0.16 0.20 0.24 0.28 0.37 0.46 0.53 0.59 0.66
0.36 0.39 0.38 0.39 0.41 0.40 0.36 0.30 0.22 0.24 0.24 0.24 0.23 0.21 0.17 0.16 0.16 0.15 0.15 0.15 0.14 0.12 0.12 0.12 0.12 0.13 0.13 0.13 0.13 0.12 0.11 0.11 0.11 0.12 0.13 0.14 0.15 0.17 0.21 0.26 0.36 0.49 0.57
0.38 0.39 0.39 0.39 0.40 0.37 0.26 0.20 0.24 0.22 0.21 0.20 0.19 0.18 0.17 0.16 0.16 0.15 0.15 0.14 0.14 0.13 0.12 0.12 0.12 0.12 0.12 0.12 0.11 0.10 0.09 0.09 0.09 0.10 0.10 0.11 0.11 0.12 0.13 0.15 0.19 0.26 0.35
0.37 0.38 0.39 0.37 0.32 0.27 0.23 0.21 0.22 0.21 0.19 0.17 0.17 0.17 0.16 0.15 0.16 0.16 0.15 0.15 0.15 0.14 0.14 0.13 0.13 0.12 0.11 0.11 0.11 0.10 0.10 0.09 0.08 0.08 0.08 0.08 0.09 0.09 0.09 0.11 0.13 0.16 0.19
0.37 0.37 0.34 0.29 0.26 0.20 0.20 0.20 0.20 0.18 0.16 0.15 0.15 0.16 0.16 0.15 0.15 0.16 0.16 0.15 0.16 0.15 0.14 0.14 0.12 0.11 0.10 0.10 0.10 0.09 0.09 0.08 0.07 0.07 0.07 0.07 0.07 0.07 0.07 0.08 0.09 0.11 0.13
0.36 0.34 0.29 0.21 0.19 0.18 0.17 0.18 0.18 0.16 0.15 0.14 0.14 0.15 0.15 0.15 0.15 0.14 0.13 0.15 0.15 0.15 0.15 0.14 0.13 0.13 0.12 0.11 0.10 0.09 0.08 0.08 0.07 0.07 0.06 0.06 0.06 0.06 0.06 0.07 0.07 0.08 0.10